[[{"header":{"parameterUnit":"m.s-1","parameterCategory":1,"la1":30.6,"la2":29.2853,"lo1":-89.7004,"lo2":-87.6739,"dy":0.0162,"dx":0.0183,"nx":112,"ny":82,"refTime":"2023-05-08T00:00:00:Z","depth":0,"parameterNumber":2,"parameterNumberName":"U-component_of_WINDS"},"data":[0.0,0.0,0.0,0.0,0.0,0.0,0.0,0.0,0.0,0.0,0.0,0.0,0.0,0.0,0.0,0.0,0.0,0.0,0.0,0.0,0.0,0.0,0.0,0.0,0.0,0.0,0.0,0.0,0.0,0.0,0.0,0.0,0.0,0.0,0.0,0.0,0.0,0.0,0.0,0.0,0.0,0.0,0.0,0.0,0.0,0.0,0.0,0.0,0.0,0.0,0.0,0.0,0.0,0.0,0.0,0.0,0.0,0.0,0.0,0.0,0.0,0.0,0.0,0.0,0.0,0.0,0.0,0.0,0.0,0.0,0.0,0.0,0.0,0.0,0.0,0.0,0.0,0.0,0.0,0.0,0.0,0.0,0.0,0.0,0.0,0.0,0.0,0.0,0.0,0.0,-4.3182,-4.4985,-4.5831,-4.6266,-4.6197,-4.4538,-4.2877,-4.1418,0.0,0.0,0.0,0.0,0.0,0.0,0.0,0.0,0.0,0.0,0.0,0.0,0.0,0.0,0.0,0.0,0.0,0.0,0.0,0.0,0.0,0.0,0.0,0.0,0.0,0.0,0.0,0.0,0.0,0.0,0.0,0.0,0.0,0.0,0.0,0.0,0.0,0.0,0.0,0.0,0.0,0.0,0.0,0.0,0.0,0.0,0.0,0.0,0.0,0.0,0.0,0.0,0.0,0.0,0.0,0.0,0.0,0.0,0.0,0.0,0.0,0.0,0.0,0.0,0.0,0.0,0.0,0.0,0.0,0.0,0.0,0.0,0.0,0.0,0.0,0.0,0.0,0.0,0.0,0.0,0.0,0.0,0.0,0.0,0.0,0.0,0.0,0.0,0.0,0.0,0.0,0.0,0.0,0.0,0.0,0.0,0.0,0.0,0.0,0.0,0.0,0.0,0.0,0.0,-4.4008,-4.5816,-4.6149,-4.6211,-4.6191,-4.4495,-4.2976,-4.1936,0.0,0.0,0.0,0.0,0.0,0.0,0.0,0.0,0.0,0.0,0.0,0.0,0.0,0.0,0.0,0.0,0.0,0.0,0.0,0.0,0.0,0.0,0.0,0.0,0.0,0.0,0.0,0.0,0.0,0.0,0.0,0.0,0.0,0.0,0.0,0.0,0.0,0.0,0.0,0.0,0.0,0.0,0.0,0.0,0.0,0.0,0.0,0.0,0.0,0.0,0.0,0.0,0.0,0.0,0.0,0.0,0.0,0.0,0.0,0.0,0.0,0.0,0.0,0.0,0.0,0.0,0.0,0.0,0.0,0.0,0.0,0.0,0.0,0.0,0.0,0.0,0.0,0.0,0.0,0.0,0.0,0.0,0.0,0.0,0.0,0.0,0.0,0.0,0.0,0.0,0.0,0.0,0.0,0.0,0.0,0.0,0.0,0.0,0.0,0.0,0.0,0.0,0.0,-4.3486,-4.476,-4.6063,-4.6202,-4.6191,-4.6195,-4.4476,-4.3054,-4.2262,-3.859,0.0,0.0,0.0,0.0,0.0,0.0,0.0,0.0,0.0,0.0,0.0,0.0,0.0,0.0,0.0,0.0,0.0,0.0,0.0,0.0,0.0,0.0,0.0,0.0,0.0,0.0,0.0,0.0,0.0,0.0,0.0,0.0,0.0,0.0,0.0,0.0,0.0,0.0,0.0,0.0,0.0,0.0,0.0,0.0,0.0,0.0,0.0,0.0,0.0,0.0,0.0,0.0,0.0,0.0,0.0,0.0,0.0,0.0,0.0,0.0,0.0,0.0,0.0,0.0,0.0,0.0,0.0,0.0,0.0,0.0,0.0,0.0,0.0,0.0,0.0,0.0,0.0,0.0,0.0,0.0,0.0,0.0,0.0,0.0,0.0,0.0,0.0,0.0,0.0,0.0,0.0,0.0,0.0,0.0,0.0,0.0,0.0,0.0,0.0,0.0,0.0,0.0,-4.4487,-4.5449,-4.6112,-4.6,-4.5897,-4.5895,-4.4145,-4.2667,-4.1791,-3.8103,0.0,0.0,0.0,0.0,0.0,0.0,0.0,0.0,0.0,0.0,0.0,0.0,0.0,0.0,0.0,0.0,0.0,0.0,0.0,0.0,0.0,0.0,0.0,0.0,0.0,0.0,0.0,0.0,0.0,0.0,0.0,0.0,0.0,0.0,0.0,0.0,0.0,0.0,0.0,0.0,0.0,0.0,0.0,0.0,0.0,0.0,0.0,0.0,0.0,0.0,0.0,0.0,0.0,0.0,0.0,0.0,0.0,0.0,0.0,0.0,0.0,0.0,0.0,0.0,0.0,0.0,0.0,0.0,0.0,0.0,0.0,0.0,0.0,0.0,0.0,0.0,0.0,0.0,0.0,0.0,0.0,0.0,0.0,0.0,0.0,0.0,0.0,0.0,0.0,0.0,0.0,0.0,0.0,0.0,0.0,0.0,0.0,0.0,0.0,0.0,0.0,0.0,-4.4967,-4.6046,-4.6111,-4.5448,-4.4989,-4.4998,-4.3159,-4.1364,-3.989,-3.7343,0.0,0.0,0.0,0.0,0.0,0.0,0.0,0.0,0.0,0.0,0.0,0.0,0.0,0.0,0.0,0.0,0.0,0.0,0.0,0.0,0.0,0.0,0.0,0.0,0.0,0.0,0.0,0.0,0.0,0.0,0.0,0.0,0.0,0.0,0.0,0.0,0.0,0.0,0.0,0.0,0.0,0.0,0.0,0.0,0.0,0.0,0.0,0.0,0.0,0.0,0.0,0.0,0.0,0.0,0.0,0.0,0.0,0.0,0.0,0.0,0.0,0.0,0.0,0.0,0.0,0.0,0.0,0.0,0.0,0.0,0.0,0.0,0.0,0.0,0.0,0.0,0.0,0.0,0.0,0.0,0.0,0.0,0.0,0.0,0.0,0.0,0.0,0.0,0.0,0.0,0.0,0.0,0.0,0.0,0.0,0.0,0.0,0.0,0.0,0.0,0.0,0.0,-4.4102,-4.47,-4.5286,-4.4582,-4.4086,-4.4081,-4.2861,-4.1396,-3.9767,0.0,0.0,0.0,0.0,0.0,0.0,0.0,0.0,0.0,0.0,0.0,0.0,0.0,0.0,0.0,0.0,0.0,0.0,0.0,0.0,0.0,0.0,0.0,0.0,0.0,0.0,0.0,0.0,0.0,0.0,0.0,0.0,0.0,0.0,0.0,0.0,0.0,0.0,0.0,0.0,0.0,0.0,0.0,0.0,0.0,0.0,0.0,0.0,0.0,0.0,0.0,0.0,0.0,0.0,0.0,0.0,0.0,0.0,0.0,0.0,0.0,0.0,0.0,0.0,0.0,0.0,0.0,0.0,0.0,0.0,0.0,0.0,0.0,0.0,0.0,0.0,0.0,0.0,0.0,0.0,0.0,0.0,0.0,0.0,0.0,0.0,0.0,0.0,0.0,0.0,0.0,0.0,0.0,0.0,0.0,0.0,0.0,0.0,0.0,0.0,0.0,0.0,-4.3234,-4.3515,-4.3826,-4.4766,-4.3857,-4.3195,-4.3221,-4.2291,-4.0942,-3.9118,0.0,0.0,0.0,0.0,0.0,0.0,0.0,0.0,0.0,0.0,0.0,0.0,0.0,0.0,0.0,0.0,0.0,0.0,0.0,0.0,0.0,0.0,0.0,0.0,0.0,0.0,0.0,0.0,0.0,0.0,0.0,0.0,0.0,0.0,0.0,0.0,0.0,0.0,0.0,0.0,0.0,0.0,0.0,0.0,0.0,0.0,0.0,0.0,0.0,0.0,0.0,0.0,0.0,0.0,0.0,0.0,0.0,0.0,0.0,0.0,0.0,0.0,0.0,0.0,0.0,0.0,0.0,0.0,0.0,0.0,0.0,0.0,0.0,0.0,0.0,0.0,0.0,0.0,0.0,0.0,0.0,0.0,0.0,0.0,0.0,0.0,0.0,0.0,0.0,0.0,0.0,0.0,0.0,0.0,0.0,0.0,0.0,0.0,0.0,0.0,0.0,0.0,-4.3166,-4.3437,-4.3743,-4.469,-4.328,-4.23,-4.2373,-4.1352,-3.9796,0.0,0.0,0.0,0.0,0.0,0.0,0.0,0.0,0.0,0.0,0.0,0.0,0.0,0.0,0.0,0.0,0.0,0.0,0.0,0.0,0.0,0.0,0.0,0.0,0.0,0.0,0.0,0.0,0.0,0.0,0.0,0.0,0.0,0.0,0.0,0.0,0.0,0.0,0.0,0.0,0.0,0.0,0.0,0.0,0.0,0.0,0.0,0.0,0.0,0.0,0.0,0.0,0.0,0.0,0.0,0.0,0.0,0.0,0.0,0.0,0.0,0.0,0.0,0.0,0.0,0.0,0.0,0.0,0.0,0.0,0.0,0.0,0.0,0.0,0.0,0.0,0.0,0.0,0.0,0.0,0.0,0.0,0.0,0.0,0.0,0.0,0.0,0.0,0.0,0.0,0.0,0.0,0.0,0.0,0.0,0.0,0.0,0.0,0.0,0.0,0.0,0.0,0.0,-4.2328,-4.2528,-4.2831,-4.3778,-4.2389,-4.1404,-4.1475,-4.1172,-4.0095,-3.7995,0.0,0.0,0.0,0.0,0.0,0.0,0.0,0.0,0.0,0.0,0.0,0.0,0.0,0.0,0.0,0.0,0.0,0.0,0.0,0.0,0.0,0.0,0.0,0.0,0.0,0.0,0.0,0.0,0.0,0.0,0.0,0.0,0.0,0.0,0.0,0.0,0.0,0.0,0.0,0.0,0.0,0.0,0.0,0.0,0.0,0.0,0.0,0.0,0.0,0.0,0.0,0.0,0.0,0.0,0.0,0.0,0.0,0.0,0.0,0.0,0.0,0.0,0.0,0.0,0.0,0.0,0.0,0.0,0.0,0.0,0.0,0.0,0.0,0.0,0.0,0.0,0.0,0.0,0.0,0.0,0.0,0.0,0.0,0.0,0.0,0.0,0.0,0.0,0.0,0.0,0.0,0.0,0.0,0.0,0.0,0.0,0.0,0.0,0.0,0.0,0.0,0.0,-4.1473,-4.1616,-4.1928,-4.2849,-4.1781,-4.1016,-4.1068,-4.1082,-4.0231,-3.8201,0.0,0.0,0.0,0.0,0.0,0.0,0.0,0.0,0.0,0.0,0.0,0.0,0.0,0.0,0.0,0.0,0.0,0.0,0.0,0.0,0.0,0.0,0.0,0.0,0.0,0.0,0.0,0.0,0.0,0.0,0.0,0.0,0.0,0.0,0.0,0.0,0.0,0.0,0.0,0.0,0.0,0.0,0.0,0.0,0.0,0.0,0.0,0.0,0.0,0.0,0.0,0.0,0.0,0.0,0.0,0.0,0.0,0.0,0.0,0.0,0.0,0.0,0.0,0.0,0.0,0.0,0.0,0.0,0.0,0.0,0.0,0.0,0.0,0.0,0.0,0.0,0.0,0.0,0.0,0.0,0.0,0.0,0.0,0.0,0.0,0.0,0.0,0.0,0.0,0.0,0.0,0.0,0.0,0.0,0.0,0.0,0.0,0.0,0.0,0.0,0.0,0.0,-4.0571,-4.0786,-4.1136,-4.2009,-4.1425,-4.0997,-4.0992,-4.0998,-4.0194,-3.8344,0.0,0.0,0.0,0.0,0.0,0.0,0.0,0.0,0.0,0.0,0.0,0.0,0.0,0.0,0.0,0.0,0.0,0.0,0.0,0.0,0.0,0.0,0.0,0.0,0.0,0.0,0.0,0.0,0.0,0.0,0.0,0.0,0.0,0.0,0.0,0.0,0.0,0.0,0.0,0.0,0.0,0.0,0.0,0.0,0.0,0.0,0.0,0.0,0.0,0.0,0.0,0.0,0.0,0.0,0.0,0.0,0.0,0.0,0.0,0.0,-3.7626,-3.7225,0.0,0.0,0.0,0.0,0.0,0.0,0.0,0.0,0.0,0.0,0.0,0.0,0.0,0.0,0.0,0.0,0.0,0.0,0.0,0.0,0.0,0.0,0.0,0.0,0.0,0.0,0.0,0.0,0.0,0.0,0.0,0.0,0.0,0.0,0.0,0.0,0.0,0.0,0.0,0.0,-3.9754,-4.0417,-4.1139,-4.2017,-4.1388,-4.0945,-4.0994,-4.0437,-3.9612,-3.8509,-3.8445,0.0,0.0,0.0,0.0,0.0,0.0,0.0,0.0,0.0,0.0,0.0,0.0,0.0,0.0,0.0,0.0,0.0,0.0,0.0,0.0,0.0,0.0,0.0,0.0,0.0,0.0,0.0,0.0,0.0,0.0,0.0,0.0,0.0,0.0,0.0,0.0,0.0,0.0,0.0,0.0,0.0,0.0,0.0,0.0,0.0,0.0,0.0,0.0,0.0,0.0,0.0,0.0,0.0,0.0,0.0,0.0,0.0,0.0,0.0,-3.8562,-3.8003,0.0,0.0,0.0,0.0,0.0,0.0,0.0,0.0,0.0,0.0,0.0,0.0,0.0,0.0,0.0,0.0,0.0,0.0,0.0,0.0,0.0,0.0,0.0,0.0,0.0,0.0,0.0,0.0,0.0,0.0,0.0,0.0,0.0,0.0,0.0,0.0,0.0,0.0,0.0,0.0,-3.8918,-4.0014,-4.0924,-4.1385,-4.111,-4.0917,-4.0949,-4.0202,-3.9394,-3.8545,-3.8392,0.0,0.0,0.0,0.0,0.0,0.0,0.0,0.0,0.0,0.0,0.0,0.0,0.0,0.0,0.0,0.0,0.0,0.0,0.0,0.0,0.0,0.0,0.0,0.0,0.0,0.0,0.0,0.0,0.0,0.0,0.0,0.0,0.0,0.0,0.0,0.0,0.0,0.0,0.0,0.0,0.0,0.0,0.0,0.0,0.0,0.0,0.0,0.0,0.0,0.0,0.0,0.0,0.0,-3.9254,-3.9665,-4.0334,-4.0473,-4.05,-4.0377,-3.9174,-3.8634,-3.852,-3.7739,0.0,0.0,0.0,0.0,0.0,0.0,0.0,0.0,0.0,0.0,0.0,0.0,0.0,0.0,0.0,0.0,0.0,0.0,0.0,0.0,0.0,0.0,-3.6697,-3.604,-3.6403,-3.6731,-3.6144,0.0,0.0,0.0,0.0,0.0,0.0,0.0,0.0,0.0,0.0,0.0,-3.8093,-3.9599,-4.0623,-4.0494,-4.0701,-4.081,-4.0673,-3.9937,-3.9137,-3.8308,-3.8263,-3.7591,0.0,0.0,0.0,0.0,0.0,0.0,0.0,0.0,0.0,0.0,0.0,0.0,0.0,0.0,0.0,0.0,0.0,0.0,0.0,0.0,0.0,0.0,0.0,0.0,0.0,0.0,0.0,0.0,0.0,0.0,0.0,0.0,-3.5354,-3.5451,0.0,0.0,0.0,0.0,0.0,0.0,0.0,0.0,0.0,0.0,0.0,0.0,0.0,-3.815,-3.823,-3.8958,-3.9479,-3.9692,-3.9713,-3.9842,-4.0058,-4.0196,-4.0243,-4.0242,-4.0161,0.0,-3.9257,-3.9125,0.0,0.0,0.0,0.0,0.0,0.0,0.0,0.0,0.0,0.0,0.0,0.0,0.0,0.0,0.0,0.0,0.0,0.0,0.0,0.0,0.0,0.0,-3.7602,-3.8137,-3.8335,-3.8212,-3.7492,-3.64,-3.5535,-3.5533,-3.5628,-3.571,0.0,0.0,0.0,0.0,0.0,0.0,-3.7264,-3.9195,-4.0345,-3.9638,-4.0262,-4.0432,-3.9737,-3.901,-3.819,-3.7346,-3.7342,-3.7256,-3.7025,-3.7961,0.0,0.0,0.0,0.0,0.0,0.0,0.0,0.0,0.0,0.0,0.0,0.0,0.0,0.0,0.0,0.0,0.0,0.0,0.0,0.0,0.0,0.0,0.0,0.0,0.0,0.0,0.0,0.0,0.0,-3.4681,-3.5343,-3.5953,-3.531,-3.5286,0.0,0.0,0.0,0.0,0.0,0.0,0.0,0.0,0.0,-3.8265,-3.8518,-3.8673,-3.8738,-3.9239,-3.9514,-3.9575,-3.9735,-3.9848,-3.9943,-4.0027,-4.0118,-4.0138,-4.0215,-4.0095,-3.9823,-3.949,-3.8932,-3.8205,0.0,0.0,0.0,0.0,-3.546,-3.5639,-3.4752,-3.4746,-3.5033,-3.4559,0.0,0.0,0.0,0.0,0.0,0.0,0.0,-3.5404,-3.6023,-3.6777,-3.7332,-3.7165,-3.7532,-3.7818,-3.7494,-3.6948,-3.6425,-3.6126,-3.5734,-3.5488,-3.5514,-3.5581,0.0,0.0,0.0,-3.7218,-3.6884,-3.815,-3.9123,-3.9215,-3.9641,-3.9986,-4.0164,-3.9016,-3.8132,-3.7797,-3.6914,-3.6414,-3.6405,-3.726,-3.7277,0.0,0.0,0.0,0.0,0.0,0.0,0.0,0.0,0.0,0.0,0.0,0.0,0.0,0.0,0.0,0.0,0.0,0.0,0.0,0.0,0.0,0.0,0.0,0.0,0.0,0.0,0.0,0.0,-3.494,-3.5377,-3.6322,-3.5901,-3.5893,0.0,0.0,0.0,0.0,0.0,0.0,-3.8085,-3.8016,-3.8312,-3.9059,-3.8979,-3.8964,-3.9017,-3.921,-3.9311,-3.9337,-3.9599,-3.9758,-3.9834,-3.9922,-3.9986,-4.0046,-3.9858,-3.9794,-3.9805,-3.9388,-3.9092,-3.8824,-3.8016,-3.7164,-3.6422,-3.6477,-3.6455,-3.6333,-3.5706,-3.5862,-3.6224,-3.5617,-3.5418,-3.5432,-3.5386,0.0,0.0,0.0,0.0,-3.4968,-3.5135,-3.5979,-3.6663,-3.6235,-3.6675,-3.7201,-3.7235,-3.709,-3.6885,-3.6737,-3.6073,-3.5537,-3.5626,-3.5482,0.0,-3.545,-3.6106,-3.6615,-3.6642,-3.754,-3.8397,-3.9018,-3.9357,-3.9757,-4.0272,-3.8981,-3.8094,-3.7945,-3.6556,-3.5757,-3.5757,-3.6393,-3.6439,-3.5788,0.0,0.0,0.0,0.0,0.0,0.0,0.0,0.0,0.0,0.0,0.0,0.0,0.0,0.0,0.0,0.0,0.0,0.0,0.0,0.0,0.0,0.0,0.0,0.0,0.0,0.0,0.0,0.0,0.0,-3.6666,-3.6737,0.0,0.0,0.0,0.0,-3.814,-3.8229,-3.8293,-3.8468,-3.8468,-3.8535,-3.8719,-3.8723,-3.875,-3.8803,-3.8946,-3.9087,-3.921,-3.9414,-3.9551,-3.9611,-3.9758,-3.9856,-3.9873,-3.9178,-3.8877,-3.8859,-3.8909,-3.8503,-3.7789,-3.6921,-3.6094,-3.5388,-3.5377,-3.5381,-3.5366,-3.5269,-3.5245,-3.5264,-3.5226,-3.5226,-3.519,-3.5058,-3.5034,0.0,0.0,-3.486,-3.4933,-3.5522,-3.5624,-3.577,-3.6566,-3.6851,-3.6962,-3.7073,-3.6501,-3.6228,-3.7089,-3.6661,-3.6179,-3.6243,0.0,-3.5316,-3.5319,-3.6061,-3.6587,-3.6523,-3.7953,-3.8953,-3.9001,-3.9753,-3.9996,-3.933,-3.8503,-3.7713,-3.7017,-3.6099,-3.5612,-3.5612,-3.5703,-3.5747,-3.5715,-3.5806,0.0,0.0,0.0,0.0,0.0,0.0,0.0,0.0,0.0,0.0,0.0,0.0,0.0,0.0,0.0,0.0,0.0,0.0,0.0,0.0,0.0,0.0,0.0,0.0,0.0,0.0,0.0,0.0,-3.6167,-3.6221,0.0,-3.756,-3.7039,-3.7016,-3.7912,-3.8189,-3.8323,-3.837,-3.837,-3.8401,-3.8496,-3.8515,-3.8544,-3.8603,-3.8833,-3.8964,-3.9007,-3.921,-3.9057,-3.8627,-3.8677,-3.8503,-3.815,-3.7845,-3.7756,-3.7793,-3.7207,-3.7223,-3.7574,-3.726,-3.6641,-3.5945,-3.5935,-3.5945,-3.587,-3.5323,-3.5469,-3.5816,-3.519,-3.4973,-3.4936,-3.4889,-3.4898,-3.4908,-3.4849,-3.5044,-3.5188,-3.4936,-3.5498,-3.6088,-3.5936,-3.6373,-3.6845,-3.6894,-3.6754,-3.6704,-3.7039,-3.6157,-3.5353,-3.5343,-3.5163,-3.5027,-3.4981,-3.5675,-3.6245,-3.6291,-3.7272,-3.8203,-3.8803,-3.9195,-3.9545,-3.9883,-3.9207,-3.846,-3.7726,-3.6839,-3.6131,-3.5618,-3.5581,-3.5615,-3.5694,-3.5722,-3.5784,0.0,0.0,0.0,0.0,0.0,0.0,0.0,0.0,0.0,0.0,0.0,0.0,0.0,0.0,0.0,0.0,0.0,0.0,0.0,0.0,0.0,0.0,0.0,0.0,0.0,-3.4932,-3.5824,-3.6106,-3.618,-3.6469,-3.7208,-3.6914,-3.697,-3.7614,-3.7915,-3.8088,-3.8174,-3.8206,-3.8254,-3.8302,-3.8047,-3.8111,-3.8444,-3.8358,-3.8482,-3.8755,-3.8711,-3.8441,-3.7968,-3.7714,-3.7411,-3.7084,-3.6721,-3.6655,-3.6723,-3.5813,-3.5861,-3.6527,-3.6557,-3.6293,-3.5865,-3.5893,-3.5883,-3.5789,-3.5227,-3.5381,-3.5723,-3.5087,-3.4811,-3.4732,-3.4711,-3.4689,-3.4666,-3.4666,-3.4813,-3.4878,-3.4375,-3.4901,-3.5431,-3.4937,-3.5345,-3.5844,-3.5932,-3.6005,-3.6084,-3.6166,-3.5695,-3.5263,-3.5183,-3.5028,-3.4869,-3.4831,-3.5529,-3.6211,-3.6557,-3.7334,-3.8178,-3.9092,-3.8973,-3.9223,-4.0176,-3.9059,-3.8224,-3.804,-3.7215,-3.6375,-3.561,-3.5779,-3.5823,-3.5676,-3.5632,-3.5674,-3.5753,0.0,0.0,0.0,0.0,0.0,0.0,0.0,0.0,0.0,0.0,0.0,0.0,0.0,0.0,0.0,0.0,0.0,0.0,0.0,0.0,0.0,0.0,0.0,-3.4224,-3.4859,-3.5619,-3.6467,-3.671,-3.6849,-3.6985,-3.7068,-3.7166,-3.7391,-3.7539,-3.7685,-3.7864,-3.8001,-3.8085,-3.8048,-3.7395,-3.7457,-3.8346,-3.7578,-3.7609,-3.8455,-3.7923,-3.7632,-3.7595,-3.6877,-3.6651,-3.6758,-3.5845,-3.5557,-3.5668,-3.4832,-3.4528,-3.4623,-3.4742,-3.487,-3.5001,-3.5066,-3.5057,-3.4983,-3.4917,-3.4888,-3.4877,-3.4798,-3.4697,-3.4572,-3.4517,-3.445,-3.4386,-3.4386,-3.4209,-3.4011,-3.4011,-3.3855,-3.3712,-3.3712,-3.3802,-3.3972,-3.4233,-3.4245,-3.4281,-3.4528,-3.5327,-3.5926,-3.5862,-3.5339,-3.4927,-3.4897,-3.5627,0.0,-3.7258,-3.8111,-3.8944,-3.9748,-3.9134,-3.9093,-4.0062,-3.798,-3.6993,-3.7886,-3.7118,-3.6291,-3.556,-3.6266,-3.6312,-3.5595,-3.5532,-3.5494,-3.5479,0.0,0.0,0.0,0.0,0.0,0.0,0.0,0.0,0.0,0.0,0.0,0.0,0.0,0.0,0.0,0.0,0.0,0.0,0.0,0.0,0.0,-3.2914,-3.356,-3.3707,-3.4751,-3.5676,-3.6114,-3.6212,-3.6521,-3.7303,-3.7062,-3.7156,-3.7775,-3.7598,-3.7485,-3.754,-3.7703,-3.7523,-3.6879,-3.7427,-3.7547,-3.7169,-3.7132,-3.7246,-3.7478,-3.6938,-3.6328,-3.5675,-3.5616,-3.5267,-3.4715,-3.45,-3.447,-3.4556,-3.435,-3.434,-3.4473,-3.4604,-3.4699,-3.478,-3.48,-3.479,-3.4769,-3.4718,-3.4668,-3.4666,-3.4539,-3.4484,-3.445,-3.4393,-3.4393,-3.4386,-3.4386,-3.434,-3.4293,-3.4293,-3.4136,-3.3985,-3.3985,-3.4023,-3.4074,-3.4136,-3.4221,-3.4281,-3.4305,-3.4682,-3.4953,-3.4899,-3.5305,-3.5407,-3.4781,-3.5421,-3.6056,-3.6268,-3.7071,-3.7724,-3.7994,-3.8334,-3.871,-3.9093,-3.9078,-3.8966,-3.8777,-3.7912,-3.7078,-3.6319,-3.5894,-3.558,-3.5314,-3.5445,-3.5482,0.0,0.0,0.0,0.0,0.0,0.0,0.0,0.0,0.0,0.0,0.0,0.0,0.0,0.0,0.0,0.0,0.0,0.0,0.0,0.0,0.0,0.0,-3.269,-3.3129,-3.316,-3.4565,-3.5644,-3.5739,-3.591,-3.6233,-3.681,-3.6703,-3.6939,-3.7763,-3.7409,-3.7344,-3.7757,-3.7626,-3.7165,-3.631,-3.6916,-3.7039,-3.6539,-3.6454,-3.657,-3.6928,-3.6021,-3.5327,-3.4819,-3.459,-3.4238,-3.3815,-3.3873,-3.3921,-3.4023,-3.4061,-3.4161,-3.4293,0.0,0.0,0.0,0.0,-3.4697,-3.4676,-3.4583,-3.4539,-3.4495,-3.4351,-3.4257,-3.4173,-3.4111,-3.4099,-3.4111,-3.4111,-3.4111,-3.4111,-3.4111,-3.4023,-3.3934,-3.3934,-3.3947,-3.3998,-3.4086,-3.4124,-3.4148,-3.4185,-3.4626,0.0,-3.4449,-3.4944,-3.5241,-3.472,-3.5359,-3.5907,-3.5934,-3.6699,-3.7257,-3.73,-3.7384,-3.7643,-3.8117,-3.8,0.0,0.0,0.0,-3.6885,-3.6493,-3.5721,0.0,0.0,0.0,-3.5295,-3.52,-3.5228,0.0,0.0,-3.4726,-3.4803,0.0,0.0,0.0,0.0,0.0,0.0,0.0,0.0,0.0,0.0,0.0,0.0,0.0,0.0,0.0,0.0,-3.2402,-3.2695,-3.2755,-3.4342,-3.5464,-3.5379,-3.5672,-3.5944,-3.6095,-3.629,-3.6749,-3.7638,-3.7273,-3.7391,-3.8295,-3.7727,0.0,0.0,0.0,-3.6345,-3.6238,-3.5738,-3.5823,-3.6482,-3.5169,-3.4516,-3.4486,-3.3775,-3.3534,-3.3675,-3.3671,-3.3753,-3.3855,-3.3868,-3.3959,-3.4099,-3.4351,-3.4539,-3.4645,-3.4645,-3.4645,-3.4623,-3.4495,0.0,0.0,-3.4185,-3.4011,-3.3815,-3.3748,-3.3712,-3.3684,-3.3671,-3.3698,-3.3739,-3.3726,-3.3712,-3.3694,-3.3726,-3.3766,-3.3829,-3.4023,-3.3985,-3.3947,-3.4124,-3.4785,-3.5076,-3.4303,-3.4525,-3.4779,-3.4685,-3.5362,-3.5854,-3.5813,-3.6578,-3.7079,-3.6985,-3.6371,0.0,-3.7154,-3.6006,-3.5553,-3.6283,-3.6236,-3.616,-3.6137,-3.5562,-3.5235,-3.5235,-3.513,-3.5009,-3.4889,-3.4898,-3.4831,-3.4708,-3.5016,-3.5096,0.0,0.0,0.0,0.0,0.0,0.0,0.0,0.0,0.0,0.0,0.0,0.0,0.0,0.0,0.0,-3.1215,-3.2061,-3.2669,-3.305,-3.4124,-3.4954,-3.5135,-3.5228,-3.5654,-3.6633,-3.6859,-3.7345,-3.8323,-3.8259,-3.8313,-3.8621,-3.8032,-3.7286,-3.6362,-3.6744,-3.6578,-3.5827,-3.5969,-3.5776,-3.5244,-3.4537,0.0,-3.3337,-3.328,-3.3298,-3.3364,-3.3477,-3.3591,-3.3657,-3.3712,-3.382,-3.3959,-3.4173,-3.4269,-3.4293,-3.4293,-3.4257,-3.4209,-3.4185,-3.4061,-3.3895,-3.3815,-3.3606,-3.3408,-3.3339,-3.3473,0.0,-3.3494,-3.3689,-3.3934,-3.3868,-3.3784,-3.3738,-3.3842,-3.3793,-3.3739,-3.3847,-3.3868,-3.3895,-3.3868,-3.4089,-3.4227,-3.4009,-3.481,-3.5266,-3.4555,-3.5191,-3.5502,-3.4802,-3.5476,-3.5738,-3.5045,-3.5439,-3.5836,-3.6085,-3.646,-3.6801,-3.7079,-3.6477,-3.5836,-3.5192,-3.4993,-3.4898,-3.4898,-3.487,-3.486,-3.4829,-3.487,-3.485,-3.4778,-3.4907,-3.4898,0.0,0.0,0.0,0.0,0.0,0.0,0.0,0.0,0.0,0.0,0.0,-2.8526,-2.9813,0.0,-3.0144,-3.1485,-3.1936,-3.2441,-3.327,-3.3966,-3.4448,-3.457,-3.4851,-3.5221,-3.583,-3.618,-3.686,-3.8052,-3.794,-3.8156,-3.8958,-3.8439,-3.753,-3.6293,-3.6977,-3.6748,-3.5456,-3.5426,-3.5224,-3.4853,-3.3925,-3.3321,-3.2995,-3.3101,-3.3162,-3.3214,-3.3378,-3.3466,-3.3509,-3.3619,-3.3684,-3.3766,-3.3855,-3.3959,-3.4049,-3.4049,-3.4011,-3.3947,-3.3908,-3.3793,-3.3629,-3.3484,-3.3294,-3.3083,-3.307,-3.3147,-3.3238,-3.3205,-3.3412,-3.3643,-3.3643,-3.3625,-3.3638,-3.3739,-3.3698,-3.3657,-3.3684,-3.3726,-3.3726,-3.3657,-3.3766,-3.382,-3.3712,-3.4271,-3.4637,-3.4308,-3.4629,-3.4741,-3.4349,-3.4684,-3.4789,-3.4396,-3.4731,-3.5028,-3.5097,-3.5506,-3.5777,-3.5833,-3.5493,-3.5122,-3.471,-3.4708,-3.4697,-3.4697,-3.4699,-3.4668,-3.4612,-3.4699,-3.4678,-3.455,-3.4655,-3.4666,0.0,0.0,0.0,0.0,0.0,0.0,0.0,-2.6739,-2.6701,-2.8179,-2.8587,-2.9166,-3.075,-3.0701,-3.0752,-3.1817,-3.1997,-3.2368,-3.3367,-3.3836,-3.4101,-3.4075,-3.4497,-3.4811,-3.4899,-3.5392,-3.6211,-3.7417,-3.7346,-3.7831,-3.9153,-3.8664,-3.7757,-3.652,-3.7154,-3.6843,-3.5359,-3.4963,-3.4737,-3.467,-3.3509,-3.2946,-3.2918,-3.2961,-3.3024,-3.307,-3.3259,-3.3334,-3.3349,-3.3433,-3.3506,-3.3534,-3.3534,-3.3629,-3.3793,-3.3834,-3.382,-3.3753,-3.3684,-3.353,-3.3342,-3.316,-3.2928,-3.2755,-3.2771,-3.2787,-3.2836,-3.29,-3.3075,-3.3247,-3.3304,-3.3345,-3.3404,-3.3473,-3.3488,-3.3491,-3.3488,-3.352,-3.352,-3.3466,-3.3563,-3.3619,-3.3509,-3.3633,-3.382,-3.4011,-3.4197,-3.4272,-3.4155,-3.4297,-3.4346,-3.424,-3.4221,-3.4257,-3.4351,-3.4363,-3.4393,-3.4386,-3.445,-3.4484,-3.4484,-3.4528,-3.455,-3.455,-3.455,-3.4506,-3.4386,-3.4506,-3.4484,-3.4316,-3.4397,-3.445,-2.5195,-2.491,-2.5051,-2.6529,-2.6125,-2.5613,0.0,-2.6795,-2.6898,-2.7868,-2.8729,-2.9459,-3.0029,-3.053,-3.1007,-3.1502,-3.2289,-3.291,-3.3064,-3.3672,-3.405,-3.3924,-3.4201,-3.4497,-3.4875,-3.5647,-3.6312,-3.6686,-3.7401,-3.8173,-3.9003,-3.8411,-3.7965,-3.7789,-3.7495,-3.6881,-3.5921,-3.5517,-3.4948,-3.4272,-3.3519,-3.295,-3.2557,-3.2622,-3.2753,-3.2932,-3.3011,-3.3073,-3.3117,-3.3026,-3.3122,-3.3322,-3.3268,-3.3283,-3.3396,-3.3563,-3.3633,-3.3601,-3.3549,-3.3235,-3.2876,-3.2781,-3.2505,-3.2197,-3.2266,-3.2404,-3.2557,-3.2622,-3.2786,-3.2963,-3.3044,-3.3011,-3.3011,-3.3132,-3.3119,-3.3088,-3.3147,-3.3259,-3.3322,-3.3322,-3.3364,-3.3422,-3.3408,-3.3481,-3.3605,-3.3788,-3.4539,-3.48,-3.4026,-3.4597,-3.4795,-3.4039,-3.3947,-3.4023,-3.4209,-3.4281,-3.4328,-3.4404,-3.4416,-3.4416,-3.4416,-3.4427,-3.4409,-3.4409,-3.4409,-3.4397,-3.4386,-3.4427,-3.4416,-3.4393,-3.4281,-3.4269,-2.4217,-2.4075,-2.4297,-2.5604,-2.5154,-2.4718,-2.6067,-2.6147,-2.6241,-2.7301,-2.8011,-2.8639,-2.9441,-3.0098,-3.0681,-3.127,-3.2003,-3.2748,-3.3524,-3.3831,-3.405,-3.4226,-3.4226,-3.4349,-3.4739,-3.5307,-3.588,-3.6339,-3.6848,-3.7448,-3.8076,-3.7945,-3.7652,-3.7316,-3.6729,-3.609,-3.5365,-3.449,-3.3927,-3.3672,-3.3107,-3.2721,-3.2489,-3.264,-3.2755,-3.2854,-3.287,-3.2932,-3.3026,-3.2848,-3.2898,-3.306,-3.2914,-3.288,-3.2993,-3.3404,-3.3448,-3.3313,-3.3364,-3.307,-3.2669,-3.2622,-3.2353,-3.2108,-3.2126,-3.2284,-3.2474,-3.2523,-3.2607,-3.269,-3.2854,-3.2818,-3.2816,-3.2993,-3.3057,-3.3073,-3.3086,-3.3088,-3.3075,-3.3122,-3.3122,-3.3104,-3.3104,-3.3196,-3.3283,-3.3324,-3.3836,-3.4087,-3.3781,-3.4009,-3.4128,-3.3884,-3.3908,-3.3998,-3.4074,-3.4111,-3.4136,-3.4173,-3.4173,-3.4173,-3.4173,-3.4173,-3.4173,-3.4173,-3.4173,-3.4173,-3.4173,-3.4173,-3.4173,-3.4142,-3.363,-3.3383,-2.3412,-2.3341,-2.3533,-2.4681,-2.4437,-2.4192,-2.5272,-2.5369,-2.5439,-2.6294,-2.6969,-2.77,-2.8626,-2.9565,-3.0493,-3.1389,-3.2137,-3.3045,-3.4314,-3.4291,-3.4239,-3.4568,-3.4443,-3.4412,-3.4676,-3.497,-3.5321,-3.5806,-3.6078,-3.6491,-3.7108,-3.728,-3.7141,-3.6696,-3.6254,-3.5598,-3.4738,-3.3748,-3.3225,-3.3186,-3.2652,-3.2421,-3.2473,-3.2608,-3.2709,-3.2707,-3.2658,-3.2724,-3.2852,-3.2639,-3.2605,-3.2721,-3.2571,-3.2555,-3.2636,-3.3101,-3.3162,-3.3073,-3.3152,-3.2884,-3.2489,-3.2439,-3.2197,-3.1929,-3.2001,-3.2108,-3.2267,-3.2388,-3.2439,-3.2507,-3.2674,-3.269,-3.2687,-3.285,-3.2898,-3.2945,-3.2961,-3.2866,-3.282,-3.2916,-3.2884,-3.2818,-3.29,-3.3011,-3.3039,-3.2928,-3.3178,-3.339,-3.3444,-3.3462,-3.352,-3.3671,-3.3842,-3.3947,-3.3947,-3.3985,-3.3998,-3.3998,-3.3998,-3.3998,-3.3998,-3.3998,-3.3998,-3.3998,-3.3998,-3.3887,-3.3666,-3.3666,-3.3555,-3.329,-3.2687,-3.2379,-2.2761,-2.2733,-2.2701,-2.3833,-2.4173,-2.4232,-2.4319,-2.455,-2.4697,-2.4606,-2.5717,-2.6871,-2.7382,-2.8965,-3.0611,-3.1871,-3.3075,-3.4218,-3.5296,-3.5026,-3.4718,-3.486,-3.4876,-3.4836,-3.4708,-3.4715,-3.478,-3.4932,-3.5185,-3.5619,-3.6202,-3.6372,-3.6444,-3.641,-3.6528,-3.5851,-3.4336,-3.3879,-3.3431,-3.2905,-3.2257,-3.209,-3.2388,-3.2423,-3.2457,-3.2507,-3.2301,-3.2318,-3.2489,-3.2232,-3.2197,-3.2318,-3.2318,-3.2318,-3.2335,-3.2538,-3.2753,-3.2916,-3.2916,-3.2588,-3.2214,-3.2214,-3.191,-3.1538,-3.1744,-3.1818,-3.1873,-3.2126,-3.2301,-3.2422,-3.249,-3.2524,-3.2523,-3.2606,-3.2556,-3.254,-3.2606,-3.2574,-3.2574,-3.2756,-3.2706,-3.2672,-3.2868,-3.2963,-3.2948,-3.2734,-3.2882,-3.3042,-3.3101,-3.3271,-3.3411,-3.3408,-3.3643,-3.382,-3.382,-3.3921,-3.3998,-3.3998,-3.3998,-3.3998,-3.3998,-3.3998,-3.3998,-3.3998,-3.3998,-3.361,-3.2835,-3.2835,-3.2404,-3.1581,-3.1489,-3.1371,-2.1574,-2.1657,-2.1887,-2.2487,-2.2591,-2.2641,-2.3013,-2.3386,-2.3758,-2.4113,-2.4637,-2.5501,-2.6987,-2.824,-2.9636,-3.154,-3.2732,-3.386,-3.5068,-3.5154,-3.5259,-3.5723,-3.5293,-3.5053,-3.5275,-3.5267,-3.5128,-3.4908,-3.4899,-3.5022,-3.5319,-3.5383,-3.5478,-3.5659,-3.5295,-3.471,-3.3905,-3.3405,-3.2961,-3.2563,-3.2336,-3.2353,-3.2523,-3.2353,-3.2319,-3.2422,-3.2371,-3.2301,-3.2214,-3.2037,-3.1984,-3.202,-3.1894,-3.1912,-3.2038,-3.2109,-3.2214,-3.2387,-3.2574,-3.2336,-3.1929,-3.182,-3.1578,-3.1308,-3.1385,-3.1521,-3.1691,-3.1874,-3.2001,-3.2091,-3.2214,-3.2232,-3.2249,-3.2318,-3.2422,-3.2524,-3.2523,-3.2404,-3.237,-3.2623,-3.2489,-3.2404,-3.2655,-3.2721,-3.2705,-3.2573,-3.2787,-3.2963,-3.3026,-3.3259,-3.3393,-3.3393,-3.3563,-3.3684,-3.3726,-3.3739,-3.378,-3.3855,-3.3793,-3.3753,-3.3807,-3.3766,-3.3766,-3.3807,-3.3235,-3.2845,-3.2608,-3.2019,-3.1591,-3.129,-3.0684,-3.0327,-2.0597,-2.0854,-2.1317,-2.1381,-2.1488,-2.1625,-2.185,-2.2247,-2.2653,-2.2982,-2.3606,-2.4548,-2.5997,-2.7493,-2.9146,-3.1262,-3.2706,-3.4062,-3.5457,-3.5655,-3.5783,-3.6201,-3.5806,-3.546,-3.5347,-3.55,-3.5393,-3.487,-3.4756,-3.4763,-3.4899,-3.4899,-3.497,-3.5152,-3.4783,-3.4251,-3.3552,-3.3302,-3.2857,-3.2214,-3.2214,-3.2249,-3.2318,-3.2144,-3.2108,-3.2179,-3.2072,-3.1965,-3.1857,-3.171,-3.1654,-3.1635,-3.1504,-3.154,-3.1654,-3.1654,-3.1691,-3.1838,-3.2214,-3.2073,-3.1671,-3.1579,-3.1349,-3.1092,-3.1131,-3.1271,-3.1483,-3.1596,-3.171,-3.182,-3.1965,-3.1983,-3.2019,-3.2126,-3.2232,-3.2318,-3.237,-3.2266,-3.2249,-3.2506,-3.2404,-3.2336,-3.2573,-3.2556,-3.2523,-3.254,-3.264,-3.2756,-3.2804,-3.3008,-3.318,-3.3229,-3.3375,-3.352,-3.3591,-3.3577,-3.3619,-3.3726,-3.3661,-3.3633,-3.3657,-3.3615,-3.3633,-3.3657,-3.283,-3.2278,-3.2025,-3.1183,-3.0609,-3.0279,-2.9706,-2.9368,-1.9952,-2.041,-2.0923,-2.0577,-2.0869,-2.1157,-2.0872,-2.1214,-2.1521,-2.1322,-2.2639,-2.3965,-2.4458,-2.6735,-2.9181,-3.1156,-3.301,-3.4757,-3.643,-3.6422,-3.6281,-3.6411,-3.6424,-3.6026,-3.5032,-3.5428,-3.5448,-3.4734,-3.4667,-3.4739,-3.4875,-3.4899,-3.4899,-3.4923,-3.5041,-3.4549,-3.3394,-3.3577,-3.3073,-3.1894,-3.1894,-3.1875,-3.1818,-3.18,-3.18,-3.18,-3.15,-3.144,-3.1515,-3.1339,-3.1241,-3.1241,-3.1207,-3.119,-3.119,-3.119,-3.119,-3.1288,-3.1856,-3.1801,-3.1447,-3.1466,-3.1193,-3.0892,-3.0955,-3.1055,-3.121,-3.1274,-3.1428,-3.1617,-3.1746,-3.18,-3.1837,-3.2037,-3.1984,-3.1948,-3.2144,-3.2126,-3.2161,-3.2422,-3.244,-3.244,-3.2556,-3.2456,-3.244,-3.2556,-3.2473,-3.2405,-3.249,-3.2621,-3.2768,-3.29,-3.3122,-3.3307,-3.3396,-3.3452,-3.3506,-3.3591,-3.3591,-3.3591,-3.3591,-3.3536,-3.3518,-3.3536,-3.268,-3.1878,-3.1117,-3.031,-2.9489,-2.8682,-2.8625,-2.851,-2.0003,-1.999,-2.0123,-2.05,-2.0437,-2.043,-2.086,-2.1058,-2.1092,-2.0974,-2.1878,-2.293,-2.3641,-2.6041,-2.865,-3.087,-3.2767,-3.452,-3.612,-3.6615,-3.6869,-3.7105,-3.678,-3.6329,-3.5765,-3.5407,-3.4975,-3.4439,-3.4399,-3.4448,-3.4594,-3.4787,-3.4947,-3.5041,-3.5268,-3.5026,-3.4283,-3.3491,-3.2657,-3.1819,-3.1819,-3.1893,-3.2019,-3.1873,-3.1819,-3.1892,-3.2219,-3.2244,-3.208,-3.2002,-3.1921,-3.1827,-3.1271,-3.1112,-3.119,-3.119,-3.119,-3.121,-3.1271,-3.1134,-3.0898,-3.0962,-3.076,-3.0526,-3.0609,-3.0794,-3.0992,-3.1055,-3.1215,-3.1408,-3.1538,-3.1596,-3.169,-3.1838,-3.1875,-3.1912,-3.1966,-3.1966,-3.202,-3.2232,-3.2336,-3.2371,-3.2318,-3.2266,-3.2249,-3.2232,-3.2109,-3.2161,-3.2522,-3.269,-3.2804,-3.29,-3.3013,-3.3137,-3.3307,-3.3241,-3.3271,-3.3437,-3.3316,-3.3283,-3.3452,-3.277,-3.2444,-3.2545,-3.1084,-3.0243,-3.0079,-2.9235,-2.8696,-2.8471,-2.8406,-2.83,-2.0041,-2.0014,-2.0103,-2.0082,-1.996,-2.0049,-2.0866,-2.0991,-2.1128,-2.1878,-2.268,-2.3467,-2.4202,-2.6581,-2.9093,-3.102,-3.2982,-3.4773,-3.6229,-3.6739,-3.7121,-3.7419,-3.7218,-3.6743,-3.5918,-3.5524,-3.4999,-3.4182,-3.4226,-3.4349,-3.4497,-3.4691,-3.4851,-3.4923,-3.5245,-3.5043,-3.4286,-3.3044,-3.2214,-3.18,-3.1707,-3.1726,-3.1837,-3.1671,-3.1598,-3.1653,-3.2173,-3.231,-3.216,-3.1985,-3.1901,-3.1842,-3.1425,-3.1119,-3.0945,-3.1264,-3.116,-3.0895,-3.0875,-3.0692,-3.0506,-3.0617,-3.051,-3.0316,-3.0422,-3.0589,-3.0733,-3.0834,-3.0998,-3.1196,-3.1327,-3.1426,-3.1504,-3.1651,-3.1635,-3.1656,-3.1711,-3.1674,-3.1711,-3.1983,-3.2108,-3.2179,-3.2161,-3.2108,-3.209,-3.209,-3.1984,-3.202,-3.2335,-3.2473,-3.254,-3.259,-3.2771,-3.295,-3.3026,-3.3057,-3.3119,-3.3256,-3.3165,-3.3003,-3.2784,-3.2274,-3.1877,-3.1588,-3.0291,-2.9616,-2.9652,-2.8797,-2.8411,-2.8411,-2.8327,-2.8232,-2.027,-2.036,-2.0591,-1.9921,-1.9845,-2.0154,-2.1139,-2.125,-2.1594,-2.3183,-2.4098,-2.4774,-2.5218,-2.7448,-2.9714,-3.1157,-3.3081,-3.4905,-3.6307,-3.6738,-3.706,-3.7421,-3.7583,-3.7115,-3.5772,-3.5712,-3.5284,-3.4037,-3.4151,-3.4349,-3.4497,-3.4667,-3.478,-3.4804,-3.5075,-3.4778,-3.387,-3.2567,-3.1866,-3.1763,-3.1576,-3.1498,-3.1517,-3.137,-3.1383,-3.1499,-3.1978,-3.2169,-3.2165,-3.1993,-3.1802,-3.162,-3.1598,-3.1151,-3.0572,-3.1217,-3.1052,-3.0526,-3.063,-3.0464,-3.0231,-3.0422,-3.0338,-3.0205,-3.0295,-3.0401,-3.0506,-3.063,-3.0794,-3.0955,-3.1092,-3.1173,-3.1254,-3.1385,-3.1329,-3.1276,-3.1408,-3.1353,-3.1389,-3.1671,-3.1802,-3.1876,-3.2001,-3.193,-3.1912,-3.2019,-3.193,-3.1912,-3.2037,-3.2126,-3.2179,-3.2197,-3.2541,-3.274,-3.2687,-3.2834,-3.2979,-3.3073,-3.295,-3.2606,-3.1999,-3.1768,-3.1322,-3.065,-2.9826,-2.9399,-2.9399,-2.8708,-2.8353,-2.8384,-2.83,-2.8237,-2.1381,-2.1317,-2.1479,-2.1679,-2.1507,-2.1568,-2.2468,-2.2859,-2.3032,-2.3088,-2.4255,-2.5131,-2.4795,-2.6706,-2.8728,-2.9988,-3.1718,-3.3476,-3.5233,-3.6122,-3.6754,-3.7194,-3.7435,-3.7073,-3.5867,-3.5684,-3.5257,-3.4298,-3.4176,-3.425,-3.4497,-3.4851,-3.5111,-3.5337,-3.4997,-3.4427,-3.3669,-3.2866,-3.2154,-3.1555,-3.1517,-3.1519,-3.1578,-3.15,-3.1803,-3.2397,-3.2923,-3.3077,-3.3021,-3.3423,-3.2868,-3.1765,-3.1641,-3.1151,-3.0522,-3.0638,-3.0605,-3.0506,-3.0526,-3.0401,-3.021,-3.0359,-3.0231,-3.0038,-3.006,-3.0146,-3.0274,-3.0401,-3.048,-3.0547,-3.0733,-3.0794,-3.0818,-3.0902,-3.0998,-3.1055,-3.1075,-3.1196,-3.1315,-3.1389,-3.1542,-3.1635,-3.1615,-3.1635,-3.1654,-3.1673,-3.1673,-3.1691,-3.1819,-3.2018,-3.2144,-3.2197,-3.2353,-3.2491,-3.2523,-3.2606,-3.2705,-3.2854,-3.2186,-3.1805,-3.1841,-3.0487,-2.9755,-2.9725,-2.8885,-2.8433,-2.8433,-2.8253,-2.8182,-2.8223,-2.8112,-2.8056,-2.1785,-2.1882,-2.2072,-2.2134,-2.2328,-2.2727,-2.3663,-2.3738,-2.3897,-2.4977,-2.5497,-2.5869,-2.6167,-2.7971,-2.9632,-3.0362,-3.2087,-3.3832,-3.5246,-3.598,-3.6548,-3.7117,-3.7449,-3.7086,-3.5752,-3.5751,-3.5364,-3.4289,-3.4275,-3.4374,-3.4497,-3.4828,-3.5128,-3.54,-3.4879,-3.4457,-3.4164,-3.3523,-3.2983,-3.2642,-3.2619,-3.2434,-3.2122,-3.2059,-3.1964,-3.1905,-3.2489,-3.2664,-3.2576,-3.269,-3.2375,-3.1786,-3.1641,-3.1151,-3.0588,-3.1285,-3.1297,-3.1011,-3.1347,-3.1041,-3.0554,-3.0653,-3.0298,-2.9858,-2.9973,-2.9973,-2.9989,-3.0248,-3.0321,-3.0384,-3.0568,-3.0692,-3.0814,-3.0838,-3.0855,-3.0814,-3.0712,-3.0855,-3.0998,-3.0998,-3.11,-3.1162,-3.114,-3.1235,-3.1312,-3.1428,-3.1485,-3.1614,-3.1781,-3.18,-3.1837,-3.1982,-3.2249,-3.2388,-3.2353,-3.2154,-3.2056,-3.2122,-3.1345,-3.0754,-3.0508,-2.9721,-2.9134,-2.878,-2.8364,-2.814,-2.814,-2.8085,-2.8085,-2.814,-2.8056,-2.794,-2.2168,-2.2478,-2.2775,-2.2584,-2.3051,-2.3857,-2.4891,-2.4892,-2.522,-2.7148,-2.7208,-2.7111,-2.7823,-2.9166,-3.0325,-3.0754,-3.2268,-3.3889,-3.5295,-3.5786,-3.6293,-3.7145,-3.7277,-3.6854,-3.5653,-3.5591,-3.5214,-3.4147,-3.4325,-3.4521,-3.457,-3.4811,-3.5041,-3.5291,-3.4773,-3.4561,-3.4708,-3.4031,-3.3704,-3.3704,-3.3656,-3.3349,-3.283,-3.2767,-3.2465,-3.1955,-3.2255,-3.24,-3.2424,-3.217,-3.2022,-3.195,-3.199,-3.1528,-3.1016,-3.2072,-3.2093,-3.1654,-3.2076,-3.1616,-3.0856,-3.0819,-3.0283,-2.9697,-2.9858,-2.977,-2.972,-3.0011,-3.0108,-3.0177,-3.0305,-3.0506,-3.0651,-3.0708,-3.0609,-3.0468,-3.038,-3.0464,-3.0568,-3.0589,-3.0675,-3.0703,-3.0703,-3.0818,-3.0958,-3.1159,-3.1274,-3.1443,-3.1651,-3.1519,-3.15,-3.1671,-3.2018,-3.2179,-3.2055,-3.1668,-3.141,-3.1376,-3.0525,-2.9774,-2.9275,-2.9083,-2.871,-2.8102,-2.8085,-2.8085,-2.8085,-2.8014,-2.8014,-2.8085,-2.7982,-2.785,-2.3055,-2.3369,-2.386,-2.3921,-2.4373,-2.5127,-2.626,-2.7205,-2.8027,-2.8561,-2.9076,-2.9323,-2.8873,-2.8834,-2.918,-3.0118,-3.0796,-3.2038,-3.4463,-3.509,-3.5813,-3.7296,-3.666,-3.594,-3.561,-3.4915,-3.4324,-3.3963,-3.4275,-3.4594,-3.4851,-3.4994,-3.5152,-3.5308,-3.4773,-3.4561,-3.4708,-3.4031,-3.3704,-3.3704,-3.3683,-3.3649,-3.3598,-3.3581,-3.3894,-3.4347,-3.3596,-3.3511,-3.3896,-3.3688,-3.3142,-3.2494,-3.3027,-3.2784,-3.2161,-3.2269,-3.2269,-3.2174,-3.2008,-3.1408,-3.0695,-3.0573,-3.0062,-2.9518,-2.9541,-2.9541,-2.9541,-2.9697,-2.9659,-2.9614,-2.981,-2.9842,-2.9858,-3.0038,-2.9979,-2.9941,-3.0167,-3.0146,-3.0103,-3.021,-3.0338,-3.0422,-3.0422,-3.0506,-3.0613,-3.0825,-3.0865,-3.0962,-3.123,-3.123,-3.1269,-3.1351,-3.1542,-3.1635,-3.156,-3.1307,-3.1112,-3.1042,-2.9776,-2.9057,-2.9119,-2.8423,-2.8017,-2.8014,-2.8014,-2.8014,-2.8014,-2.7946,-2.7929,-2.7996,-2.7821,-2.7716,-2.3932,-2.4052,-2.4277,-2.4405,-2.4985,-2.577,-2.682,-2.7516,-2.8179,-2.9004,-2.9221,-2.9313,-2.9425,-2.953,-2.9966,-3.1052,-3.1756,-3.2776,-3.4524,-3.4928,-3.5489,-3.6589,-3.6346,-3.5962,-3.5689,-3.5452,-3.5053,-3.4431,-3.4594,-3.4828,-3.5018,-3.5065,-3.5198,-3.5423,-3.5211,-3.5149,-3.5243,-3.4982,-3.4834,-3.4834,-3.4834,-3.464,-3.4295,-3.4232,-3.4041,-3.3765,-3.3252,-3.2861,-3.2608,-3.2815,-3.2471,-3.1912,-3.2489,-3.2564,-3.2344,-3.2716,-3.2856,-3.2874,-3.2934,-3.2167,-3.1086,-3.0974,-3.0117,-2.919,-2.9428,-2.9405,-2.9298,-2.9518,-2.9547,-2.9531,-2.971,-2.9754,-2.9782,-2.987,-2.9832,-2.9853,-3.0038,-3.0038,-3.0038,-3.0167,-3.0231,-3.0253,-3.0167,-3.0333,-3.0485,-3.0597,-3.0723,-3.0902,-3.1171,-3.1092,-3.1052,-3.1098,-3.137,-3.1598,-3.1728,-3.0872,-3.0363,-3.0462,-2.902,-2.8252,-2.8373,-2.8062,-2.7903,-2.7946,-2.7946,-2.7946,-2.7946,-2.7824,-2.7824,-2.7929,-2.7736,-2.7615,-2.4935,-2.4697,-2.4681,-2.5332,-2.5757,-2.633,-2.7599,-2.8098,-2.8563,-2.9583,-2.9609,-2.9529,-2.98,-2.9984,-3.0494,-3.1797,-3.2452,-3.3291,-3.4659,-3.4978,-3.5251,-3.5763,-3.5757,-3.5596,-3.5256,-3.5278,-3.5108,-3.4579,-3.4715,-3.4899,-3.5018,-3.5128,-3.5268,-3.5492,-3.5469,-3.5498,-3.56,-3.56,-3.56,-3.56,-3.56,-3.5374,-3.4948,-3.4861,-3.4491,-3.3881,-3.3422,-3.3001,-3.2636,-3.2646,-3.2489,-3.236,-3.2691,-3.2863,-3.2952,-3.3315,-3.3437,-3.3404,-3.3544,-3.2692,-3.1559,-3.1212,-3.0207,-2.9203,-2.9339,-2.9252,-2.9137,-2.9321,-2.9396,-2.9464,-2.957,-2.9687,-2.9782,-2.9782,-2.9782,-2.9804,-2.993,-2.9946,-2.9968,-3.0103,-3.0124,-3.0098,-3.0017,-3.0141,-3.0253,-3.03,-3.0472,-3.0679,-3.0875,-3.0834,-3.073,-3.0633,-3.0835,-3.1067,-3.1292,-3.0128,-2.943,-2.9529,-2.8349,-2.7689,-2.7815,-2.7815,-2.7813,-2.7842,-2.7842,-2.7842,-2.7842,-2.7719,-2.7721,-2.7815,-2.765,-2.7509,-2.6066,-2.5464,-2.5206,-2.6949,-2.6932,-2.6969,-2.8858,-2.9497,-2.9858,-3.0546,-3.0675,-3.0531,-3.0081,-2.9892,-3.0352,-3.2013,-3.2298,-3.2952,-3.4748,-3.5124,-3.5128,-3.493,-3.4742,-3.4478,-3.414,-3.389,-3.3838,-3.4101,-3.4472,-3.4763,-3.4899,-3.5152,-3.5377,-3.5492,-3.536,-3.5389,-3.56,-3.56,-3.56,-3.56,-3.56,-3.56,-3.5583,-3.5583,-3.5583,-3.5509,-3.4583,-3.4526,-3.4981,-3.386,-3.3809,-3.444,-3.4168,-3.4143,-3.4243,-3.4134,-3.4025,-3.3848,-3.345,-3.2772,-3.195,-3.1097,-3.0345,-2.9692,-2.9249,-2.9098,-2.9098,-2.9098,-2.919,-2.9305,-2.9305,-2.9502,-2.9697,-2.9697,-2.9697,-2.9742,-2.9874,-2.9808,-2.9748,-2.9951,-2.9946,-2.9924,-2.9995,-2.9946,-2.988,-2.9832,-3.0044,-3.021,-3.021,-3.038,-3.029,-2.9777,-2.9713,-2.9772,-2.9905,-2.8989,-2.8353,-2.8236,-2.7773,-2.7542,-2.7602,-2.7602,-2.763,-2.7701,-2.7701,-2.7701,-2.7701,-2.763,-2.7602,-2.7602,-2.7542,-2.7386,-2.7489,-2.6887,-2.6686,-2.7213,-2.7183,-2.7493,-2.9251,-2.9822,-3.014,-3.0721,-3.0753,-3.063,-3.0401,-2.9935,-3.0218,-3.2136,-3.2122,-3.2528,-3.4333,-3.4553,-3.4542,-3.4607,-3.4643,-3.4638,-3.452,-3.4429,-3.4349,-3.425,-3.478,-3.5128,-3.5175,-3.5245,-3.5383,-3.5571,-3.5475,-3.5498,-3.56,-3.56,-3.56,-3.56,-3.56,-3.56,-3.56,-3.5458,-3.5389,-3.535,-3.4792,-3.4409,-3.4217,-3.4175,-3.4053,-3.3904,-3.4154,-3.425,-3.4275,-3.4151,-3.4025,-3.3848,-3.3555,-3.2902,-3.2157,-3.1638,-3.1015,-3.0473,-3.0403,-2.9801,-2.9075,-2.899,-2.8959,-2.8967,-2.8967,-2.9014,-2.913,-2.9366,-2.9366,-2.9412,-2.9814,-2.982,-2.9804,-2.9973,-3.0076,-3.0098,-3.0017,-2.9892,-2.981,-2.9793,-2.9957,-2.9902,-2.9517,-2.9622,-2.9563,-2.9078,-2.8526,-2.8555,-2.9425,-2.875,-2.8302,-2.84,-2.7836,-2.7511,-2.7526,-2.7526,-2.7554,-2.763,-2.763,-2.7659,-2.7701,-2.7672,-2.763,-2.7526,-2.7465,-2.7279,-2.8852,-2.7941,-2.7575,-2.7651,-2.7659,-2.8009,-2.9399,-3.0001,-3.0421,-3.1055,-3.1001,-3.0861,-3.0868,-3.0522,-3.0672,-3.2044,-3.2181,-3.2504,-3.3608,-3.4056,-3.4315,-3.4462,-3.4255,-3.4255,-3.4662,-3.4561,-3.4497,-3.4521,-3.4994,-3.5291,-3.5291,-3.5383,-3.5481,-3.56,-3.5498,-3.5475,-3.56,-3.56,-3.56,-3.56,-3.56,-3.56,-3.56,-3.5452,-3.5377,-3.5354,-3.4994,-3.4634,0.0,-3.451,-3.4379,-3.4112,-3.4292,-3.4374,-3.4349,-3.4226,-3.4025,-3.3771,-3.3529,-3.3024,-3.2447,-3.1888,-3.1342,-3.0882,-3.0898,-3.0239,-2.9352,-2.8967,-2.8834,-2.8794,-2.8794,-2.8826,-2.8881,-2.9082,-2.9121,-2.919,-2.9525,-2.9627,-2.9738,-2.9864,-2.9989,-3.0076,-2.9995,-2.9886,-2.9738,-2.9694,-2.9621,-2.9447,-2.8995,-2.9004,-2.8813,-2.8271,-2.7788,-2.7714,-2.8235,-2.7947,-2.7807,-2.7938,-2.7601,-2.7436,-2.7467,-2.7467,-2.7481,-2.7557,-2.7587,-2.7615,-2.7657,-2.7657,-2.7585,-2.7467,-2.7373,-2.7136,0.0,-2.8767,-2.8061,-2.8289,-2.8348,-2.8579,-2.9486,-3.0128,0.0,-3.149,-3.1319,-3.1125,-3.1327,-3.1361,-3.146,-3.1775,-3.2322,-3.2718,-3.2789,-3.3673,-3.4366,-3.4407,-3.3642,-3.3503,-3.4497,-3.4325,-3.4325,-3.4828,-3.5111,-3.5268,-3.5291,-3.5458,-3.5577,-3.56,-3.5389,-3.5406,-3.56,-3.56,-3.56,-3.56,-3.56,-3.56,-3.5577,-3.552,-3.5469,-3.5469,-3.5222,-3.5128,-3.5088,-3.4859,-3.4835,-3.4923,-3.4643,-3.4521,-3.4497,-3.4374,-3.405,-3.3684,-3.3424,-3.315,-3.2761,-3.1931,-3.1441,-3.1089,-3.089,-3.0467,-2.9876,-2.9084,-2.8872,-2.8833,-2.8786,-2.8834,-2.8858,-2.8881,-2.8967,-2.9075,-2.9114,-2.9305,-2.9531,-2.9659,-2.9786,-2.988,-2.9968,-2.9814,-2.963,-2.9496,-2.9183,-2.8874,-2.8676,-2.8476,-2.813,-2.7476,-2.7399,-2.7187,-2.6706,-2.686,-2.6991,-2.6991,-2.7186,-2.733,-2.7376,-2.7392,-2.7405,-2.7481,-2.7557,-2.7602,-2.7602,-2.7587,-2.7529,-2.7376,-2.7263,-2.6972,-3.1042,0.0,-2.9813,-2.9041,-2.9248,-2.9854,0.0,-3.0858,-3.0915,-3.1058,-3.0858,-3.0518,-3.0117,-3.0406,-3.0815,-3.1165,-3.1588,-3.2327,-3.359,-3.3687,-3.3604,-3.3533,-3.3298,-3.3288,-3.3591,-3.4101,-3.4423,-3.4448,-3.4787,-3.5041,-3.5152,-3.5182,-3.5297,-3.5537,-3.5383,-3.5406,-3.56,-3.56,-3.56,-3.56,-3.56,-3.5571,-3.5537,-3.5383,-3.5291,-3.5198,-3.5245,-3.5274,-3.5333,-3.5373,-3.535,-3.5264,-3.5048,-3.4828,-3.4643,-3.4497,-3.4201,-3.3822,-3.3668,-3.3346,-3.2973,-3.2517,-3.2415,-3.2304,-3.1506,-3.0949,-3.0482,-2.9762,-2.9403,-2.9157,-2.8752,-2.8573,-2.8549,-2.8708,-2.8756,-2.885,-2.9068,-2.9236,-2.9396,-2.9531,-2.9576,-2.9621,-2.9748,-2.957,-2.9373,-2.935,-2.9365,-2.9021,-2.8063,-2.8041,-2.7924,-2.7441,-2.6857,-2.6691,-2.7182,-2.708,-2.6991,-2.6991,-2.7186,-2.7315,-2.7313,-2.7313,-2.7362,-2.7423,-2.7498,-2.7526,-2.7526,-2.7465,-2.7388,-2.7246,-2.7104,-2.6809,-3.1319,-3.0838,-3.049,-2.9217,-2.9422,-3.0025,-3.0409,-3.0624,-3.0797,-3.1061,-3.0821,-3.0481,-3.029,-3.0659,-3.0985,-3.0871,-3.1502,-3.2408,-3.356,-3.3497,-3.334,-3.334,-3.3288,-3.333,-3.3539,-3.3975,-3.4275,-3.4374,-3.4643,-3.4875,-3.4994,-3.5065,-3.5198,-3.54,-3.5337,-3.5406,-3.56,-3.56,-3.56,-3.56,-3.56,-3.5571,-3.5492,-3.5377,-3.5222,-3.5111,-3.5274,-3.5367,-3.535,-3.5464,-3.5441,-3.5327,-3.5111,-3.497,-3.4875,-3.4667,-3.4374,-3.405,-3.3771,-3.3414,-3.2978,-3.28,-3.2854,-3.2846,-3.2172,-3.1854,-3.1529,-3.038,-2.9794,-2.9419,-2.9049,-2.8724,-2.8517,-2.8549,-2.8668,-2.874,-2.8763,-2.8959,-2.9152,-2.9305,-2.9373,-2.9464,-2.9675,-2.948,-2.9328,-2.9389,-2.9214,-2.8758,-2.7867,-2.7963,-2.777,-2.6937,-2.677,-2.6735,-2.6839,-2.6773,-2.6742,-2.6809,-2.7041,-2.7186,-2.7217,-2.7266,-2.733,-2.7392,-2.7467,-2.7496,-2.7496,-2.7434,-2.7324,-2.7197,-2.7055,-2.6691,-3.1442,-3.1029,-3.0646,-2.9333,-2.9496,-2.992,-2.99,-3.0181,-3.0572,-3.105,-3.0771,-3.0497,-3.0736,-3.1079,-3.1204,-3.082,-3.1798,-3.2736,-3.3103,-3.324,-3.3293,-3.333,-3.3319,-3.3424,-3.3787,-3.3873,-3.4075,-3.4448,-3.4594,-3.4732,-3.4875,-3.4994,-3.5111,-3.5268,-3.5268,-3.5367,-3.5577,-3.5577,-3.5577,-3.5577,-3.5577,-3.5526,-3.5446,-3.5314,-3.5198,-3.5088,-3.5327,-3.5396,-3.536,-3.547,-3.5464,-3.536,-3.5135,-3.5065,-3.5065,-3.4835,-3.457,-3.4275,-3.3848,-3.3361,-3.2897,-3.2924,-3.3005,-3.3043,-3.2703,-3.2746,-3.2636,-3.1111,-3.0202,-2.9685,-2.9543,-2.9027,-2.8565,-2.8484,-2.8604,-2.8676,-2.8484,-2.8653,-2.8897,-2.9006,-2.9167,-2.935,-2.9592,-2.948,-2.9366,-2.9473,-2.9034,-2.8474,-2.7863,-2.7983,-2.7649,-2.6464,-2.6763,-2.6862,-2.6364,-2.6309,-2.6383,-2.6537,-2.6809,-2.7024,-2.7103,-2.7217,-2.7297,-2.736,-2.739,-2.7404,-2.7404,-2.7341,-2.723,-2.7117,-2.7006,-2.6606,-3.2056,-3.1541,-3.1033,-3.0206,-3.0482,-3.0926,-3.0827,-3.073,-3.0531,-3.0123,-2.9837,-2.9675,-2.9666,-2.9922,-3.0322,-3.0871,-3.2154,-3.2966,-3.2586,-3.2985,-3.3134,-3.2617,-3.2985,-3.3319,-3.3372,-3.3797,-3.4151,-3.4325,-3.4448,-3.4594,-3.4715,-3.4875,-3.4994,-3.5128,-3.5111,-3.5245,-3.5514,-3.5514,-3.5514,-3.5514,-3.5514,-3.5383,-3.5175,-3.5152,-3.5065,-3.4947,-3.5396,-3.5577,-3.5577,-3.6002,-3.5997,-3.5728,-3.5684,-3.5435,-3.5105,-3.5041,-3.4804,-3.4399,-3.3873,-3.3361,-3.2924,-3.3032,-3.3085,-3.3043,-3.2703,-3.2812,-3.2915,-3.2139,-3.1148,-3.0212,-2.9973,-2.9173,-2.8468,-2.87,-2.8604,-2.8468,-2.8549,-2.8597,-2.8653,-2.8748,-2.8959,-2.9167,-2.9328,-2.9412,-2.9473,-2.9496,-2.9316,-2.8824,-2.7826,-2.7643,-2.7437,-2.701,-2.6342,-2.6204,-2.6822,-2.6315,-2.6063,-2.6241,-2.6674,-2.6975,-2.7085,-2.7119,-2.7135,-2.7151,-2.7039,-2.6975,-2.6975,-2.6858,-2.6791,-2.6775,-2.6775,-2.6452,-3.2214,-3.1657,-3.1172,-3.0642,-3.0647,-3.0753,-3.0733,-3.063,-3.0443,-3.0087,-2.9826,-2.964,-2.9617,-2.988,-3.0438,-3.1345,-3.2466,-3.3156,-3.2823,-3.3134,-3.3266,-3.2839,-3.316,-3.3398,-3.3398,-3.3745,-3.405,-3.4176,-3.4325,-3.4448,-3.457,-3.4715,-3.4851,-3.4994,-3.5065,-3.5205,-3.5458,-3.5526,-3.5571,-3.5656,-3.5745,-3.5661,-3.5481,-3.5481,-3.5367,-3.5195,-3.5644,-3.5734,-3.5622,-3.5827,-3.5827,-3.5684,-3.5396,-3.5344,-3.5344,-3.5031,-3.465,-3.4226,-3.3822,-3.345,-3.3123,-3.3282,-3.3282,-3.315,-3.2854,-3.287,-3.2924,-3.2523,-3.155,-3.0566,-3.0297,-2.9403,-2.8652,-2.8771,-2.8716,-2.8692,-2.8708,-2.874,-2.8756,-2.8803,-2.892,-2.9059,-2.9259,-2.9282,-2.9321,-2.9473,-2.9389,-2.8908,-2.7837,-2.7983,-2.7762,-2.659,-2.6365,-2.6327,-2.6405,-2.6096,-2.6063,-2.6452,-2.6657,-2.6925,-2.7201,-2.7104,-2.7054,-2.7103,-2.7038,-2.6975,-2.6893,-2.6758,-2.6691,-2.6691,-2.6657,-2.6382,-3.2266,-3.1712,-3.131,-3.1103,-3.0821,-3.058,-3.0525,-3.044,-3.031,-3.0113,-2.9701,-2.9464,-2.9775,-3.0156,-3.0678,-3.1427,-3.2307,-3.2877,-3.2854,-3.3107,-3.3261,-3.3181,-3.335,-3.3514,-3.3673,-3.3832,-3.3949,-3.405,-3.4226,-3.4399,-3.4497,-3.4667,-3.4804,-3.4947,-3.5041,-3.5205,-3.5418,-3.5723,-3.5836,-3.5795,-3.5888,-3.5968,-3.6044,-3.6044,-3.5915,-3.5739,-3.61,-3.6041,-3.5711,-3.5739,-3.5734,-3.5667,-3.5258,-3.5258,-3.5441,-3.4991,-3.4513,-3.4075,-3.3899,-3.3607,-3.3335,-3.345,-3.3398,-3.3256,-3.2978,-3.2897,-3.2843,-3.2621,-3.1792,-3.0933,-3.0613,-2.976,-2.8958,-2.8897,-2.8881,-2.8865,-2.8818,-2.8834,-2.885,-2.8803,-2.8873,-2.9013,-2.9175,-2.919,-2.9252,-2.9473,-2.9389,-2.8908,-2.7817,-2.8128,-2.7806,-2.6038,-2.626,-2.6338,-2.5946,-2.5952,-2.6152,-2.6607,-2.6657,-2.6808,-2.7122,-2.6992,-2.6942,-2.6973,-2.694,-2.6858,-2.6759,-2.6657,-2.6607,-2.6657,-2.6623,-2.6346,-3.2369,-3.1894,-3.1617,-3.1774,-3.1494,-3.1055,-3.0684,-3.0405,-3.0132,-2.9814,-2.8879,-2.8486,-2.9664,-3.0418,-3.0788,-3.0538,-3.1146,-3.1724,-3.2038,-3.2425,-3.2834,-3.3316,-3.3349,-3.3561,-3.4166,-3.4026,-3.3899,-3.3899,-3.4275,-3.4497,-3.4497,-3.4756,-3.4947,-3.5065,-3.5088,-3.5222,-3.5492,-3.623,-3.6344,-3.5795,-3.5817,-3.6146,-3.6728,-3.6728,-3.6728,-3.6711,-3.6928,-3.663,-3.5997,-3.6174,-3.6131,-3.5954,-3.5795,-3.5481,-3.5111,-3.4947,-3.4546,-3.4126,-3.4226,-3.3848,-3.3335,-3.345,-3.3398,-3.3256,-3.2978,-3.2897,-3.2843,-3.2523,-3.1983,-3.1461,-3.107,-3.0251,-2.9461,-2.914,-2.8944,-2.8818,-2.8794,-2.8794,-2.8747,-2.8468,-2.8787,-2.9052,-2.8943,-2.9236,-2.9473,-2.9496,-2.9389,-2.8863,-2.7671,-2.7501,-2.7053,-2.5845,-2.5707,-2.574,-2.5897,-2.6078,-2.624,-2.6401,-2.6538,-2.6623,-2.6657,-2.664,-2.6623,-2.664,-2.6452,-2.6348,-2.6348,-2.633,-2.6399,-2.652,-2.6555,-2.6346,-3.242,-3.1841,-3.1526,-3.1783,-3.1737,-3.1565,-3.1355,-3.0751,-3.0165,-2.9779,-2.8952,-2.8479,-2.9046,-2.9898,-3.0495,-3.0353,-3.0996,-3.1581,-3.1768,-3.212,-3.2659,-3.3493,-3.3341,-3.3471,-3.4218,-3.4058,-3.3899,-3.3899,-3.4201,-3.4448,-3.4635,-3.4804,-3.4994,-3.5222,-3.5344,-3.5458,-3.5571,-3.6111,-3.6266,-3.6053,-3.6994,-3.7358,-3.7249,-3.7711,-3.7872,-3.7786,-3.7877,-3.7723,-3.7399,-3.6886,-3.6676,-3.662,-3.5943,-3.5373,-3.4947,-3.4715,-3.4374,-3.3975,-3.3949,-3.3642,-3.3335,-3.345,-3.3398,-3.3256,-3.2978,-3.2897,-3.2749,-3.1971,-3.1944,-3.1983,-3.1398,-3.0519,-2.9757,-2.9626,-2.9273,-2.899,-2.899,-2.8928,-2.8811,-2.8565,-2.8771,-2.8967,-2.8904,-2.9098,-2.9275,-2.935,-2.9259,-2.8751,-2.7603,-2.7427,-2.6944,-2.5764,-2.5731,-2.5826,-2.5954,-2.6114,-2.6221,-2.6276,-2.6365,-2.6469,-2.6589,-2.6434,-2.6381,-2.6469,-2.6365,-2.6295,-2.6295,-2.6295,-2.633,-2.6382,-2.6502,-2.6259,-3.2503,-3.2123,-3.2002,-3.2072,-3.228,-3.2342,-3.1797,-3.1052,-3.024,-2.9475,-2.8863,-2.8418,-2.8308,-2.9262,-3.0031,-2.9954,-3.0641,-3.1292,-3.1437,-3.1752,-3.2427,-3.366,-3.3301,-3.336,-3.4408,-3.408,-3.3848,-3.3899,-3.4201,-3.4472,-3.4756,-3.5066,-3.539,-3.5713,-3.5811,-3.6027,-3.6378,-3.641,-3.6461,-3.6565,-3.8053,-3.8425,-3.7875,-3.8594,-3.8917,-3.8809,-3.8809,-3.8643,-3.8328,-3.7689,-3.7462,-3.7365,-3.6327,-3.5679,-3.5245,-3.4701,-3.4275,-3.3949,-3.3745,-3.3581,-3.3424,-3.3424,-3.3398,-3.3293,-3.3043,-3.2951,-3.2815,-3.2075,-3.2153,-3.2299,-3.1651,-3.0784,-3.0101,-3.0003,-2.9462,-2.9021,-2.9029,-2.8897,-2.8756,-2.8573,-2.8716,-2.8865,-2.8865,-2.9006,-2.9121,-2.9213,-2.9167,-2.8756,-2.7763,-2.7492,-2.6944,-2.5724,-2.5749,-2.5862,-2.5901,-2.6043,-2.6132,-2.6202,-2.624,-2.6329,-2.6469,-2.631,-2.624,-2.6347,-2.6294,-2.6277,-2.6277,-2.6277,-2.6294,-2.6295,-2.6434,-2.6276,-3.2632,-3.2827,-3.3192,-3.2799,-3.3197,-3.3327,-3.1893,-3.1187,-3.0365,-2.8804,-2.8394,-2.8085,-2.7514,-2.8596,-2.9463,-2.9153,-2.9929,-3.0673,-3.097,-3.1292,-3.2134,-3.3788,-3.3157,-3.32,-3.4769,-3.418,-3.3761,-3.3915,-3.4275,-3.4635,-3.4916,-3.5611,-3.6204,-3.6609,-3.6484,-3.6956,-3.8101,-3.7313,-3.7035,-3.7337,-3.8809,-3.9181,-3.8634,-3.937,-3.9715,-3.9715,-3.9715,-3.9301,-3.8612,-3.8617,-3.8476,-3.8173,-3.7043,-3.6434,-3.6046,-3.4906,-3.4325,-3.405,-3.3797,-3.3694,-3.3658,-3.3372,-3.3398,-3.345,-3.3176,-3.3096,-3.3069,-3.2951,-3.2757,-3.2451,-3.1769,-3.1073,-3.0509,-3.0177,-2.9446,-2.8826,-2.8897,-2.8748,-2.8565,-2.8436,-2.8628,-2.8794,-2.8794,-2.8967,-2.9098,-2.9098,-2.9098,-2.8869,-2.8275,-2.7737,-2.6944,-2.5724,-2.5661,-2.5701,-2.5701,-2.5809,-2.5989,-2.6202,-2.6202,-2.6202,-2.6202,-2.6202,-2.6202,-2.6202,-2.6202,-2.6202,-2.6202,-2.6202,-2.6222,-2.6295,-2.6434,-2.6381,-3.275,-3.2739,-3.2865,-3.2502,-3.2448,-3.2187,-3.095,-3.0585,-2.9894,-2.7746,-2.7307,-2.721,-2.6826,-2.7511,-2.8239,-2.8551,-2.9247,-3.003,-3.0748,-3.1058,-3.2003,-3.4099,-3.3213,-3.3255,-3.5332,-3.499,-3.4707,-3.4938,-3.5166,-3.5621,-3.6398,-3.624,-3.6517,-3.7343,-3.7469,-3.7658,-3.7953,-3.7846,-3.7849,-3.7934,-3.9003,-3.9181,-3.8629,-3.9963,-4.0549,-4.0549,-4.0549,-4.0429,-4.0135,-3.9065,-3.815,-3.7354,-3.6293,-3.5639,-3.5205,-3.4603,-3.4201,-3.3924,-3.3745,-3.3694,-3.3668,-3.3503,-3.3477,-3.3477,-3.3309,-3.3229,-3.3093,-3.2515,-3.2254,-3.2013,-3.1239,-3.0478,-2.9918,-2.9955,-2.9399,-2.8873,-2.8881,-2.8834,-2.8684,-2.8565,-2.8787,-2.8975,-2.8889,-2.9075,-2.9213,-2.9098,-2.9098,-2.8756,-2.7769,-2.7128,-2.6502,-2.574,-2.5682,-2.5738,-2.5844,-2.5881,-2.5989,-2.6202,-2.6115,-2.6117,-2.6259,-2.6239,-2.6202,-2.6202,-2.6115,-2.6115,-2.6202,-2.6202,-2.6203,-2.6222,-2.6329,-2.61,-3.2923,-3.2827,-3.2882,-3.2669,-3.2441,-3.1906,-3.0536,-2.9645,-2.8736,-2.7317,-2.7037,-2.6904,-2.6563,-2.7043,-2.7522,-2.774,-2.8568,-2.9446,-3.0147,-3.0734,-3.1886,-3.3952,-3.3446,-3.3743,-3.5828,-3.546,-3.5185,-3.5468,-3.5653,-3.6075,-3.6787,-3.7036,-3.7475,-3.819,-3.827,-3.8519,-3.8938,-3.8468,-3.8413,-3.8797,-3.933,-3.9405,-3.9077,-4.0342,-4.0912,-4.0912,-4.0912,-4.0912,-4.0825,-3.9841,-3.9072,-3.8413,-3.704,-3.6269,-3.5799,-3.4759,-3.425,-3.4025,-3.3771,-3.372,-3.3761,-3.3555,-3.3529,-3.3555,-3.3424,-3.344,-3.3345,-3.2751,-3.2326,-3.1907,-3.108,-3.047,-3.0071,-2.9995,-2.9375,-2.8826,-2.9013,-2.8928,-2.8779,-2.8724,-2.8873,-2.9013,-2.899,-2.9167,-2.9282,-2.919,-2.9121,-2.8699,-2.754,-2.7084,-2.6562,-2.5737,-2.5661,-2.5698,-2.5809,-2.5809,-2.5917,-2.6168,-2.6115,-2.617,-2.6365,-2.6293,-2.624,-2.624,-2.617,-2.617,-2.624,-2.6203,-2.6202,-2.6202,-2.6277,-2.6048,-3.31,-3.3053,-3.3187,-3.3081,-3.2822,-3.2136,-3.0449,-2.8633,-2.7321,-2.7361,-2.7233,-2.7,-2.6582,-2.6949,-2.7213,-2.6947,-2.8005,-2.9005,-2.9359,-3.0367,-3.1738,-3.3608,-3.3742,-3.4407,-3.6261,-3.5765,-3.547,-3.5791,-3.6009,-3.6296,-3.6664,-3.7928,-3.8749,-3.9065,-3.8983,-3.9411,-4.0468,-3.9102,-3.8877,-3.9778,-3.9778,-3.9802,-3.9819,-4.0584,-4.0912,-4.0912,-4.0912,-4.0912,-4.0871,-4.0683,-4.0618,-4.0415,-3.8537,-3.7634,-3.7183,-3.525,-3.4423,-3.425,-3.3873,-3.3822,-3.3873,-3.3633,-3.3633,-3.371,-3.3581,-3.3633,-3.3668,-3.3398,-3.2776,-3.2007,-3.1231,-3.0886,-3.0657,-3.021,-2.9405,-2.8818,-2.9206,-2.9021,-2.8826,-2.8897,-2.8904,-2.8967,-2.9098,-2.9213,-2.9282,-2.9305,-2.9213,-2.8754,-2.7678,-2.7475,-2.6976,-2.584,-2.5648,-2.5621,-2.5701,-2.5719,-2.5846,-2.6168,-2.6185,-2.6274,-2.6468,-2.6365,-2.6313,-2.6313,-2.6313,-2.6313,-2.6313,-2.6274,-2.6238,-2.6238,-2.6259,-2.6154,-3.2996,-3.3406,-3.3815,-3.2872,-3.2114,-3.1306,-3.0125,-2.8936,-2.7904,-2.7346,-2.6841,-2.6547,-2.6706,-2.6539,-2.6655,-2.7517,-2.8282,-2.8965,-2.96,-3.03,-3.153,-3.3698,-3.3683,-3.4347,-3.6642,-3.6486,-3.6587,-3.7423,-3.7194,-3.7553,-3.877,-3.8774,-3.9059,-3.9699,-3.9893,-4.0102,-4.0337,-4.0112,-4.0172,-4.0487,-4.0487,-4.0535,-4.0653,-4.0825,-4.0912,-4.0912,-4.0912,-4.0912,-4.086,-4.0192,-3.9881,-3.965,-3.7848,-3.6928,-3.6496,-3.5262,-3.4594,-3.43,-3.4201,-3.4126,-3.4025,-3.3873,-3.3822,-3.3848,-3.3822,-3.3822,-3.3822,-3.3658,-3.2782,-3.1774,-3.1279,-3.0739,-3.0306,-3.0212,-2.9862,-2.9475,-2.9201,-2.9006,-2.8873,-2.8881,-2.899,-2.9098,-2.9236,-2.919,-2.9167,-2.9266,-2.9366,-2.9198,-2.8592,-2.7895,-2.7239,-2.6604,-2.6024,-2.5682,-2.5701,-2.5791,-2.5952,-2.6202,-2.6097,-2.6134,-2.633,-2.6313,-2.6347,-2.6451,-2.6347,-2.6347,-2.6468,-2.6433,-2.645,-2.6415,-2.617,-2.5919,-3.3325,-3.352,-3.3743,-3.3056,-3.2479,-3.1736,-3.0503,-2.943,-2.8463,-2.774,-2.7078,-2.6613,-2.6562,-2.6441,-2.6527,-2.7088,-2.7906,-2.8649,-2.9203,-3.0048,-3.1365,-3.3427,-3.3886,-3.4862,-3.6982,-3.7079,-3.7214,-3.7804,-3.784,-3.8203,-3.9022,-3.9227,-3.9573,-4.0087,-4.023,-4.0355,-4.0502,-4.0576,-4.0655,-4.0793,-4.0793,-4.084,-4.0912,-4.0912,-4.0912,-4.0912,-4.0912,-4.0912,-4.0877,-4.0393,-4.0167,-3.9941,-3.819,-3.753,-3.7347,-3.5621,-3.497,-3.4847,-3.4364,-3.4126,-3.4,-3.3924,-3.3899,-3.3899,-3.3899,-3.3899,-3.3873,-3.3838,-3.3051,-3.2192,-3.1987,-3.1618,-3.1164,-3.0545,-3.0132,-2.9869,-2.9745,-2.9335,-2.9013,-2.9082,-2.9098,-2.9167,-2.9457,-2.9509,-2.9515,-2.9538,-2.9554,-2.9396,-2.8865,-2.8121,-2.745,-2.6967,-2.6253,-2.583,-2.583,-2.5901,-2.6025,-2.6185,-2.6115,-2.6151,-2.6258,-2.6241,-2.6311,-2.6416,-2.6347,-2.633,-2.6416,-2.638,-2.631,-2.6205,-2.6026,-2.577,-3.3542,-3.3458,-3.3546,-3.3475,-3.3178,-3.2507,-3.1157,-2.9906,-2.8863,-2.8277,-2.7514,-2.6873,-2.6521,-2.6497,-2.6548,-2.6624,-2.7478,-2.829,-2.8738,-2.9884,-3.1315,-3.3044,-3.4059,-3.5274,-3.6969,-3.7183,-3.7351,-3.7654,-3.811,-3.8487,-3.8773,-3.9488,-4.0011,-4.0288,-4.033,-4.0453,-4.0697,-4.0721,-4.0793,-4.0912,-4.0912,-4.0912,-4.0912,-4.0912,-4.0912,-4.0912,-4.0912,-4.0912,-4.0888,-4.0793,-4.0721,-4.0583,-3.9042,-3.8605,-3.8546,-3.6222,-3.5479,-3.548,-3.4494,-3.4101,-3.4,-3.3949,-3.3949,-3.3975,-3.3949,-3.3924,-3.3924,-3.3924,-3.3375,-3.2753,-3.2729,-3.2629,-3.221,-3.1007,-3.049,-3.0258,-3.0251,-2.9704,-2.9213,-2.9305,-2.9282,-2.9305,-2.9614,-2.988,-2.9995,-2.9853,-2.9798,-2.9604,-2.9134,-2.8444,-2.7809,-2.7279,-2.6615,-2.6158,-2.6008,-2.6028,-2.6099,-2.6185,-2.6202,-2.6202,-2.6202,-2.6202,-2.6239,-2.6294,-2.6295,-2.6313,-2.633,-2.624,-2.6097,-2.5952,-2.586,-2.5656,-3.2939,-3.3281,-3.3828,-3.4088,-3.3444,-3.2513,-3.1672,-3.0065,-2.8768,-2.8779,-2.779,-2.6945,-2.7052,-2.668,-2.6593,-2.739,-2.7769,-2.8247,-2.9084,-3.0279,-3.1546,-3.2871,-3.3774,-3.475,-3.5985,-3.6151,-3.6583,-3.7519,-3.7995,-3.86,-3.9493,-3.9756,-4.0011,-4.0288,-4.0412,-4.0534,-4.0697,-4.0817,-4.0888,-4.0912,-4.0912,-4.0912,-4.0912,-4.0912,-4.0912,-4.0912,-4.0912,-4.0912,-4.0912,-4.0888,-4.0871,-4.0778,-3.9782,-3.9225,-3.8777,-3.703,-3.6128,-3.5646,-3.4759,-3.4423,-3.4374,-3.4151,-3.4151,-3.4226,-3.4101,-3.4075,-3.4075,-3.4075,-3.359,-3.3032,-3.2901,-3.2737,-3.2372,-3.15,-3.1325,-3.1055,-2.9888,-2.9627,-2.9608,-2.9496,-2.9598,-2.9677,-2.9554,-2.9886,-3.0124,-2.9995,-3.006,-3.0135,-3.018,-2.9461,-2.8702,-2.8102,-2.7488,-2.6829,-2.6076,-2.6154,-2.6241,-2.6203,-2.6202,-2.6202,-2.6202,-2.6202,-2.6203,-2.6203,-2.6277,-2.6365,-2.6468,-2.6293,-2.6188,-2.6152,-2.568,-2.5435,-3.2895,-3.346,-3.4211,-3.4005,-3.3192,-3.2314,-3.1916,-3.0448,-2.9151,-2.9188,-2.8551,-2.784,-2.724,-2.6832,-2.6757,-2.7344,-2.7615,-2.8177,-2.9317,-3.0109,-3.1083,-3.2554,-3.3592,-3.4507,-3.5256,-3.6334,-3.707,-3.7311,-3.809,-3.8828,-3.9547,-3.972,-3.9935,-4.0305,-4.0436,-4.0558,-4.0697,-4.084,-4.0912,-4.0912,-4.0912,-4.0912,-4.0912,-4.0912,-4.0912,-4.0912,-4.0912,-4.0912,-4.0912,-4.0912,-4.0912,-4.0825,-3.9979,-3.9621,-3.9377,-3.7385,-3.6857,-3.691,-3.5283,-3.4955,-3.5144,-3.4603,-3.4423,-3.4399,-3.4349,-3.4226,-3.4126,-3.4201,-3.3965,-3.3647,-3.3697,-3.3557,-3.3117,-3.1927,-3.1734,-3.1412,-2.9936,-2.9653,-2.9653,-2.9518,-2.971,-2.9892,-2.9798,-3.0124,-3.0316,-3.0146,-3.0248,-3.0312,-3.0274,-2.9696,-2.9032,-2.8381,-2.7748,-2.702,-2.6181,-2.6187,-2.6222,-2.6203,-2.6202,-2.6202,-2.6202,-2.6202,-2.6202,-2.6202,-2.6222,-2.6258,-2.6328,-2.6133,-2.5972,-2.586,-2.5508,-2.5278,-3.2921,-3.3589,-3.4394,-3.3579,-3.2705,-3.2022,-3.1952,-3.0592,-2.9407,-2.9626,-2.94,-2.8802,-2.7499,-2.6968,-2.6793,-2.7005,-2.7294,-2.7878,-2.9077,-2.9865,-3.0807,-3.2094,-3.3215,-3.4066,-3.4485,-3.5928,-3.6832,-3.686,-3.7888,-3.8815,-3.9458,-3.9642,-3.9884,-4.0305,-4.0436,-4.0558,-4.0697,-4.084,-4.0912,-4.0912,-4.0912,-4.0912,-4.0912,-4.0912,-4.0912,-4.0912,-4.0912,-4.0912,-4.0912,-4.0912,-4.0912,-4.0843,-4.0233,-4.0069,-3.9909,-3.7818,-3.7573,-3.7992,-3.5734,-3.5387,-3.5819,-3.4994,-3.4667,-3.4594,-3.4546,-3.4399,-3.4226,-3.4374,-3.4275,-3.4201,-3.4349,-3.425,-3.3768,-3.245,-3.2078,-3.1614,-3.0099,-2.977,-2.9726,-2.963,-2.988,-3.0081,-3.006,-3.0338,-3.0485,-3.0295,-3.0338,-3.0359,-3.0274,-2.9922,-2.9393,-2.874,-2.8071,-2.7358,-2.6551,-2.6321,-2.6221,-2.6202,-2.6202,-2.6202,-2.6202,-2.6168,-2.6168,-2.6202,-2.6168,-2.6168,-2.6202,-2.5952,-2.5749,-2.56,-2.5352,-2.5143,-3.2826,-3.3521,-3.4264,-3.2834,-3.2053,-3.1653,-3.1776,-3.0322,-2.9231,-3.0232,-3.0177,-2.9518,-2.8039,-2.7096,-2.6554,-2.6609,-2.6754,-2.7189,-2.8129,-2.9809,-3.1111,-3.1498,-3.2452,-3.3174,-3.346,-3.4069,-3.495,-3.6082,-3.7199,-3.8331,-3.9425,-3.9642,-3.9884,-4.0305,-4.0436,-4.0558,-4.0697,-4.084,-4.0912,-4.0912,-4.0912,-4.0912,-4.0912,-4.0912,-4.0912,-4.0912,-4.0912,-4.0912,-4.0912,-4.0912,-4.0912,-4.0912,-4.086,-4.0597,-4.0118,-3.8588,-3.8256,-3.8238,-3.5902,-3.5642,-3.6198,-3.5203,-3.4899,-3.4851,-3.4732,-3.4594,-3.4497,-3.4643,-3.4497,-3.4349,-3.4618,-3.4399,-3.3922,-3.3194,-3.2537,-3.172,-3.0282,-2.9973,-2.9951,-2.988,-3.0141,-3.0354,-3.021,-3.0464,-3.0651,-3.0506,-3.0422,-3.0422,-3.0485,-3.041,-3.0092,-2.9413,-2.8799,-2.8123,-2.7317,-2.6658,-2.6259,-2.6203,-2.6202,-2.6202,-2.6202,-2.6079,-2.6063,-2.6202,-2.6079,-2.6063,-2.6202,-2.5807,-2.5605,-2.5586,-2.5201,-2.5005,-3.2634,-3.3465,-3.4483,-3.2662,-3.1809,-3.1456,-3.1682,-3.0604,-2.9678,-3.0154,-3.0272,-2.9873,-2.8456,-2.7677,-2.7089,-2.65,-2.6553,-2.713,-2.8446,-2.9209,-3.0092,-3.1234,-3.2646,-3.3483,-3.3416,-3.4994,-3.6132,-3.6394,-3.7399,-3.8389,-3.9276,-3.9468,-3.9772,-4.0163,-4.0313,-4.0478,-4.0697,-4.084,-4.0912,-4.0912,-4.0912,-4.0912,-4.0912,-4.1,-4.1023,-4.1023,-4.1023,-4.0982,-4.0912,-4.0912,-4.0912,-4.0912,-4.0912,-4.0655,-4.0118,-3.8734,-3.8434,-3.8413,-3.6185,-3.5923,-3.6404,-3.5566,-3.5175,-3.5018,-3.497,-3.4804,-3.4643,-3.4691,-3.457,-3.4472,-3.4643,-3.4521,-3.4056,-3.2921,-3.2112,-3.1318,-3.0337,-3.0124,-3.0098,-2.9989,-3.0076,-3.0189,-3.0359,-3.0506,-3.0572,-3.063,-3.0671,-3.0671,-3.0526,-3.0547,-3.0286,-2.9499,-2.9178,-2.8549,-2.7398,-2.6996,-2.6647,-2.6219,-2.6202,-2.6202,-2.6202,-2.615,-2.615,-2.6202,-2.615,-2.615,-2.6202,-2.5787,-2.5602,-2.5586,-2.5201,-2.4946,-3.3293,-3.3988,-3.4775,-3.2762,-3.1911,-3.1527,-3.1497,-3.051,-2.9666,-2.9936,-3.0171,-2.9921,-2.8607,-2.8395,-2.7899,-2.6399,-2.6308,-2.6848,-2.8169,-2.8611,-2.938,-3.0936,-3.2346,-3.3276,-3.3521,-3.5236,-3.6395,-3.6591,-3.7403,-3.8279,-3.9098,-3.9362,-3.9694,-4.0163,-4.0288,-4.0502,-4.0769,-4.1106,-4.1153,-4.0912,-4.1194,-4.1177,-4.0912,-4.1076,-4.1099,-4.1047,-4.107,-4.1047,-4.0959,-4.0935,-4.0912,-4.0912,-4.0864,-4.0631,-4.0209,-3.9047,-3.8856,-3.8966,-3.6983,-3.6757,-3.7208,-3.6438,-3.5854,-3.5471,-3.5471,-3.5146,-3.478,-3.478,-3.4667,-3.4594,-3.4667,-3.4594,-3.4136,-3.2681,-3.1984,-3.1385,-3.0359,-3.0189,-3.021,-3.0038,-3.006,-3.0189,-3.0422,-3.0526,-3.0609,-3.0733,-3.077,-3.0712,-3.0572,-3.0589,-3.0385,-2.9847,-2.9501,-2.8973,-2.8075,-2.7488,-2.6991,-2.6601,-2.6352,-2.6202,-2.6202,-2.6168,-2.615,-2.6202,-2.6168,-2.6132,-2.6096,-2.5749,-2.5602,-2.5586,-2.5143,-2.4862,0.0,0.0,0.0,-3.3147,-3.2319,-3.1866,-3.1256,-3.0056,-2.9208,-2.9713,-2.9935,-2.9688,-2.8536,-2.912,-2.8933,-2.6352,-2.6,-2.6343,-2.7114,-2.8075,-2.9217,-3.0616,-3.1511,-3.2526,-3.3774,-3.4532,-3.5423,-3.6543,-3.718,-3.7943,-3.8963,-3.9325,-3.9746,-4.028,-4.0436,-4.0648,-4.0905,-4.1654,-4.1654,-4.0981,-4.1801,-4.175,-4.0929,-4.1111,-4.1071,-4.0912,-4.1047,-4.1093,-4.1093,-4.0959,-4.0912,-4.0888,-4.0769,-4.0607,-4.04,-3.9521,-3.9585,-3.9851,-3.825,-3.8184,-3.8622,-3.7794,-3.6918,-3.6204,-3.6204,-3.5616,-3.4923,-3.4899,-3.4804,-3.4691,-3.4691,-3.4594,-3.4112,-3.2604,-3.2347,-3.2007,-3.038,-3.0243,-3.0349,-3.006,-3.021,-3.0417,-3.0417,-3.0568,-3.0733,-3.0892,-3.0692,-3.0568,-3.0692,-3.0526,-3.0422,-3.0489,-2.986,-2.9413,-2.9397,-2.8125,-2.7315,-2.7298,-2.6601,-2.6202,-2.6203,-2.6079,-2.6063,-2.6203,-2.6063,-2.5972,-2.5897,-2.5715,-2.5586,-2.5567,-2.5045,-2.4681,-3.4845,0.0,0.0,0.0,0.0,0.0,-3.1848,-3.1072,-3.0398,-3.0196,-3.0647,-3.0605,-2.9019,-2.9115,-2.8951,-2.7519,-2.7324,-2.7465,-2.7686,-2.8154,-2.8969,-3.0289,-3.1782,-3.297,-3.3547,-3.5186,-3.6453,-3.713,-3.7639,-3.8244,-3.8952,-3.9494,-3.9849,-4.0003,-4.0337,-4.0791,-4.1395,-4.1798,-4.2189,-4.2551,-4.2303,-4.2026,-4.1688,-4.1354,-4.1134,-4.1047,-4.1129,-4.118,-4.1157,-4.1076,-4.1047,-4.1047,-4.0888,-4.0769,-4.0538,-3.9562,-3.9189,-3.9025,-3.8033,-3.7831,-3.7958,-3.7609,-3.704,-3.6451,-3.6252,-3.5735,-3.5152,-3.4947,-3.4875,-3.4828,-3.4732,-3.4667,-3.4436,-3.3561,-3.3393,-3.3003,-3.1484,-3.1279,-3.1215,-3.05,-3.038,-3.0506,-3.0912,-3.0814,-3.0794,-3.1072,-3.0955,-3.0814,-3.0712,-3.0651,-3.0589,-3.0506,-3.0282,-2.9931,-2.9446,-2.851,-2.7767,-2.7332,-2.6601,-2.6221,-2.6277,-2.6187,-2.6187,-2.6277,-2.6045,-2.5917,-2.5897,-2.5715,-2.5473,-2.5243,-2.4786,-2.4559,-3.538,-3.5489,-3.5593,-3.4589,0.0,0.0,-3.1851,-3.102,-3.0256,-2.9804,-3.011,-3.0125,-2.9057,-2.9376,-2.9517,-2.8658,-2.8956,-2.9098,-2.8524,-2.8678,-2.9243,-3.0229,-3.1749,-3.3017,-3.3721,-3.5477,-3.6799,-3.7358,-3.803,-3.8725,-3.9539,-3.9714,-4.0118,-4.0793,-4.0866,-4.1255,-4.204,-4.261,-4.2934,-4.3072,-4.3126,-4.2753,-4.1999,-4.1788,-4.1487,-4.1093,-4.1157,-4.1209,-4.1209,-4.1221,-4.1192,-4.1123,-4.0912,-4.0769,-4.0597,-3.9861,-3.9486,-3.9269,-3.8798,-3.858,-3.8505,-3.8388,-3.7795,-3.7103,-3.677,-3.6154,-3.5528,-3.5164,-3.4994,-3.4851,-3.4667,-3.4667,-3.451,-3.3722,-3.3587,-3.3337,-3.2227,-3.1835,-3.1468,-3.0659,-3.0464,-3.0547,-3.0932,-3.0773,-3.0712,-3.1032,-3.0955,-3.0834,-3.0712,-3.0651,-3.0589,-3.0506,-3.0526,-3.0344,-2.9893,-2.9198,-2.8489,-2.7852,-2.7103,-2.6609,-2.6399,-2.6293,-2.6259,-2.6295,-2.6045,-2.5824,-2.5656,-2.5527,-2.5301,-2.4985,-2.4686,-2.4539,-3.6128,-3.5813,-3.5553,-3.476,-3.366,0.0,-3.1684,-3.0551,-2.9577,-2.9161,-2.9172,-2.9201,-2.8976,-2.9811,-3.0384,-2.9782,-3.0612,-3.0864,-2.9541,-2.9475,-2.9801,-3.0426,-3.1545,-3.2769,-3.3997,-3.5413,-3.6569,-3.7312,-3.8323,-3.9413,-4.0503,-4.0174,-4.0611,-4.2055,-4.1713,-4.1946,-4.2826,-4.3683,-4.3795,-4.3194,-4.3999,-4.3583,-4.2161,-4.2222,-4.1835,-4.1117,-4.118,-4.1209,-4.1209,-4.134,-4.1318,-4.1163,-4.0847,-4.0697,-4.0624,-4.0238,-4.007,-4.0062,-3.9952,-3.9807,-3.9703,-3.9554,-3.8871,-3.8001,-3.7435,-3.6688,-3.5933,-3.5422,-3.5088,-3.4828,-3.4594,-3.4618,-3.4502,-3.363,-3.3507,-3.3395,-3.2704,-3.2117,-3.1525,-3.0696,-3.0568,-3.0609,-3.0753,-3.0651,-3.0651,-3.0892,-3.0794,-3.0712,-3.0671,-3.0568,-3.0506,-3.0506,-3.0609,-3.0597,-3.041,-2.9899,-2.9243,-2.8443,-2.7842,-2.7214,-2.6519,-2.6448,-2.6378,-2.6295,-2.6026,-2.5659,-2.5275,-2.5256,-2.51,-2.4802,-2.4666,-2.4564,-3.6067,-3.5359,-3.495,-3.5351,-3.3755,0.0,-3.2573,-3.1731,-3.0758,-3.0349,-3.0623,-3.0698,-2.9923,-3.0399,-3.0902,-3.0948,-3.1242,-3.1202,-3.0442,-3.0138,-3.0258,-3.096,-3.1357,-3.2139,-3.3514,-3.4744,-3.5952,-3.7147,-3.8762,-4.0237,-4.1537,-4.1508,-4.1657,-4.2088,-4.2221,-4.272,-4.3645,-4.3957,-4.4354,-4.4906,-4.3973,-4.3373,-4.3002,-4.1939,-4.1325,-4.1203,-4.1318,-4.1295,-4.1209,-4.134,-4.1307,-4.1099,-4.0935,-4.0728,-4.051,-4.0196,-4.0037,-3.9952,-3.9901,-3.9875,-3.9824,-3.958,-3.9105,-3.8447,-3.7461,-3.6754,-3.6167,-3.5352,-3.4947,-3.4739,-3.4804,-3.4851,-3.4842,-3.4741,-3.4754,-3.4413,-3.309,-3.2779,-3.2343,-3.1082,-3.0855,-3.0958,-3.114,-3.1018,-3.0915,-3.0975,-3.0895,-3.0773,-3.0568,-3.0526,-3.0506,-3.0506,-3.051,-3.0336,-2.9816,-2.9576,-2.8932,-2.7768,-2.8023,-2.769,-2.6552,-2.6877,-2.6839,-2.6312,-2.5883,-2.5454,-2.5045,-2.4962,-2.4862,-2.4802,-2.462,-2.4518,-3.6044,-3.5473,-3.513,-3.5115,-3.4145,0.0,0.0,-3.1953,-3.1334,-3.0548,-3.0509,-3.0462,-3.003,-3.0407,-3.1004,-3.1659,-3.1949,-3.2129,-3.2287,-3.1599,-3.1021,-3.0817,-3.1347,-3.221,-3.3517,-3.4519,-3.607,-3.8389,-3.939,-4.0633,-4.2261,-4.2077,-4.2294,-4.3182,-4.3037,-4.3396,-4.4323,-4.4485,-4.478,-4.5194,-4.4682,-4.4231,-4.3765,-4.2784,-4.2125,-4.1696,-4.1406,-4.1249,-4.1152,-4.1249,-4.1175,-4.0982,-4.0935,-4.0823,-4.0655,-4.0313,-4.018,-4.0104,-4.0011,-3.9977,-3.9875,-3.9746,-3.9391,-3.8838,-3.7661,-3.6634,-3.5753,-3.5322,-3.5041,-3.4899,-3.4899,-3.4947,-3.4994,-3.4994,-3.4994,-3.4718,-3.3656,-3.314,-3.2579,-3.1641,-3.1204,-3.1035,-3.1137,-3.1035,-3.0952,-3.0952,-3.0932,-3.0851,-3.0712,-3.0692,-3.0671,-3.0609,-3.0651,-3.0542,-3.0172,-3.0081,-2.9639,-2.8657,-2.886,-2.8391,-2.7053,-2.7191,-2.6842,-2.5864,-2.5602,-2.5298,-2.5005,-2.4926,-2.4902,-2.4902,-2.4666,-2.4584,-3.5996,-3.548,-3.5103,-3.4778,-3.4331,-3.3692,0.0,0.0,0.0,-3.0714,-3.0216,-2.9978,-3.001,-3.0334,-3.0929,-3.1947,-3.2259,-3.2713,-3.3711,-3.2908,-3.1942,-3.1105,-3.1653,-3.2544,-3.3715,-3.4557,-3.6371,-3.9604,-3.9907,-4.0812,-4.2852,-4.2574,-4.2987,-4.4305,-4.3905,-4.4054,-4.4831,-4.4951,-4.5059,-4.5113,-4.5321,-4.4983,-4.4154,-4.3523,-4.2808,-4.1996,-4.1418,-4.1129,-4.107,-4.1111,-4.1018,-4.0847,-4.0888,-4.0864,-4.0776,-4.0412,-4.0305,-4.028,-4.0163,-4.0037,-3.9935,-3.9901,-3.9441,-3.8731,-3.7753,-3.6415,-3.5222,-3.5222,-3.5135,-3.5058,-3.4923,-3.4994,-3.5065,-3.4994,-3.497,-3.4795,-3.4162,-3.3378,-3.2624,-3.2106,-3.1456,-3.0995,-3.1035,-3.0975,-3.0952,-3.0932,-3.0932,-3.0932,-3.0932,-3.0932,-3.0892,-3.0773,-3.0834,-3.0825,-3.0573,-3.0649,-3.0389,-2.9582,-2.9699,-2.9179,-2.7734,-2.7385,-2.6721,-2.5641,-2.5416,-2.5217,-2.5005,-2.5005,-2.5005,-2.4985,-2.4746,-2.4706,-3.5878,-3.4483,-3.3641,-3.5038,-3.3722,-3.2458,-3.3807,0.0,-3.1855,-3.1738,0.0,-3.05,-3.0443,0.0,0.0,-3.1628,-3.1448,-3.1681,-3.3081,-3.2962,-3.2842,-3.3203,-3.277,-3.2815,-3.3801,-3.4614,-3.635,-3.9389,-3.9901,-4.1077,-4.3393,-4.385,-4.4198,-4.457,-4.4608,-4.4746,-4.4995,-4.5113,-4.53,-4.5511,-4.4914,-4.4319,-4.3748,-4.2773,-4.1968,-4.1308,-4.1181,-4.1029,-4.0935,-4.0918,-4.0847,-4.0721,-4.0847,-4.0752,-4.0534,-4.0362,-4.0305,-4.028,-4.0163,-4.007,-4.0062,-3.9952,-3.8815,-3.7486,-3.7369,-3.6205,-3.4947,-3.4947,-3.4923,-3.4923,-3.4899,-3.4994,-3.5128,-3.5222,-3.5245,-3.5067,-3.4337,-3.3595,-3.2837,-3.2127,-3.1456,-3.1035,-3.1151,-3.1171,-3.1131,-3.1012,-3.0995,-3.0995,-3.0995,-3.0995,-3.0975,-3.0975,-3.0975,-3.0726,-3.0034,-3.0546,-3.0308,-2.8992,-2.9958,-2.9926,-2.8443,-2.7514,-2.683,-2.6366,-2.5673,-2.5217,-2.5005,-2.5005,-2.5005,-2.5001,-2.4862,-2.4782,-3.7043,-3.6001,-3.5103,-3.5425,-3.4751,-3.3955,-3.374,-3.3573,-3.3172,-3.2168,0.0,0.0,0.0,0.0,0.0,0.0,-3.2998,-3.3186,-3.4332,-3.4287,-3.4002,-3.3625,-3.327,-3.3307,-3.4058,-3.5206,-3.6917,-3.9289,-3.9607,-4.0861,-4.3591,-4.3844,-4.4135,-4.4692,-4.4858,-4.4978,-4.5096,-4.5257,-4.5363,-4.5468,-4.4962,-4.4491,-4.4002,-4.2932,-4.2113,-4.1529,-4.1132,-4.0864,-4.068,-4.068,-4.0631,-4.0583,-4.0655,-4.0631,-4.0624,-4.0551,-4.0461,-4.0387,-4.0263,-4.0163,-4.002,-3.9446,-3.8413,-3.7327,-3.6811,-3.6123,-3.5486,-3.511,-3.5262,-3.547,-3.511,-3.5065,-3.5111,-3.5268,-3.5245,-3.5004,-3.4443,-3.3539,-3.2695,-3.2106,-3.1456,-3.1035,-3.1171,-3.119,-3.119,-3.1176,-3.1176,-3.1176,-3.1176,-3.1232,-3.1249,-3.1131,-3.1154,-3.1038,-3.0675,-3.0847,-3.0723,-3.0104,-3.0078,-2.9696,-2.8883,-2.7548,-2.6668,-2.633,-2.5528,-2.5084,-2.5005,-2.5005,-2.5005,-2.5005,-2.4862,-2.4842,-3.7459,-3.6782,-3.6031,-3.5808,-3.5624,-3.5191,-3.408,-3.4025,-3.3907,-3.2891,-3.2299,0.0,0.0,0.0,-3.272,-3.3903,0.0,-3.4192,-3.5071,-3.5051,-3.474,-3.4131,-3.4098,-3.4451,-3.5272,-3.5905,-3.7202,-3.941,-3.9403,-4.0481,-4.328,-4.3664,-4.4009,-4.4545,-4.4903,-4.5113,-4.5203,-4.5173,-4.5157,-4.5139,-4.4674,-4.4205,-4.3688,-4.2736,-4.2016,-4.141,-4.0927,-4.0631,-4.0436,-4.0436,-4.0436,-4.0436,-4.0436,-4.051,-4.06,-4.06,-4.051,-4.0436,-4.0288,-4.0188,-3.9986,-3.9354,-3.8555,-3.7685,-3.7044,-3.6596,-3.6183,-3.5557,-3.5691,-3.5851,-3.5264,-3.5065,-3.5105,-3.5268,-3.5198,-3.5025,-3.4762,-3.3863,-3.3001,-3.2675,-3.1929,-3.1378,-3.1475,-3.1365,-3.1308,-3.1349,-3.1351,-3.1351,-3.1372,-3.1464,-3.1481,-3.1327,-3.1351,-3.1351,-3.1288,-3.1154,-3.1055,-3.0992,-3.0332,-2.9772,-2.9361,-2.8046,-2.7171,-2.6777,-2.5785,-2.527,-2.527,-2.508,-2.5005,-2.5025,-2.4906,-2.4922,-3.6389,-3.572,-3.5257,-3.615,-3.5788,-3.5243,-3.5387,-3.4232,-3.3392,-3.4249,-3.3033,-3.2098,-3.3091,-3.3218,-3.3197,-3.3321,-3.3331,0.0,0.0,-3.4614,-3.4779,-3.52,-3.5707,-3.6536,-3.7852,-3.6599,-3.6932,-3.9854,-3.9355,-3.998,-4.2416,-4.359,-4.4122,-4.4026,-4.4799,-4.5194,-4.5203,-4.4734,-4.4541,-4.4532,-4.3734,-4.2972,-4.2237,-4.182,-4.1235,-4.0527,-4.0379,-4.0313,-4.0305,-4.0305,-4.0305,-4.0305,-4.0305,-4.0305,-4.0305,-4.0305,-4.0305,-4.0305,-4.0163,-4.0096,-4.0096,-4.0079,-3.9371,-3.8572,-3.8539,-3.7836,-3.6945,-3.6322,-3.609,-3.5851,-3.5264,-3.4994,-3.497,-3.5245,-3.5198,-3.5175,-3.5412,-3.4762,-3.4153,-3.413,-3.3119,-3.2256,-3.2253,-3.1839,-3.1498,-3.1498,-3.1498,-3.1519,-3.1579,-3.1598,-3.1598,-3.1579,-3.1579,-3.1559,-3.1498,-3.1368,-3.1176,-3.0932,-3.0858,-3.0597,-3.0006,-2.9305,-2.8704,-2.824,-2.6751,-2.5977,-2.5977,-2.5318,-2.5029,-2.5107,-2.5025,-2.5001,-3.8293,-3.6963,-3.5711,-3.6738,-3.6062,-3.5195,-3.5391,-3.5014,-3.4593,-3.4468,-3.4253,-3.4105,-3.4048,-3.4441,-3.4814,-3.4932,-3.4954,-3.5279,0.0,-3.6829,-3.7435,-3.8125,-3.7818,-3.7675,-3.7998,-3.7026,-3.7424,-3.997,-3.9262,-3.9947,-4.2811,-4.3196,-4.3617,-4.4267,-4.4603,-4.4975,-4.5327,-4.4862,-4.4539,-4.4353,-4.3239,-4.2379,-4.1786,-4.1256,-4.0774,-4.0379,-4.033,-4.0305,-4.0288,-4.0213,-4.0163,-4.0163,-4.0163,-4.0163,-4.0188,-4.0362,-4.0362,-4.028,-4.0163,-3.9791,-3.936,-3.9277,-3.8286,-3.7216,-3.7636,-3.7095,-3.6324,-3.6124,-3.6033,-3.5827,-3.5146,-3.4923,-3.4947,-3.5111,-3.5111,-3.5175,-3.5446,-3.4835,-3.4209,-3.4186,-3.3174,-3.231,-3.2303,-3.1856,-3.1517,-3.1559,-3.1559,-3.1578,-3.1598,-3.169,-3.1709,-3.1598,-3.169,-3.169,-3.1578,-3.1408,-3.1257,-3.1176,-3.0915,-3.0568,-3.0146,-2.9311,-2.8662,-2.8177,-2.7248,-2.6767,-2.6735,-2.6498,-2.614,-2.5706,-2.5762,-2.5544,-3.7891,-3.6845,-3.5778,-3.6545,-3.6022,-3.5381,-3.5637,-3.5435,-3.5172,-3.5085,-3.5372,-3.5434,-3.4743,-3.5375,-3.5927,-3.5684,-3.6004,-3.6584,0.0,-3.839,-3.9121,-3.9678,-3.9201,-3.8885,-3.9054,-3.8211,-3.8558,-4.0753,-3.9839,-4.0311,-4.2951,-4.3235,-4.3588,-4.4269,-4.4466,-4.4765,-4.5157,-4.4262,-4.37,-4.3465,-4.232,-4.1571,-4.1119,-4.0749,-4.0453,-4.0213,-4.0213,-4.0213,-4.0213,-4.0138,-4.0096,-4.0096,-4.0096,-4.0096,-4.0121,-4.0296,-4.0313,-4.0213,-4.0138,-3.9622,-3.9014,-3.9135,-3.8295,-3.73,-3.7894,-3.7469,-3.6738,-3.6522,-3.6232,-3.5827,-3.5169,-3.4947,-3.4923,-3.5065,-3.5088,-3.5175,-3.5446,-3.5059,-3.4662,-3.4662,-3.3862,-3.3059,-3.2747,-3.2304,-3.1901,-3.1687,-3.1635,-3.1617,-3.1654,-3.1746,-3.1781,-3.169,-3.1746,-3.1746,-3.1617,-3.1485,-3.1372,-3.1295,-3.0978,-3.0634,-3.0258,-2.9598,-2.9033,-2.8608,-2.7932,-2.7561,-2.7543,-2.7247,-2.6883,-2.6419,-2.6275,-2.597]},{"header":{"parameterUnit":"m.s-1","parameterCategory":1,"la1":30.6,"la2":29.2853,"lo1":-89.7004,"lo2":-87.6739,"dy":0.0162,"dx":0.0183,"nx":112,"ny":82,"refTime":"2023-05-08T00:00:00:Z","depth":0,"parameterNumber":3,"parameterNumberName":"V-component_of_WINDS"},"data":[0.0,0.0,0.0,0.0,0.0,0.0,0.0,0.0,0.0,0.0,0.0,0.0,0.0,0.0,0.0,0.0,0.0,0.0,0.0,0.0,0.0,0.0,0.0,0.0,0.0,0.0,0.0,0.0,0.0,0.0,0.0,0.0,0.0,0.0,0.0,0.0,0.0,0.0,0.0,0.0,0.0,0.0,0.0,0.0,0.0,0.0,0.0,0.0,0.0,0.0,0.0,0.0,0.0,0.0,0.0,0.0,0.0,0.0,0.0,0.0,0.0,0.0,0.0,0.0,0.0,0.0,0.0,0.0,0.0,0.0,0.0,0.0,0.0,0.0,0.0,0.0,0.0,0.0,0.0,0.0,0.0,0.0,0.0,0.0,0.0,0.0,0.0,0.0,0.0,0.0,0.2925,0.221,0.09,-0.0555,-0.2219,-0.3407,-0.5455,-0.8709,0.0,0.0,0.0,0.0,0.0,0.0,0.0,0.0,0.0,0.0,0.0,0.0,0.0,0.0,0.0,0.0,0.0,0.0,0.0,0.0,0.0,0.0,0.0,0.0,0.0,0.0,0.0,0.0,0.0,0.0,0.0,0.0,0.0,0.0,0.0,0.0,0.0,0.0,0.0,0.0,0.0,0.0,0.0,0.0,0.0,0.0,0.0,0.0,0.0,0.0,0.0,0.0,0.0,0.0,0.0,0.0,0.0,0.0,0.0,0.0,0.0,0.0,0.0,0.0,0.0,0.0,0.0,0.0,0.0,0.0,0.0,0.0,0.0,0.0,0.0,0.0,0.0,0.0,0.0,0.0,0.0,0.0,0.0,0.0,0.0,0.0,0.0,0.0,0.0,0.0,0.0,0.0,0.0,0.0,0.0,0.0,0.0,0.0,0.0,0.0,0.0,0.0,0.0,0.0,0.3657,0.2752,0.146,-0.005,-0.1916,-0.3453,-0.604,-0.9971,0.0,0.0,0.0,0.0,0.0,0.0,0.0,0.0,0.0,0.0,0.0,0.0,0.0,0.0,0.0,0.0,0.0,0.0,0.0,0.0,0.0,0.0,0.0,0.0,0.0,0.0,0.0,0.0,0.0,0.0,0.0,0.0,0.0,0.0,0.0,0.0,0.0,0.0,0.0,0.0,0.0,0.0,0.0,0.0,0.0,0.0,0.0,0.0,0.0,0.0,0.0,0.0,0.0,0.0,0.0,0.0,0.0,0.0,0.0,0.0,0.0,0.0,0.0,0.0,0.0,0.0,0.0,0.0,0.0,0.0,0.0,0.0,0.0,0.0,0.0,0.0,0.0,0.0,0.0,0.0,0.0,0.0,0.0,0.0,0.0,0.0,0.0,0.0,0.0,0.0,0.0,0.0,0.0,0.0,0.0,0.0,0.0,0.0,0.0,0.0,0.0,0.0,0.0,0.3327,0.3572,0.2868,0.1613,0.005,-0.1815,-0.3451,-0.5907,-0.9515,-1.1522,0.0,0.0,0.0,0.0,0.0,0.0,0.0,0.0,0.0,0.0,0.0,0.0,0.0,0.0,0.0,0.0,0.0,0.0,0.0,0.0,0.0,0.0,0.0,0.0,0.0,0.0,0.0,0.0,0.0,0.0,0.0,0.0,0.0,0.0,0.0,0.0,0.0,0.0,0.0,0.0,0.0,0.0,0.0,0.0,0.0,0.0,0.0,0.0,0.0,0.0,0.0,0.0,0.0,0.0,0.0,0.0,0.0,0.0,0.0,0.0,0.0,0.0,0.0,0.0,0.0,0.0,0.0,0.0,0.0,0.0,0.0,0.0,0.0,0.0,0.0,0.0,0.0,0.0,0.0,0.0,0.0,0.0,0.0,0.0,0.0,0.0,0.0,0.0,0.0,0.0,0.0,0.0,0.0,0.0,0.0,0.0,0.0,0.0,0.0,0.0,0.0,0.0,0.3794,0.3527,0.3022,0.1807,0.03,-0.1452,-0.3426,-0.5854,-0.8931,-1.1241,0.0,0.0,0.0,0.0,0.0,0.0,0.0,0.0,0.0,0.0,0.0,0.0,0.0,0.0,0.0,0.0,0.0,0.0,0.0,0.0,0.0,0.0,0.0,0.0,0.0,0.0,0.0,0.0,0.0,0.0,0.0,0.0,0.0,0.0,0.0,0.0,0.0,0.0,0.0,0.0,0.0,0.0,0.0,0.0,0.0,0.0,0.0,0.0,0.0,0.0,0.0,0.0,0.0,0.0,0.0,0.0,0.0,0.0,0.0,0.0,0.0,0.0,0.0,0.0,0.0,0.0,0.0,0.0,0.0,0.0,0.0,0.0,0.0,0.0,0.0,0.0,0.0,0.0,0.0,0.0,0.0,0.0,0.0,0.0,0.0,0.0,0.0,0.0,0.0,0.0,0.0,0.0,0.0,0.0,0.0,0.0,0.0,0.0,0.0,0.0,0.0,0.0,0.4132,0.413,0.3578,0.2332,0.0982,-0.0393,-0.3255,-0.6136,-0.8935,-1.1595,0.0,0.0,0.0,0.0,0.0,0.0,0.0,0.0,0.0,0.0,0.0,0.0,0.0,0.0,0.0,0.0,0.0,0.0,0.0,0.0,0.0,0.0,0.0,0.0,0.0,0.0,0.0,0.0,0.0,0.0,0.0,0.0,0.0,0.0,0.0,0.0,0.0,0.0,0.0,0.0,0.0,0.0,0.0,0.0,0.0,0.0,0.0,0.0,0.0,0.0,0.0,0.0,0.0,0.0,0.0,0.0,0.0,0.0,0.0,0.0,0.0,0.0,0.0,0.0,0.0,0.0,0.0,0.0,0.0,0.0,0.0,0.0,0.0,0.0,0.0,0.0,0.0,0.0,0.0,0.0,0.0,0.0,0.0,0.0,0.0,0.0,0.0,0.0,0.0,0.0,0.0,0.0,0.0,0.0,0.0,0.0,0.0,0.0,0.0,0.0,0.0,0.0,0.4149,0.4255,0.3614,0.2434,0.1154,-0.0289,-0.2434,-0.5175,-0.868,0.0,0.0,0.0,0.0,0.0,0.0,0.0,0.0,0.0,0.0,0.0,0.0,0.0,0.0,0.0,0.0,0.0,0.0,0.0,0.0,0.0,0.0,0.0,0.0,0.0,0.0,0.0,0.0,0.0,0.0,0.0,0.0,0.0,0.0,0.0,0.0,0.0,0.0,0.0,0.0,0.0,0.0,0.0,0.0,0.0,0.0,0.0,0.0,0.0,0.0,0.0,0.0,0.0,0.0,0.0,0.0,0.0,0.0,0.0,0.0,0.0,0.0,0.0,0.0,0.0,0.0,0.0,0.0,0.0,0.0,0.0,0.0,0.0,0.0,0.0,0.0,0.0,0.0,0.0,0.0,0.0,0.0,0.0,0.0,0.0,0.0,0.0,0.0,0.0,0.0,0.0,0.0,0.0,0.0,0.0,0.0,0.0,0.0,0.0,0.0,0.0,0.0,0.3545,0.4334,0.4558,0.3966,0.2778,0.1556,0.033,-0.1662,-0.4348,-0.787,0.0,0.0,0.0,0.0,0.0,0.0,0.0,0.0,0.0,0.0,0.0,0.0,0.0,0.0,0.0,0.0,0.0,0.0,0.0,0.0,0.0,0.0,0.0,0.0,0.0,0.0,0.0,0.0,0.0,0.0,0.0,0.0,0.0,0.0,0.0,0.0,0.0,0.0,0.0,0.0,0.0,0.0,0.0,0.0,0.0,0.0,0.0,0.0,0.0,0.0,0.0,0.0,0.0,0.0,0.0,0.0,0.0,0.0,0.0,0.0,0.0,0.0,0.0,0.0,0.0,0.0,0.0,0.0,0.0,0.0,0.0,0.0,0.0,0.0,0.0,0.0,0.0,0.0,0.0,0.0,0.0,0.0,0.0,0.0,0.0,0.0,0.0,0.0,0.0,0.0,0.0,0.0,0.0,0.0,0.0,0.0,0.0,0.0,0.0,0.0,0.0,0.0,0.3871,0.4709,0.5129,0.4746,0.3454,0.2309,0.1572,-0.1128,-0.3832,0.0,0.0,0.0,0.0,0.0,0.0,0.0,0.0,0.0,0.0,0.0,0.0,0.0,0.0,0.0,0.0,0.0,0.0,0.0,0.0,0.0,0.0,0.0,0.0,0.0,0.0,0.0,0.0,0.0,0.0,0.0,0.0,0.0,0.0,0.0,0.0,0.0,0.0,0.0,0.0,0.0,0.0,0.0,0.0,0.0,0.0,0.0,0.0,0.0,0.0,0.0,0.0,0.0,0.0,0.0,0.0,0.0,0.0,0.0,0.0,0.0,0.0,0.0,0.0,0.0,0.0,0.0,0.0,0.0,0.0,0.0,0.0,0.0,0.0,0.0,0.0,0.0,0.0,0.0,0.0,0.0,0.0,0.0,0.0,0.0,0.0,0.0,0.0,0.0,0.0,0.0,0.0,0.0,0.0,0.0,0.0,0.0,0.0,0.0,0.0,0.0,0.0,0.0,0.4029,0.4752,0.5022,0.4456,0.3569,0.2578,0.1539,0.0045,-0.1838,-0.4161,0.0,0.0,0.0,0.0,0.0,0.0,0.0,0.0,0.0,0.0,0.0,0.0,0.0,0.0,0.0,0.0,0.0,0.0,0.0,0.0,0.0,0.0,0.0,0.0,0.0,0.0,0.0,0.0,0.0,0.0,0.0,0.0,0.0,0.0,0.0,0.0,0.0,0.0,0.0,0.0,0.0,0.0,0.0,0.0,0.0,0.0,0.0,0.0,0.0,0.0,0.0,0.0,0.0,0.0,0.0,0.0,0.0,0.0,0.0,0.0,0.0,0.0,0.0,0.0,0.0,0.0,0.0,0.0,0.0,0.0,0.0,0.0,0.0,0.0,0.0,0.0,0.0,0.0,0.0,0.0,0.0,0.0,0.0,0.0,0.0,0.0,0.0,0.0,0.0,0.0,0.0,0.0,0.0,0.0,0.0,0.0,0.0,0.0,0.0,0.0,0.0,0.0,0.3948,0.465,0.5009,0.4693,0.3793,0.2823,0.1928,0.0986,-0.0527,-0.2755,0.0,0.0,0.0,0.0,0.0,0.0,0.0,0.0,0.0,0.0,0.0,0.0,0.0,0.0,0.0,0.0,0.0,0.0,0.0,0.0,0.0,0.0,0.0,0.0,0.0,0.0,0.0,0.0,0.0,0.0,0.0,0.0,0.0,0.0,0.0,0.0,0.0,0.0,0.0,0.0,0.0,0.0,0.0,0.0,0.0,0.0,0.0,0.0,0.0,0.0,0.0,0.0,0.0,0.0,0.0,0.0,0.0,0.0,0.0,0.0,0.0,0.0,0.0,0.0,0.0,0.0,0.0,0.0,0.0,0.0,0.0,0.0,0.0,0.0,0.0,0.0,0.0,0.0,0.0,0.0,0.0,0.0,0.0,0.0,0.0,0.0,0.0,0.0,0.0,0.0,0.0,0.0,0.0,0.0,0.0,0.0,0.0,0.0,0.0,0.0,0.0,0.0,0.3728,0.4512,0.5051,0.5158,0.4034,0.3092,0.2597,0.1745,0.0351,-0.1632,0.0,0.0,0.0,0.0,0.0,0.0,0.0,0.0,0.0,0.0,0.0,0.0,0.0,0.0,0.0,0.0,0.0,0.0,0.0,0.0,0.0,0.0,0.0,0.0,0.0,0.0,0.0,0.0,0.0,0.0,0.0,0.0,0.0,0.0,0.0,0.0,0.0,0.0,0.0,0.0,0.0,0.0,0.0,0.0,0.0,0.0,0.0,0.0,0.0,0.0,0.0,0.0,0.0,0.0,0.0,0.0,0.0,0.0,0.0,0.0,-0.0903,-0.2114,0.0,0.0,0.0,0.0,0.0,0.0,0.0,0.0,0.0,0.0,0.0,0.0,0.0,0.0,0.0,0.0,0.0,0.0,0.0,0.0,0.0,0.0,0.0,0.0,0.0,0.0,0.0,0.0,0.0,0.0,0.0,0.0,0.0,0.0,0.0,0.0,0.0,0.0,0.0,0.0,0.3653,0.465,0.5188,0.4927,0.4396,0.3717,0.2867,0.2385,0.1686,0.0714,-0.0965,0.0,0.0,0.0,0.0,0.0,0.0,0.0,0.0,0.0,0.0,0.0,0.0,0.0,0.0,0.0,0.0,0.0,0.0,0.0,0.0,0.0,0.0,0.0,0.0,0.0,0.0,0.0,0.0,0.0,0.0,0.0,0.0,0.0,0.0,0.0,0.0,0.0,0.0,0.0,0.0,0.0,0.0,0.0,0.0,0.0,0.0,0.0,0.0,0.0,0.0,0.0,0.0,0.0,0.0,0.0,0.0,0.0,0.0,0.0,0.1979,0.058,0.0,0.0,0.0,0.0,0.0,0.0,0.0,0.0,0.0,0.0,0.0,0.0,0.0,0.0,0.0,0.0,0.0,0.0,0.0,0.0,0.0,0.0,0.0,0.0,0.0,0.0,0.0,0.0,0.0,0.0,0.0,0.0,0.0,0.0,0.0,0.0,0.0,0.0,0.0,0.0,0.3576,0.4736,0.5479,0.5265,0.4775,0.421,0.3448,0.2987,0.2496,0.1936,0.067,0.0,0.0,0.0,0.0,0.0,0.0,0.0,0.0,0.0,0.0,0.0,0.0,0.0,0.0,0.0,0.0,0.0,0.0,0.0,0.0,0.0,0.0,0.0,0.0,0.0,0.0,0.0,0.0,0.0,0.0,0.0,0.0,0.0,0.0,0.0,0.0,0.0,0.0,0.0,0.0,0.0,0.0,0.0,0.0,0.0,0.0,0.0,0.0,0.0,0.0,0.0,0.0,0.0,0.7586,0.762,0.8069,0.7228,0.6959,0.6983,0.468,0.3465,0.2947,0.2019,0.0,0.0,0.0,0.0,0.0,0.0,0.0,0.0,0.0,0.0,0.0,0.0,0.0,0.0,0.0,0.0,0.0,0.0,0.0,0.0,0.0,0.0,0.6595,0.6924,0.7406,0.7057,0.4358,0.0,0.0,0.0,0.0,0.0,0.0,0.0,0.0,0.0,0.0,0.0,0.3584,0.4906,0.58,0.5736,0.5223,0.465,0.4096,0.3582,0.308,0.2637,0.2089,0.1395,0.0,0.0,0.0,0.0,0.0,0.0,0.0,0.0,0.0,0.0,0.0,0.0,0.0,0.0,0.0,0.0,0.0,0.0,0.0,0.0,0.0,0.0,0.0,0.0,0.0,0.0,0.0,0.0,0.0,0.0,0.0,0.0,1.102,1.0291,0.0,0.0,0.0,0.0,0.0,0.0,0.0,0.0,0.0,0.0,0.0,0.0,0.0,1.058,1.0288,1.0439,1.0302,0.9942,0.9856,0.9657,0.934,0.8819,0.8508,0.8324,0.7308,0.0,0.5125,0.4069,0.0,0.0,0.0,0.0,0.0,0.0,0.0,0.0,0.0,0.0,0.0,0.0,0.0,0.0,0.0,0.0,0.0,0.0,0.0,0.0,0.0,0.0,0.825,0.8805,0.9159,0.9086,0.7926,0.6255,0.4955,0.4678,0.3705,0.281,0.0,0.0,0.0,0.0,0.0,0.0,0.3834,0.5291,0.621,0.5924,0.5703,0.5323,0.4747,0.4229,0.3803,0.3391,0.298,0.2564,0.2184,0.145,0.0,0.0,0.0,0.0,0.0,0.0,0.0,0.0,0.0,0.0,0.0,0.0,0.0,0.0,0.0,0.0,0.0,0.0,0.0,0.0,0.0,0.0,0.0,0.0,0.0,0.0,0.0,0.0,0.0,1.2239,1.2299,1.1899,1.1729,1.1678,0.0,0.0,0.0,0.0,0.0,0.0,0.0,0.0,0.0,1.1517,1.196,1.2054,1.1843,1.153,1.1284,1.1068,1.0554,1.012,0.982,0.9471,0.917,0.899,0.864,0.8066,0.7201,0.599,0.5342,0.503,0.0,0.0,0.0,0.0,0.2752,0.2961,0.3232,0.369,0.4108,0.3785,0.0,0.0,0.0,0.0,0.0,0.0,0.0,0.6282,0.7411,0.8533,0.9394,0.9655,0.9794,0.978,0.9392,0.8488,0.7493,0.6573,0.586,0.5146,0.4361,0.4133,0.0,0.0,0.0,0.5189,0.5184,0.6213,0.6898,0.6826,0.6412,0.5976,0.5555,0.5007,0.4513,0.4181,0.3798,0.3506,0.3385,0.2769,0.1872,0.0,0.0,0.0,0.0,0.0,0.0,0.0,0.0,0.0,0.0,0.0,0.0,0.0,0.0,0.0,0.0,0.0,0.0,0.0,0.0,0.0,0.0,0.0,0.0,0.0,0.0,0.0,0.0,1.3456,1.3624,1.3445,1.3289,1.3197,0.0,0.0,0.0,0.0,0.0,0.0,1.2605,1.2812,1.2912,1.2833,1.3137,1.3179,1.296,1.2363,1.1972,1.1886,1.0982,1.0467,1.0255,0.9907,0.9646,0.9476,0.9339,0.9096,0.8688,0.7612,0.6849,0.6323,0.5936,0.543,0.4957,0.4843,0.5002,0.5308,0.5536,0.6041,0.6469,0.62,0.6086,0.6009,0.5684,0.0,0.0,0.0,0.0,0.8033,0.8598,0.9556,1.0383,1.039,1.0343,1.0273,1.0151,0.9938,0.941,0.8271,0.7832,0.7351,0.6482,0.6177,0.0,0.514,0.588,0.6497,0.6461,0.7085,0.7594,0.7673,0.725,0.6787,0.6424,0.5826,0.5269,0.4911,0.4529,0.4311,0.4311,0.3905,0.3228,0.2267,0.0,0.0,0.0,0.0,0.0,0.0,0.0,0.0,0.0,0.0,0.0,0.0,0.0,0.0,0.0,0.0,0.0,0.0,0.0,0.0,0.0,0.0,0.0,0.0,0.0,0.0,0.0,0.0,0.0,1.5188,1.517,0.0,0.0,0.0,0.0,1.4928,1.4914,1.4747,1.4287,1.4287,1.4216,1.3997,1.4046,1.3913,1.3646,1.3173,1.2747,1.2363,1.1628,1.1154,1.0939,1.0467,1.0168,0.9941,0.9496,0.9244,0.915,0.867,0.8052,0.7345,0.7302,0.7057,0.6799,0.6957,0.7038,0.7115,0.7296,0.7411,0.7415,0.7407,0.7407,0.748,0.7812,0.7647,0.0,0.0,0.8732,0.9156,1.0186,1.0806,1.1193,1.1398,1.1267,1.1036,1.0587,1.0166,0.9834,0.9635,0.9098,0.8602,0.8326,0.0,0.6546,0.6745,0.6602,0.6657,0.7099,0.7722,0.8191,0.8245,0.8178,0.7865,0.7289,0.6703,0.61,0.5491,0.5154,0.4965,0.4965,0.4582,0.4231,0.399,0.329,0.0,0.0,0.0,0.0,0.0,0.0,0.0,0.0,0.0,0.0,0.0,0.0,0.0,0.0,0.0,0.0,0.0,0.0,0.0,0.0,0.0,0.0,0.0,0.0,0.0,0.0,0.0,0.0,1.653,1.6507,0.0,1.6429,1.5913,1.5617,1.5752,1.5333,1.5048,1.4873,1.4873,1.4741,1.4489,1.4496,1.4363,1.4146,1.3561,1.3179,1.3052,1.2363,1.1801,1.1396,1.1227,1.0768,1.0133,1.014,0.994,0.9642,0.9492,0.9022,0.8373,0.8346,0.8249,0.8051,0.8008,0.8051,0.8117,0.779,0.7944,0.8269,0.8286,0.8356,0.8508,0.8618,0.8661,0.8703,0.9013,0.9719,1.0423,1.0515,1.1278,1.1988,1.1763,1.1556,1.1353,1.1192,1.0843,1.0525,1.049,0.9646,0.8937,0.8976,0.8482,0.8127,0.8237,0.8441,0.8493,0.8379,0.8733,0.8952,0.8958,0.8644,0.8315,0.7933,0.7311,0.6609,0.5764,0.5752,0.5601,0.5204,0.5318,0.5085,0.4501,0.4268,0.3524,0.0,0.0,0.0,0.0,0.0,0.0,0.0,0.0,0.0,0.0,0.0,0.0,0.0,0.0,0.0,0.0,0.0,0.0,0.0,0.0,0.0,0.0,0.0,0.0,0.0,1.7085,1.7618,1.7708,1.7646,1.7542,1.735,1.6823,1.6508,1.6453,1.5948,1.5582,1.5423,1.5291,1.5117,1.4943,1.4843,1.4677,1.4517,1.3961,1.3675,1.3724,1.2952,1.2398,1.2017,1.1846,1.1304,1.0546,1.0747,1.0554,1.0098,1.0016,0.9693,0.9234,0.903,0.8797,0.8569,0.8369,0.8408,0.8551,0.8214,0.8413,0.8824,0.887,0.9084,0.9306,0.9382,0.9539,0.9695,0.9695,1.0519,1.1291,1.1004,1.172,1.246,1.2158,1.1869,1.1603,1.1329,1.1094,1.0903,1.0627,0.9857,0.9284,0.9509,0.9181,0.8937,0.9008,0.9271,0.9365,0.9115,0.9308,0.9475,0.952,0.9177,0.8785,0.8448,0.7769,0.7041,0.628,0.6353,0.6169,0.5521,0.5827,0.5674,0.4935,0.4968,0.4499,0.3443,0.0,0.0,0.0,0.0,0.0,0.0,0.0,0.0,0.0,0.0,0.0,0.0,0.0,0.0,0.0,0.0,0.0,0.0,0.0,0.0,0.0,0.0,0.0,1.7626,1.8098,1.8542,1.8731,1.8554,1.8322,1.8089,1.7829,1.7578,1.7188,1.6861,1.6533,1.617,1.5692,1.5436,1.5421,1.5109,1.4849,1.472,1.4378,1.4296,1.4378,1.3383,1.2912,1.2899,1.2339,1.1776,1.1238,1.1216,1.0956,1.0523,1.0318,1.0105,0.9846,0.9268,0.8775,0.8403,0.8217,0.8255,0.8479,0.8665,0.8861,0.9061,0.9284,0.9582,0.9954,1.0143,1.0368,1.0513,1.0513,1.1074,1.1669,1.1669,1.2114,1.2562,1.2562,1.2261,1.1781,1.0999,1.0962,1.085,1.0105,0.9797,0.9753,0.9987,0.9304,0.8789,0.8984,0.9048,0.0,0.9289,0.9502,0.971,0.9956,0.9757,0.9431,0.8973,0.8073,0.7442,0.715,0.7005,0.6644,0.5951,0.611,0.5954,0.5359,0.5509,0.5503,0.5342,0.0,0.0,0.0,0.0,0.0,0.0,0.0,0.0,0.0,0.0,0.0,0.0,0.0,0.0,0.0,0.0,0.0,0.0,0.0,0.0,0.0,1.8574,1.8939,1.8636,1.9411,1.9877,1.9608,1.9508,1.947,1.9367,1.8681,1.8273,1.8475,1.7532,1.6935,1.6812,1.6394,1.6073,1.5988,1.5647,1.5409,1.5301,1.4767,1.4531,1.4527,1.3581,1.3088,1.294,1.2525,1.21,1.1784,1.1627,1.1408,1.1145,1.0954,1.0663,1.0293,0.9841,0.9501,0.9279,0.9203,0.9241,0.9316,0.9506,0.9614,0.9695,1.0067,1.0255,1.0368,1.0556,1.0556,1.0513,1.0513,1.0663,1.0812,1.0812,1.1298,1.1744,1.1744,1.1632,1.1484,1.1298,1.1037,1.085,1.0775,1.0273,0.9899,1.009,0.9874,0.9653,0.9646,0.9823,0.9872,0.976,0.9933,1.0064,0.9959,1.0048,0.9921,0.9431,0.9157,0.8594,0.7581,0.7627,0.7417,0.6813,0.6855,0.6835,0.6665,0.5812,0.558,0.0,0.0,0.0,0.0,0.0,0.0,0.0,0.0,0.0,0.0,0.0,0.0,0.0,0.0,0.0,0.0,0.0,0.0,0.0,0.0,0.0,0.0,1.9352,1.9759,1.963,2.0208,2.0527,2.0323,2.0059,1.9878,1.9882,1.9208,1.8923,1.9241,1.8245,1.7613,1.7606,1.7097,1.6693,1.6452,1.6195,1.5961,1.5888,1.524,1.4961,1.5014,1.3963,1.3428,1.3279,1.289,1.2546,1.2224,1.212,1.1929,1.1632,1.1521,1.1223,1.0812,0.0,0.0,0.0,0.0,0.9582,0.9657,0.9916,1.0067,1.0218,1.0625,1.0925,1.1186,1.1372,1.1409,1.1372,1.1372,1.1372,1.1372,1.1372,1.1632,1.1892,1.1892,1.1855,1.1706,1.1446,1.1335,1.126,1.1149,1.0793,0.0,1.0573,1.0144,0.9815,0.9792,0.9972,1.0042,0.9797,0.9962,1.007,0.9907,0.9973,0.9911,0.9636,0.9299,0.0,0.0,0.0,0.8051,0.7549,0.7227,0.0,0.0,0.0,0.6661,0.7242,0.7007,0.0,0.0,0.6515,0.6529,0.0,0.0,0.0,0.0,0.0,0.0,0.0,0.0,0.0,0.0,0.0,0.0,0.0,0.0,0.0,0.0,1.9905,2.0579,2.0667,2.0737,2.0838,2.0944,2.044,2.0078,2.0008,1.9652,1.954,1.9697,1.9043,1.8591,1.8523,1.7944,0.0,0.0,0.0,1.6611,1.6562,1.5865,1.5576,1.5674,1.4567,1.3945,1.3758,1.3432,1.3083,1.2716,1.2673,1.2452,1.2114,1.2077,1.1818,1.1409,1.0625,1.0067,0.9771,0.9771,0.9771,0.9846,1.0218,0.0,0.0,1.1149,1.1669,1.2224,1.2409,1.2562,1.2636,1.2673,1.2599,1.2489,1.2526,1.2562,1.2556,1.2526,1.2415,1.2187,1.1632,1.1744,1.1855,1.1335,1.1386,1.1439,1.1228,1.0391,0.9727,0.97,0.989,0.9943,0.9722,0.9887,0.9979,0.9953,0.9831,0.0,0.9695,0.9061,0.87,0.8836,0.8783,0.8598,0.8177,0.7518,0.7169,0.7169,0.7668,0.8203,0.878,0.8742,0.9008,0.9544,0.8084,0.7821,0.0,0.0,0.0,0.0,0.0,0.0,0.0,0.0,0.0,0.0,0.0,0.0,0.0,0.0,0.0,1.9886,2.0376,2.0913,2.1617,2.1792,2.1683,2.1425,2.1272,2.1054,2.0726,2.0484,2.0329,2.0323,2.0236,2.0051,1.9838,1.9274,1.8845,1.8678,1.7871,1.7496,1.7523,1.6773,1.6304,1.6154,1.5152,0.0,1.4237,1.387,1.3622,1.3564,1.3229,1.2936,1.2709,1.2562,1.2268,1.1818,1.1186,1.0887,1.0812,1.0812,1.0925,1.1074,1.1149,1.1521,1.2003,1.2224,1.2732,1.3244,1.347,1.3185,0.0,1.3025,1.2512,1.1892,1.2077,1.2254,1.2321,1.215,1.2342,1.2489,1.2194,1.2077,1.2003,1.2077,1.1863,1.1702,1.1793,1.1185,1.0572,1.0359,1.0549,1.06,1.035,1.0551,1.0629,1.0423,1.0539,1.0573,1.0347,1.024,1.0033,0.9676,0.9349,0.9018,0.8611,0.8765,0.8822,0.8822,0.8775,0.8894,0.917,0.8856,0.8932,0.9359,0.8865,0.8903,0.0,0.0,0.0,0.0,0.0,0.0,0.0,0.0,0.0,0.0,0.0,2.0347,2.0827,0.0,2.038,2.0692,2.1038,2.1371,2.1709,2.2216,2.2478,2.2289,2.1883,2.1584,2.137,2.0889,2.0801,2.131,2.0869,2.0717,2.1042,2.0438,1.9902,1.9399,1.8892,1.8523,1.8261,1.7231,1.666,1.6484,1.5327,1.4618,1.4389,1.4093,1.3949,1.3928,1.3528,1.3309,1.32,1.2863,1.2636,1.2415,1.2114,1.1818,1.1558,1.1558,1.1669,1.1855,1.1966,1.2342,1.2783,1.3105,1.3579,1.4086,1.4165,1.3985,1.3768,1.3796,1.3288,1.2746,1.2746,1.2739,1.2703,1.2489,1.2599,1.2709,1.2636,1.2526,1.2526,1.2709,1.2415,1.2268,1.2562,1.2052,1.1463,1.1023,1.1043,1.1079,1.083,1.0936,1.0927,1.068,1.0784,1.0751,1.0521,1.0517,1.0428,1.0233,0.9927,0.9658,0.9463,0.9544,0.9582,0.9582,0.9501,0.9614,0.9884,0.9501,0.9576,1.003,0.9733,0.9695,0.0,0.0,0.0,0.0,0.0,0.0,0.0,2.0657,2.1525,2.2115,2.2385,2.2532,2.2702,2.2306,2.1834,2.1461,2.1684,2.1832,2.1668,2.2449,2.3001,2.3038,2.2402,2.1911,2.1807,2.1265,2.1224,2.1986,2.1291,2.1186,2.1983,2.1377,2.0714,2.0087,1.9859,1.9487,1.895,1.7767,1.7083,1.691,1.567,1.4884,1.4613,1.4418,1.4274,1.4165,1.3819,1.3637,1.3601,1.3339,1.3156,1.3083,1.3083,1.2783,1.2342,1.2231,1.2268,1.2452,1.2636,1.3039,1.3513,1.3905,1.4446,1.4927,1.4892,1.4856,1.4748,1.4605,1.4253,1.3899,1.371,1.3557,1.3411,1.3185,1.3149,1.3193,1.3149,1.3119,1.3119,1.3309,1.301,1.2863,1.32,1.2826,1.2268,1.1669,1.1608,1.1509,1.1304,1.1309,1.1284,1.1043,1.1037,1.0925,1.0625,1.0588,1.0556,1.0513,1.0368,1.0255,1.0255,1.0105,1.003,1.003,1.003,1.018,1.0513,1.018,1.0255,1.0738,1.0475,1.0368,1.5553,1.5641,1.6542,1.8706,1.9332,2.0101,0.0,2.3447,2.3745,2.4119,2.4375,2.4446,2.3993,2.3321,2.2683,2.216,2.2192,2.2251,2.2197,2.2659,2.3075,2.3261,2.2852,2.2402,2.1845,2.1898,2.1819,2.161,2.1703,2.1928,2.2405,2.1787,2.1425,2.138,2.0624,2.0077,1.9758,1.8736,1.8096,1.7746,1.6987,1.6204,1.5355,1.5169,1.4883,1.4533,1.4353,1.4209,1.4057,1.4317,1.4145,1.3717,1.3695,1.3659,1.3535,1.301,1.2826,1.2856,1.3046,1.3724,1.4466,1.4681,1.5374,1.6096,1.5956,1.5674,1.5355,1.5169,1.4812,1.4461,1.4325,1.4353,1.4353,1.4021,1.4101,1.4173,1.3985,1.3819,1.3717,1.3717,1.3564,1.3419,1.3455,1.3273,1.29,1.2298,1.2231,1.2195,1.1924,1.2124,1.2151,1.1887,1.1855,1.1632,1.1074,1.085,1.07,1.0519,1.0481,1.0481,1.0481,1.0443,1.0438,1.0438,1.0438,1.0475,1.0513,1.0443,1.0481,1.0556,1.085,1.0887,1.8166,1.8225,1.877,2.0458,2.1342,2.2256,2.3938,2.4597,2.5066,2.5907,2.6007,2.59,2.5762,2.5144,2.446,2.3671,2.3305,2.3037,2.2772,2.2981,2.3075,2.2815,2.2815,2.2628,2.2025,2.1742,2.1666,2.1888,2.1759,2.1894,2.2484,2.2129,2.1738,2.1382,2.0675,2.0057,1.9553,1.8339,1.752,1.7203,1.6327,1.5783,1.5497,1.5177,1.4927,1.4756,1.4721,1.4533,1.4317,1.4625,1.4561,1.4289,1.4525,1.4553,1.4346,1.3411,1.3302,1.3586,1.3564,1.4165,1.4974,1.5169,1.5736,1.6272,1.6237,1.5964,1.562,1.5426,1.5248,1.507,1.4756,1.474,1.4697,1.4346,1.4245,1.4209,1.4129,1.4173,1.4253,1.4145,1.4145,1.4137,1.4137,1.392,1.3659,1.3506,1.3116,1.2787,1.2546,1.2716,1.2675,1.2207,1.1966,1.1706,1.1484,1.1372,1.1298,1.1186,1.1186,1.1186,1.1186,1.1186,1.1186,1.1186,1.1186,1.1186,1.1186,1.1186,1.1186,1.1217,1.1211,1.121,1.9864,2.0067,2.0502,2.174,2.2938,2.4034,2.4998,2.5647,2.6343,2.7228,2.7443,2.7459,2.7404,2.6855,2.6159,2.5419,2.466,2.4064,2.3694,2.3623,2.3422,2.2934,2.3123,2.2993,2.2197,2.1693,2.1645,2.205,2.1678,2.171,2.2352,2.2179,2.1878,2.1401,2.0878,2.0294,1.9554,1.8276,1.7388,1.6909,1.6014,1.5594,1.5576,1.5292,1.5122,1.5078,1.5185,1.5043,1.4713,1.5133,1.5161,1.4955,1.5232,1.5267,1.5046,1.4093,1.3949,1.4209,1.4072,1.4641,1.5453,1.5603,1.6096,1.6621,1.6482,1.6316,1.6044,1.5753,1.5647,1.5505,1.515,1.507,1.4982,1.4669,1.4561,1.4453,1.4418,1.4633,1.4784,1.4569,1.4641,1.474,1.4605,1.4353,1.4238,1.4446,1.3912,1.3448,1.3258,1.3266,1.3119,1.2673,1.215,1.1855,1.1855,1.1744,1.1706,1.1706,1.1706,1.1706,1.1706,1.1706,1.1706,1.1706,1.1706,1.1668,1.1592,1.1592,1.1554,1.1544,1.1375,1.1426,2.0226,2.0695,2.1448,2.2666,2.3859,2.5038,2.6193,2.7147,2.7854,2.7935,2.875,2.926,2.8729,2.8094,2.7562,2.7341,2.6251,2.5436,2.5351,2.4754,2.431,2.4071,2.4082,2.3552,2.2218,2.2063,2.1997,2.1828,2.1456,2.1455,2.2076,2.1909,2.1789,2.1769,2.1571,2.1065,2.0175,1.9168,1.8246,1.745,1.6837,1.6307,1.5797,1.577,1.5655,1.5505,1.5885,1.585,1.5497,1.6026,1.6053,1.5762,1.5762,1.5762,1.5727,1.5303,1.4883,1.4569,1.4569,1.5196,1.5974,1.6061,1.67,1.7392,1.7012,1.6874,1.6769,1.6237,1.5929,1.5726,1.5541,1.547,1.5426,1.5204,1.5311,1.539,1.5204,1.5319,1.5363,1.4971,1.5034,1.5062,1.4677,1.4461,1.4497,1.4832,1.4597,1.4281,1.4093,1.3739,1.3499,1.3455,1.2746,1.2268,1.2268,1.1929,1.1706,1.1706,1.1706,1.1706,1.1706,1.1706,1.1706,1.1706,1.1706,1.1573,1.1306,1.1306,1.1237,1.1106,1.1306,1.1573,2.1763,2.1846,2.2031,2.3084,2.4279,2.5423,2.6241,2.7081,2.7817,2.8233,2.853,2.876,2.894,2.8301,2.7758,2.7782,2.6863,2.604,2.5831,2.5482,2.5034,2.4437,2.42,2.3755,2.2853,2.2794,2.2541,2.1866,2.1807,2.1831,2.1909,2.1842,2.1688,2.1426,2.0894,2.0192,1.928,1.8374,1.7387,1.6368,1.6166,1.5823,1.5426,1.5823,1.5894,1.5726,1.5832,1.5929,1.6061,1.6368,1.6429,1.6359,1.6603,1.6568,1.6324,1.6184,1.5974,1.5665,1.5319,1.5815,1.6621,1.6786,1.7279,1.7803,1.7666,1.7382,1.7028,1.6726,1.6482,1.6263,1.6061,1.6026,1.5991,1.585,1.5638,1.547,1.5426,1.5674,1.5744,1.5213,1.5497,1.563,1.5098,1.4955,1.4991,1.5275,1.4856,1.4461,1.4317,1.3819,1.3492,1.3492,1.301,1.2636,1.2526,1.2489,1.2378,1.2114,1.2342,1.2452,1.2305,1.2415,1.2415,1.2305,1.222,1.2036,1.1828,1.1733,1.1654,1.1621,1.1625,1.1793,2.2875,2.2958,2.301,2.3746,2.472,2.5657,2.6156,2.6868,2.7419,2.745,2.7946,2.8426,2.8683,2.816,2.7962,2.8647,2.7566,2.6672,2.6779,2.6384,2.5879,2.529,2.5072,2.4542,2.3562,2.372,2.3315,2.2001,2.2035,2.1987,2.1807,2.1807,2.1693,2.1436,2.0951,2.0125,1.9031,1.8318,1.7333,1.6105,1.6105,1.5991,1.5806,1.6202,1.6316,1.6219,1.6386,1.6551,1.6716,1.6994,1.7097,1.7132,1.7373,1.7348,1.7097,1.7097,1.7028,1.6795,1.6061,1.6342,1.7107,1.7235,1.7691,1.8178,1.811,1.7828,1.7451,1.7245,1.6994,1.6786,1.6551,1.6517,1.6447,1.6237,1.6026,1.585,1.5744,1.5956,1.5991,1.5417,1.5674,1.5815,1.5275,1.5311,1.5426,1.539,1.5177,1.4971,1.482,1.431,1.3956,1.3891,1.3484,1.3119,1.2936,1.2973,1.2863,1.2526,1.2753,1.2826,1.2709,1.282,1.2826,1.2709,1.252,1.2269,1.2054,1.1853,1.1712,1.1699,1.1664,1.1828,2.3465,2.3844,2.4176,2.4522,2.5092,2.5665,2.5948,2.655,2.6755,2.5808,2.71,2.8308,2.8012,2.7806,2.818,2.976,2.8443,2.7462,2.8144,2.7446,2.6785,2.6576,2.6524,2.5875,2.4303,2.4692,2.4249,2.2288,2.2138,2.2025,2.1845,2.1807,2.1807,2.1769,2.1578,2.081,1.9426,1.8949,1.8004,1.6603,1.6603,1.6682,1.6874,1.6908,1.6908,1.6908,1.7461,1.7608,1.7514,1.7866,1.8037,1.8037,1.8018,1.8008,1.8008,1.8008,1.8008,1.7837,1.676,1.6864,1.7476,1.7442,1.7964,1.8516,1.8371,1.8202,1.7974,1.7784,1.751,1.7166,1.6968,1.6908,1.6839,1.6412,1.6473,1.6499,1.6202,1.6237,1.6167,1.5638,1.5691,1.5691,1.5311,1.5568,1.5691,1.5311,1.5576,1.5761,1.5541,1.5125,1.4804,1.4605,1.4145,1.3754,1.3535,1.3346,1.3156,1.2936,1.2936,1.2936,1.2936,1.2915,1.2908,1.2915,1.2586,1.2277,1.2023,1.1673,1.1468,1.1334,1.1529,1.1809,2.3473,2.3046,2.2695,2.3222,2.3718,2.4186,2.4641,2.5545,2.6222,2.6016,2.654,2.7086,2.7377,2.7926,2.8526,2.904,2.899,2.8838,2.8667,2.8032,2.7469,2.7082,2.66,2.5854,2.4754,2.4448,2.3869,2.2633,2.2553,2.2478,2.2252,2.1949,2.1731,2.1578,2.1244,2.0581,1.9644,1.8421,1.7501,1.683,1.683,1.6691,1.6447,1.6769,1.683,1.6735,1.7448,1.8011,1.8381,1.8477,1.8616,1.8701,1.8374,1.8144,1.8008,1.8008,1.8008,1.7974,1.7828,1.8066,1.8428,1.8283,1.862,1.9075,1.8942,1.864,1.8347,1.8202,1.7886,1.7545,1.7392,1.7245,1.7072,1.6795,1.6682,1.6568,1.6508,1.6508,1.6403,1.6026,1.5859,1.5832,1.585,1.5956,1.6035,1.6026,1.6228,1.6123,1.5382,1.507,1.482,1.4605,1.4397,1.4109,1.3754,1.3811,1.3739,1.3382,1.363,1.3659,1.3346,1.3365,1.3232,1.2984,1.2638,1.2373,1.2153,1.1998,1.1923,1.1903,1.2058,1.2305,2.3569,2.2973,2.2425,2.2549,2.271,2.2761,2.2523,2.3518,2.4412,2.4086,2.4914,2.5835,2.6354,2.6755,2.7309,2.8362,2.8356,2.8285,2.8497,2.8191,2.7719,2.7249,2.6793,2.6148,2.515,2.4759,2.411,2.3056,2.2815,2.2628,2.2402,2.2101,2.1883,2.1769,2.1282,2.0436,1.9201,1.7895,1.7128,1.6908,1.7081,1.7047,1.6839,1.7107,1.7201,1.7141,1.8018,1.8607,1.8943,1.9123,1.9263,1.9322,1.9069,1.8744,1.8502,1.8692,1.8676,1.8472,1.8506,1.8808,1.9108,1.8854,1.9065,1.9407,1.9241,1.8975,1.8741,1.8573,1.8259,1.792,1.7769,1.7554,1.7373,1.7185,1.7132,1.7054,1.695,1.7019,1.695,1.6517,1.6272,1.6175,1.6167,1.6272,1.6307,1.6307,1.6473,1.6359,1.5771,1.5532,1.539,1.5284,1.4892,1.4541,1.4317,1.4245,1.4101,1.3775,1.3992,1.3924,1.3538,1.3492,1.3326,1.3004,1.2663,1.2457,1.232,1.2187,1.2096,1.2096,1.2243,1.2459,2.3733,2.3216,2.2669,2.2222,2.1896,2.1424,2.0369,2.1342,2.2264,2.1619,2.3068,2.4612,2.5218,2.5206,2.5716,2.7626,2.7391,2.721,2.8048,2.8063,2.78,2.7313,2.7056,2.6535,2.5457,2.5239,2.4591,2.3338,2.2927,2.2628,2.2402,2.2138,2.1997,2.1959,2.1336,2.0231,1.8582,1.7545,1.7033,1.6978,1.7323,1.7505,1.747,1.7613,1.771,1.7821,1.879,1.9234,1.9279,1.9749,1.9872,1.9758,1.9793,1.9513,1.915,1.9554,1.945,1.9075,1.8908,1.9175,1.9539,1.9241,1.9374,1.9615,1.944,1.9274,1.9108,1.8908,1.864,1.8371,1.8178,1.7998,1.7818,1.7666,1.7725,1.774,1.7545,1.7604,1.7579,1.7107,1.6821,1.6638,1.6482,1.6577,1.6612,1.6447,1.6577,1.6612,1.6412,1.6237,1.6132,1.6096,1.5434,1.5007,1.4982,1.4705,1.4425,1.4209,1.4199,1.4009,1.3541,1.3485,1.3336,1.2971,1.2661,1.2517,1.2517,1.2297,1.2182,1.2158,1.2305,1.2498,2.4008,2.301,2.2049,2.1631,2.086,2.0201,2.0319,2.0992,2.1666,2.1862,2.2817,2.3796,2.4313,2.5343,2.6266,2.6589,2.7816,2.8591,2.8088,2.8222,2.8139,2.7522,2.726,2.6627,2.529,2.5278,2.463,2.2917,2.2889,2.2777,2.2402,2.1883,2.1464,2.1128,2.0359,1.9627,1.8904,1.8218,1.7731,1.7401,1.747,1.7426,1.7279,1.7461,1.7719,1.8097,1.8913,1.9387,1.9597,2.0331,2.0191,1.9561,1.9724,1.9513,1.9119,1.9191,1.917,1.9108,1.9075,1.9274,1.9572,1.9341,1.9539,1.9835,1.9802,1.9671,1.9473,1.9274,1.9185,1.9042,1.8741,1.864,1.8563,1.8385,1.8259,1.8202,1.8168,1.792,1.7672,1.7579,1.7304,1.7132,1.721,1.7132,1.7097,1.7063,1.7063,1.7028,1.683,1.6491,1.6202,1.6096,1.5823,1.5584,1.5426,1.5204,1.4991,1.4756,1.4668,1.4327,1.3762,1.3494,1.317,1.2848,1.2672,1.2585,1.2585,1.2653,1.2621,1.2529,1.2775,1.2897,2.3774,2.261,2.1315,2.0596,1.9624,1.8734,1.8281,1.8756,1.9525,2.0271,2.1299,2.2339,2.3303,2.4208,2.503,2.5589,2.6509,2.7275,2.7599,2.7608,2.7603,2.7528,2.7208,2.6575,2.5384,2.515,2.4476,2.2965,2.274,2.259,2.2402,2.1921,2.1474,2.1061,2.029,1.9694,1.9378,1.8726,1.833,1.814,1.8221,1.8071,1.7668,1.7862,1.7992,1.8097,1.8805,1.9241,1.9429,2.0032,1.9985,1.9526,1.9724,1.9513,1.916,1.974,1.9795,1.9661,1.997,2.0158,2.0223,2.0145,2.0149,2.014,1.9933,1.9933,1.9944,1.955,1.9363,1.9264,1.9008,1.8808,1.8607,1.8529,1.8539,1.8607,1.8774,1.8539,1.8259,1.8259,1.8046,1.7901,1.7978,1.7852,1.7716,1.751,1.7407,1.7254,1.6943,1.6908,1.6839,1.656,1.6079,1.5797,1.5823,1.5293,1.4905,1.4808,1.4533,1.4137,1.3543,1.3388,1.3124,1.2814,1.274,1.2713,1.2713,1.2836,1.2836,1.2713,1.2897,1.3103,2.331,2.2185,2.0823,1.9718,1.8708,1.7734,1.6711,1.6988,1.7783,1.8877,1.9904,2.1039,2.228,2.2787,2.3427,2.4682,2.5097,2.5712,2.6961,2.7089,2.7163,2.7424,2.7145,2.6531,2.549,2.5037,2.4315,2.3141,2.2665,2.2365,2.2289,2.1911,2.1578,2.1205,2.0432,1.9904,1.9687,1.9058,1.8682,1.8682,1.8848,1.8676,1.8245,1.8397,1.8415,1.8403,1.8858,1.9228,1.953,1.9908,1.9961,1.9819,2.0087,1.9941,1.9617,2.0432,2.0544,2.036,2.093,2.1025,2.0861,2.0984,2.0765,2.041,2.014,2.027,2.0378,1.9911,1.9693,1.9551,1.9353,1.9108,1.8875,1.8818,1.8942,1.9131,1.9308,1.9175,1.9008,1.8975,1.8798,1.8677,1.8677,1.8563,1.8327,1.7944,1.7784,1.7564,1.7185,1.7426,1.7461,1.7107,1.6491,1.6175,1.6377,1.5446,1.4856,1.4882,1.4397,1.3884,1.338,1.333,1.3159,1.2844,1.2836,1.2836,1.2836,1.2989,1.2989,1.2836,1.3011,1.3246,2.2656,2.1935,2.1017,1.9588,1.8576,1.7881,1.7755,1.7709,1.7984,1.9129,1.9797,2.0437,2.1365,2.1679,2.2289,2.385,2.4661,2.5484,2.6504,2.7354,2.7729,2.7284,2.7127,2.6655,2.5517,2.5078,2.4427,2.3342,2.274,2.2252,2.1883,2.1655,2.1436,2.1215,2.0432,1.9904,1.9687,1.9058,1.8682,1.8682,1.8719,1.87,1.8671,1.8662,1.8982,1.9531,1.9348,1.969,2.0417,2.0796,2.086,2.0751,2.1295,2.1239,2.0836,2.0956,2.0956,2.0994,2.1387,2.1335,2.1096,2.1308,2.105,2.0669,2.0637,2.0637,2.0637,2.041,2.0432,2.0496,2.0107,2.0129,2.014,1.9835,1.9889,1.9911,1.9638,1.9671,1.9736,1.9572,1.9374,1.9241,1.9241,1.9108,1.8898,1.8476,1.8408,1.8283,1.794,1.794,1.7872,1.7647,1.7304,1.7132,1.727,1.6124,1.5427,1.5435,1.4603,1.3937,1.3578,1.3405,1.3214,1.2989,1.2989,1.2989,1.2989,1.318,1.3172,1.2981,1.3307,1.348,2.1407,2.0588,1.9615,1.8854,1.7945,1.7259,1.7334,1.7111,1.7226,1.8522,1.9158,1.9725,2.0461,2.1259,2.1922,2.2354,2.2914,2.3704,2.4853,2.5261,2.5784,2.6828,2.6895,2.6429,2.5339,2.4997,2.4204,2.2682,2.2252,2.1921,2.1617,2.154,2.1359,2.1022,2.0689,2.0447,2.0245,1.9994,1.9859,1.9859,1.9859,1.9648,1.9305,1.9417,1.9555,1.9642,1.9783,1.994,2.0129,2.0755,2.0786,2.0428,2.1048,2.1147,2.1055,2.145,2.1593,2.1707,2.2529,2.2367,2.1868,2.2094,2.1681,2.1063,2.0797,2.083,2.0946,2.0669,2.0593,2.0582,2.0324,2.0259,2.0183,2.0053,2.0074,2.0042,1.9835,1.9835,1.9835,1.9638,1.9539,1.9506,1.9638,1.9417,1.9142,1.8888,1.8643,1.8385,1.8042,1.8178,1.8245,1.809,1.7613,1.7201,1.6959,1.5943,1.5221,1.5022,1.4193,1.3627,1.342,1.3347,1.3272,1.318,1.318,1.318,1.318,1.3346,1.3346,1.3172,1.3528,1.3731,2.0012,1.9338,1.8556,1.8532,1.7868,1.7263,1.7456,1.7134,1.712,1.8262,1.8772,1.9222,1.9912,2.0752,2.1352,2.1246,2.1531,2.2244,2.3709,2.376,2.4398,2.6403,2.6278,2.5803,2.5206,2.4702,2.3848,2.2456,2.2063,2.1807,2.1617,2.1474,2.1244,2.0906,2.0945,2.0858,2.0605,2.0605,2.0605,2.0605,2.0605,2.0372,1.9975,2.0127,2.0064,1.9908,2.0182,2.0273,2.0343,2.0948,2.1048,2.0815,2.1382,2.1546,2.1553,2.2103,2.2342,2.2531,2.3433,2.3319,2.2719,2.2833,2.2352,2.1609,2.1024,2.101,2.1169,2.0914,2.0775,2.0679,2.0561,2.0356,2.0183,2.0183,2.0183,2.015,1.9998,2.0009,1.9976,1.9736,1.9704,1.978,1.9868,1.9714,1.9506,1.9396,1.9088,1.8754,1.8506,1.8573,1.8556,1.8225,1.7803,1.7354,1.6946,1.5851,1.5117,1.4924,1.4096,1.358,1.3454,1.3454,1.3415,1.3354,1.3354,1.3354,1.3354,1.3519,1.3558,1.3454,1.3748,1.3941,1.8549,1.8416,1.8439,1.8958,1.864,1.8276,1.8606,1.8253,1.8074,1.8673,1.8798,1.9031,1.9769,2.002,2.028,2.074,2.0875,2.1553,2.3438,2.358,2.4199,2.6083,2.5184,2.4649,2.5147,2.4229,2.342,2.3001,2.244,2.1987,2.1807,2.1436,2.1099,2.0906,2.1089,2.1002,2.0605,2.0605,2.0605,2.0605,2.0605,2.0605,2.0595,2.0595,2.0595,2.0605,2.0524,2.0848,2.1489,2.1623,2.1956,2.2419,2.283,2.2868,2.2718,2.2916,2.3113,2.3372,2.397,2.3975,2.3642,2.338,2.2918,2.2324,2.1446,2.119,2.119,2.119,2.1063,2.0903,2.0903,2.0658,2.041,2.041,2.041,2.0346,2.0151,2.0248,2.0302,1.9966,2.0009,2.0042,1.99,2.0009,2.0107,2.0074,1.9791,1.9572,1.9572,1.9308,1.879,1.7981,1.7898,1.78,1.7615,1.6069,1.5195,1.5371,1.4496,1.392,1.3799,1.3799,1.37,1.3511,1.3511,1.3511,1.3511,1.37,1.3799,1.3799,1.392,1.4181,1.6969,1.7047,1.7289,1.7588,1.7527,1.7515,1.8057,1.783,1.7754,1.8459,1.8707,1.8908,1.9274,1.9955,2.0479,2.0621,2.111,2.1734,2.2617,2.2816,2.3464,2.4971,2.4653,2.4423,2.4623,2.3387,2.2628,2.2777,2.1997,2.1474,2.1397,2.1282,2.1051,2.0693,2.0896,2.0858,2.0605,2.0605,2.0605,2.0605,2.0605,2.0605,2.0605,2.0886,2.1002,2.1031,2.1425,2.1449,2.1277,2.1929,2.2009,2.1808,2.2499,2.2777,2.274,2.2927,2.3113,2.3372,2.3824,2.3796,2.3525,2.3733,2.3425,2.2911,2.2548,2.1851,2.1221,2.1305,2.138,2.1434,2.1434,2.1371,2.1213,2.085,2.085,2.0786,2.0205,2.0161,2.015,1.9933,1.9813,1.978,1.9868,2.002,2.0107,2.0096,1.9922,1.9651,1.9169,1.8826,1.8294,1.7515,1.7182,1.6904,1.6648,1.5814,1.5207,1.4982,1.4375,1.398,1.395,1.395,1.3851,1.37,1.37,1.364,1.3511,1.3571,1.37,1.395,1.407,1.4428,1.6034,1.6213,1.6528,1.7153,1.7325,1.7502,1.7927,1.8026,1.8009,1.793,1.8216,1.8452,1.8365,1.8934,1.954,1.9926,2.0551,2.1311,2.2192,2.2434,2.2821,2.3685,2.4153,2.4153,2.36,2.2875,2.2402,2.2365,2.1655,2.1205,2.1205,2.1051,2.0848,2.0605,2.0858,2.0896,2.0605,2.0605,2.0605,2.0605,2.0605,2.0605,2.0605,2.0935,2.1099,2.1138,2.1655,2.1642,0.0,2.1985,2.2008,2.1627,2.2323,2.259,2.2628,2.2815,2.3113,2.3482,2.3861,2.3994,2.3955,2.4084,2.3672,2.3114,2.3125,2.2376,2.1571,2.1533,2.158,2.1698,2.1698,2.1624,2.1517,2.1178,2.1158,2.1063,2.0625,2.041,2.0248,2.0096,1.9944,1.9813,1.99,2.0064,2.0248,2.0313,1.9933,1.949,1.9146,1.8522,1.7873,1.7113,1.6779,1.6447,1.6056,1.5531,1.5137,1.4894,1.4445,1.4169,1.4109,1.4109,1.404,1.389,1.383,1.3731,1.3601,1.3601,1.3791,1.4109,1.4249,1.4695,0.0,1.5905,1.6201,1.7421,1.7843,1.7989,1.8158,1.8644,0.0,1.7276,1.7584,1.7925,1.741,1.7429,1.789,1.9093,1.9661,2.0544,2.2221,2.2446,2.2424,2.2505,2.3666,2.3897,2.2402,2.2665,2.2665,2.1921,2.1464,2.1244,2.1205,2.0886,2.0644,2.0605,2.1002,2.1012,2.0605,2.0605,2.0605,2.0605,2.0605,2.0605,2.0644,2.0819,2.0945,2.0945,2.132,2.1474,2.1502,2.1835,2.1873,2.1769,2.2176,2.2365,2.2402,2.259,2.3075,2.3641,2.4007,2.4418,2.4743,2.4446,2.38,2.3163,2.333,2.2854,2.2208,2.1866,2.1757,2.1777,2.1741,2.158,2.1451,2.142,2.1336,2.1221,2.1201,2.0903,2.0582,2.0432,2.0281,2.0107,1.9976,2.0205,2.0508,2.0701,1.9917,1.9293,1.9342,1.8405,1.7492,1.6878,1.6667,1.6376,1.581,1.5313,1.5,1.5,1.4684,1.4455,1.4327,1.4297,1.4228,1.404,1.389,1.3799,1.3799,1.383,1.3989,1.4327,1.4458,1.4913,1.5392,0.0,1.6272,1.6809,1.7229,1.7585,0.0,1.8267,1.8438,1.8158,1.8496,1.8977,1.9465,1.9046,1.9349,2.162,2.1659,2.1754,2.271,2.3261,2.3585,2.3754,2.4082,2.4129,2.374,2.3001,2.2515,2.2478,2.1949,2.1578,2.1436,2.1349,2.1156,2.0829,2.1051,2.1012,2.0605,2.0605,2.0605,2.0605,2.0605,2.0693,2.0829,2.1051,2.1205,2.1359,2.1282,2.1195,2.1021,2.0992,2.1031,2.1136,2.153,2.1921,2.2176,2.2402,2.2852,2.3409,2.3629,2.4116,2.4622,2.4838,2.4649,2.4343,2.423,2.3641,2.2866,2.2427,2.2511,2.2575,2.2012,2.1925,2.1956,2.1683,2.162,2.1494,2.1265,2.0999,2.0775,2.0582,2.0518,2.0453,2.0302,2.0561,2.0807,2.0839,2.0514,1.9946,1.9063,1.8428,1.7747,1.6898,1.6579,1.6477,1.6535,1.5595,1.5,1.5,1.4684,1.4485,1.4446,1.4446,1.4396,1.4237,1.4049,1.395,1.395,1.407,1.4219,1.4449,1.4754,1.5284,1.536,1.584,1.6127,1.6699,1.7202,1.7642,1.7912,1.8355,1.8596,1.8114,1.8519,1.9,1.9158,1.9158,1.9739,2.1767,2.216,2.2535,2.3444,2.3838,2.4057,2.4057,2.4129,2.4105,2.3813,2.3187,2.274,2.259,2.2176,2.1845,2.1655,2.154,2.1359,2.1061,2.1128,2.1012,2.0605,2.0605,2.0605,2.0605,2.0605,2.0693,2.0906,2.1099,2.132,2.1464,2.1195,2.1041,2.1031,2.0838,2.0876,2.1069,2.1464,2.1693,2.1845,2.2138,2.259,2.3075,2.3482,2.4055,2.4682,2.4885,2.4814,2.4695,2.4742,2.4387,2.3813,2.3259,2.2965,2.2779,2.2492,2.2241,2.203,2.1956,2.18,2.1706,2.1675,2.138,2.1083,2.0903,2.0807,2.0679,2.0443,2.069,2.0871,2.0818,2.0456,1.9811,1.8796,1.8334,1.7734,1.671,1.6646,1.6665,1.6609,1.5889,1.54,1.5323,1.495,1.4684,1.4586,1.4536,1.4455,1.4297,1.4109,1.401,1.401,1.413,1.43,1.4499,1.4843,1.5488,1.5463,1.5895,1.6166,1.685,1.7461,1.7933,1.7966,1.8631,1.8965,1.8017,1.8489,1.9011,1.8697,1.8998,1.9831,2.1431,2.2317,2.3189,2.4217,2.4261,2.4189,2.4105,2.4152,2.4007,2.3494,2.3335,2.3038,2.2478,2.2252,2.2073,2.1845,2.1655,2.1464,2.1244,2.1244,2.1041,2.0644,2.0644,2.0644,2.0644,2.0644,2.077,2.0984,2.1167,2.1359,2.1502,2.1069,2.0954,2.1089,2.0789,2.0838,2.1089,2.1425,2.154,2.154,2.1873,2.2289,2.274,2.3372,2.4127,2.479,2.4754,2.4646,2.4562,2.4981,2.4957,2.4649,2.4198,2.349,2.2881,2.2874,2.2424,2.1968,2.2104,2.1949,2.1855,2.2104,2.1788,2.1431,2.1316,2.1094,2.0839,2.0529,2.069,2.085,2.0733,2.0236,1.957,1.8661,1.8303,1.7742,1.6657,1.6805,1.6867,1.6595,1.6241,1.597,1.5788,1.5323,1.4941,1.4715,1.4586,1.4476,1.4357,1.4258,1.4189,1.4189,1.4309,1.4478,1.4647,1.4931,1.5633,1.5808,1.6771,1.7335,1.7133,1.7555,1.8035,1.8204,1.8556,1.9031,1.9562,2.0031,2.0683,2.1902,2.0806,2.0743,2.3903,2.412,2.4172,2.5004,2.4575,2.4406,2.5028,2.4575,2.4152,2.408,2.3446,2.2927,2.2665,2.2478,2.2252,2.2063,2.1845,2.1655,2.1474,2.1464,2.1282,2.0867,2.0867,2.0867,2.0867,2.0867,2.1051,2.1397,2.1436,2.154,2.1731,2.0954,2.0644,2.0644,1.9854,1.9902,2.042,2.0498,2.0925,2.1512,2.1578,2.1959,2.2553,2.3335,2.4127,2.4754,2.461,2.4538,2.4562,2.4981,2.4838,2.4635,2.5167,2.45,2.3445,2.2535,2.2234,2.2092,2.1824,2.1949,2.2092,2.1956,2.1894,2.1788,2.1663,2.138,2.1094,2.0871,2.0786,2.0733,2.0701,2.0719,2.023,1.8857,1.8778,1.842,1.729,1.7066,1.7098,1.7294,1.6927,1.6524,1.6239,1.5556,1.5029,1.4706,1.4686,1.4656,1.4627,1.4872,1.5029,1.5029,1.5157,1.5235,1.5264,1.5303,1.5855,1.5842,1.701,1.7726,1.7825,1.8278,1.8707,1.8741,1.8908,1.9208,1.9726,2.0118,2.0562,2.1272,2.1709,2.2729,2.5101,2.4744,2.4311,2.479,2.4406,2.4225,2.4802,2.437,2.4043,2.4043,2.3519,2.3075,2.2889,2.2665,2.2478,2.2289,2.2063,2.1883,2.1655,2.154,2.131,2.0886,2.077,2.0693,2.0586,2.043,2.0537,2.0848,2.0848,2.1041,2.1252,2.0527,2.0372,2.0566,2.0167,2.0167,2.0498,2.0954,2.1079,2.1079,2.152,2.2128,2.2815,2.3409,2.397,2.4454,2.4236,2.4236,2.4418,2.4814,2.4825,2.4754,2.5182,2.4429,2.3402,2.3143,2.2511,2.1886,2.173,2.1737,2.1769,2.1781,2.1706,2.162,2.1557,2.14,2.121,2.0967,2.0935,2.0914,2.0733,2.0818,2.0383,1.8909,1.9008,1.8637,1.7185,1.7245,1.7302,1.7148,1.6906,1.6524,1.5855,1.5507,1.5079,1.4616,1.4754,1.4804,1.4715,1.4834,1.5029,1.5215,1.5332,1.541,1.541,1.5507,1.6009,1.5781,1.6906,1.7759,1.8504,1.9119,1.9575,1.9588,1.9721,1.9919,2.0216,2.0509,2.0679,2.0608,2.2519,2.4402,2.5279,2.5015,2.4718,2.4814,2.4442,2.4332,2.4834,2.4342,2.4016,2.413,2.3634,2.3224,2.3075,2.2815,2.2553,2.2402,2.2138,2.1959,2.1731,2.1578,2.131,2.0915,2.0781,2.0586,2.0303,2.0098,2.0195,2.0497,2.0497,2.0683,2.0947,2.032,2.0184,2.0411,2.0323,2.0372,2.0489,2.1185,2.1185,2.0876,2.1548,2.2306,2.3038,2.3298,2.3751,2.4164,2.397,2.4043,2.4273,2.4682,2.479,2.4861,2.5087,2.434,2.3469,2.3597,2.2784,2.1871,2.1627,2.1517,2.1506,2.1667,2.158,2.1494,2.1557,2.1463,2.1273,2.1051,2.1063,2.101,2.0733,2.0818,2.0383,1.894,1.9107,1.8711,1.7031,1.7299,1.7392,1.685,1.6733,1.6381,1.5555,1.5507,1.5245,1.4803,1.5039,1.5088,1.4951,1.501,1.5157,1.541,1.5507,1.5555,1.5507,1.5643,1.6105,1.5613,1.6603,1.7571,1.8904,1.9775,2.0457,2.0941,2.1241,2.1593,2.2162,2.236,2.2356,2.2101,2.3658,2.4765,2.4074,2.5222,2.6151,2.5828,2.5276,2.5195,2.5913,2.4903,2.4384,2.488,2.3936,2.3298,2.3298,2.274,2.2402,2.2402,2.2035,2.1731,2.154,2.1502,2.132,2.0906,2.1076,2.0878,2.0303,2.0264,2.0555,2.1151,2.1151,2.1151,2.1142,2.068,2.0252,1.9902,1.9539,1.9618,1.9981,2.0303,2.0848,2.1464,2.1731,2.2327,2.2964,2.2815,2.3372,2.4164,2.397,2.4043,2.4273,2.4682,2.479,2.4861,2.5182,2.4764,2.4032,2.3254,2.2848,2.2403,2.1464,2.1466,2.1667,2.1698,2.1698,2.1761,2.2092,2.1643,2.1253,2.1368,2.0999,2.0733,2.0701,2.0818,2.0446,1.9152,1.9123,1.8637,1.7147,1.7177,1.7199,1.6818,1.6573,1.6278,1.5902,1.5749,1.5643,1.5624,1.5653,1.5643,1.5614,1.5855,1.6028,1.6028,1.6056,1.598,1.5856,1.5759,1.6105,1.5507,1.6664,1.7655,1.9003,2.0267,2.1241,2.155,2.1632,2.1815,2.2339,2.2266,2.2301,2.3001,2.3782,2.4475,2.5021,2.5836,2.6324,2.6129,2.5664,2.5516,2.5875,2.5011,2.4542,2.4975,2.3958,2.3298,2.3298,2.2852,2.2478,2.2225,2.1959,2.1655,2.132,2.1079,2.0886,2.0693,2.0379,2.0103,1.9882,2.0401,2.0548,2.0383,2.0636,2.0831,2.0945,2.078,2.0696,2.0677,2.0394,2.033,2.0351,2.0439,2.0992,2.1731,2.2063,2.259,2.3187,2.3224,2.3666,2.4164,2.397,2.4043,2.4273,2.4682,2.479,2.4791,2.481,2.4845,2.4764,2.4147,2.3207,2.2271,2.1922,2.1612,2.1403,2.1403,2.1454,2.1612,2.1968,2.1632,2.1336,2.1388,2.119,2.0978,2.0839,2.0967,2.0603,1.9283,1.916,1.8692,1.7337,1.7071,1.6892,1.6694,1.6516,1.6345,1.622,1.6038,1.5865,1.5662,1.5961,1.6048,1.5826,1.5999,1.6114,1.6114,1.6114,1.6056,1.6009,1.5885,1.621,1.5286,1.65,1.7602,1.9319,2.0614,2.1661,2.242,2.2354,2.2275,2.2771,2.2348,2.2252,2.3387,2.3855,2.4427,2.5527,2.6286,2.6667,2.6496,2.6117,2.5967,2.6298,2.5323,2.4855,2.5344,2.4197,2.3372,2.3298,2.2852,2.244,2.2035,2.2018,2.1794,2.13,2.1095,2.0958,2.0897,2.0286,1.9951,1.9801,2.0661,2.0755,2.0085,2.0521,2.0747,2.0907,2.0907,2.0927,2.0973,2.0838,2.0765,2.0818,2.0868,2.128,2.1917,2.2267,2.274,2.3224,2.3519,2.3787,2.4007,2.4007,2.4043,2.4189,2.4562,2.4718,2.4671,2.4612,2.4895,2.5121,2.4618,2.3568,2.2528,2.2201,2.1751,2.1328,2.1285,2.1431,2.162,2.1925,2.1737,2.1506,2.1506,2.1316,2.1158,2.1031,2.1094,2.0797,1.9667,1.934,1.8692,1.7433,1.7043,1.6835,1.674,1.6591,1.6488,1.6413,1.6278,1.6095,1.5865,1.6202,1.6278,1.6066,1.6153,1.6181,1.6181,1.6181,1.6153,1.6114,1.5961,1.622,1.4914,1.61,1.7325,1.9854,2.0845,2.1694,2.3653,2.3554,2.3247,2.3797,2.2942,2.239,2.3241,2.4048,2.4777,2.5231,2.6537,2.7377,2.704,2.6667,2.6666,2.7422,2.6022,2.536,2.62,2.4662,2.353,2.3309,2.274,2.2225,2.1818,2.2252,2.2186,2.1511,2.176,2.1769,2.1502,2.1111,2.0688,2.022,2.1071,2.1163,2.0488,2.0934,2.1117,2.1117,2.1117,2.0897,2.053,2.0479,2.0782,2.1214,2.1387,2.173,2.2143,2.2345,2.2665,2.3075,2.3446,2.3593,2.3677,2.408,2.4043,2.397,2.4381,2.449,2.4526,2.4718,2.4909,2.4957,2.4433,2.3897,2.3252,2.2228,2.1838,2.1624,2.1431,2.1663,2.1968,2.2166,2.1917,2.1698,2.1698,2.1434,2.119,2.119,2.119,2.0974,2.0262,1.9603,1.8692,1.7433,1.7106,1.7011,1.7011,1.6881,1.6676,1.6413,1.6413,1.6413,1.6413,1.6413,1.6413,1.6413,1.6413,1.6413,1.6413,1.6413,1.6306,1.6114,1.5961,1.6048,1.4796,1.6234,1.7567,1.886,2.0276,2.1507,2.2128,2.2891,2.3567,2.396,2.3633,2.3446,2.3943,2.4554,2.5205,2.5764,2.6566,2.7099,2.7204,2.6998,2.6854,2.7003,2.5949,2.5288,2.5435,2.45,2.3742,2.34,2.3056,2.2857,2.2799,2.2426,2.2159,2.1997,2.1742,2.1687,2.1802,2.1358,2.1034,2.0919,2.1287,2.1163,2.0539,2.1193,2.1504,2.1504,2.1504,2.144,2.1284,2.0717,2.0606,2.0759,2.0849,2.1308,2.1945,2.2418,2.2852,2.3261,2.3519,2.3593,2.3629,2.3897,2.3934,2.3934,2.42,2.4309,2.4264,2.406,2.4085,2.4015,2.3647,2.3228,2.2802,2.2267,2.1803,2.1463,2.142,2.158,2.1812,2.1968,2.1643,2.1391,2.1474,2.1221,2.1031,2.119,2.119,2.0797,1.9625,1.8907,1.8129,1.7199,1.7039,1.6955,1.6864,1.6807,1.6676,1.6413,1.6477,1.6438,1.621,1.6316,1.6413,1.6413,1.6477,1.6477,1.6413,1.6413,1.6374,1.6306,1.6134,1.6428,1.4358,1.6055,1.7576,1.8767,2.0026,2.1118,2.1531,2.2645,2.3635,2.3799,2.3763,2.3855,2.4234,2.478,2.5385,2.5925,2.664,2.7101,2.7144,2.7072,2.7053,2.7188,2.619,2.5485,2.5615,2.4542,2.3733,2.3309,2.2988,2.2762,2.2654,2.2585,2.2462,2.2328,2.2151,2.2071,2.2086,2.1488,2.1183,2.1175,2.1299,2.1118,2.0778,2.1394,2.1696,2.1696,2.1696,2.1696,2.165,2.1296,2.1159,2.1183,2.1117,2.1471,2.2099,2.2465,2.2777,2.3113,2.3482,2.3556,2.353,2.3824,2.3861,2.3824,2.4007,2.4018,2.395,2.3904,2.3757,2.3503,2.3208,2.3013,2.2763,2.2246,2.1836,2.1526,2.1273,2.1454,2.1686,2.1694,2.1463,2.1273,2.1305,2.1094,2.0935,2.1063,2.1158,2.0708,1.9373,1.8833,1.8213,1.7238,1.7106,1.705,1.6881,1.6881,1.6751,1.6431,1.6477,1.6353,1.6038,1.6192,1.6278,1.6278,1.6353,1.6353,1.6278,1.6374,1.6413,1.6413,1.6181,1.6475,1.3795,1.5677,1.7461,1.9147,1.9966,2.0621,2.1619,2.2674,2.3437,2.342,2.3569,2.3835,2.4358,2.4911,2.5488,2.6022,2.6867,2.7345,2.708,2.7044,2.7227,2.7704,2.6541,2.5869,2.6284,2.4754,2.3589,2.3243,2.272,2.2297,2.203,2.2733,2.2996,2.2611,2.2791,2.2754,2.2432,2.1674,2.1273,2.1206,2.1206,2.1163,2.1172,2.1522,2.1696,2.1696,2.1696,2.1696,2.1731,2.1917,2.1996,2.2001,2.1803,2.2002,2.2342,2.2349,2.2515,2.2777,2.3335,2.3409,2.3335,2.3714,2.3714,2.3604,2.3787,2.3714,2.3629,2.4043,2.3704,2.3201,2.3004,2.3011,2.2893,2.2151,2.1958,2.1765,2.1074,2.1328,2.1624,2.1431,2.1388,2.1336,2.119,2.1031,2.0935,2.0903,2.1031,2.07,1.9381,1.9194,1.8714,1.747,1.73,1.72,1.7011,1.6983,1.6825,1.6431,1.6402,1.6259,1.5943,1.6038,1.6085,1.6085,1.6085,1.6085,1.6085,1.6259,1.6355,1.6355,1.621,1.6343,1.4091,1.5979,1.765,1.8409,1.9439,2.0574,2.1837,2.2254,2.2647,2.3407,2.3956,2.454,2.5399,2.5966,2.6655,2.7698,2.7732,2.7728,2.7967,2.7644,2.7408,2.7471,2.6553,2.5883,2.5716,2.4668,2.3988,2.3956,2.3185,2.3012,2.3642,2.3183,2.3008,2.3268,2.2974,2.2804,2.2706,2.2349,2.2039,2.1868,2.1868,2.178,2.1559,2.165,2.1696,2.1696,2.1696,2.1696,2.1668,2.1427,2.1429,2.1528,2.1196,2.1428,2.1929,2.1927,2.2252,2.2703,2.2852,2.2964,2.3113,2.3335,2.3409,2.3372,2.3409,2.3409,2.3409,2.3677,2.2954,2.2248,2.2674,2.2487,2.212,2.195,2.2097,2.206,2.1314,2.1316,2.1463,2.142,2.1305,2.119,2.0999,2.1063,2.1094,2.0924,2.085,2.0445,1.9467,1.9171,1.8677,1.7734,1.7266,1.7039,1.7011,1.6909,1.6733,1.6413,1.6506,1.641,1.6056,1.6085,1.6066,1.5933,1.6066,1.6066,1.5943,1.6,1.6011,1.6029,1.6353,1.6712,1.3295,1.532,1.7193,1.856,1.9515,2.0413,2.1408,2.1629,2.1939,2.2969,2.3747,2.444,2.5097,2.587,2.6643,2.7325,2.7723,2.797,2.8016,2.7716,2.7567,2.7801,2.6894,2.6271,2.6318,2.5187,2.4457,2.4374,2.3588,2.3296,2.3679,2.3338,2.3136,2.3144,2.2935,2.2715,2.2451,2.2318,2.2132,2.1919,2.1919,2.183,2.1696,2.1696,2.1696,2.1696,2.1696,2.1696,2.1678,2.159,2.1639,2.1686,2.1224,2.1559,2.2219,2.1829,2.2171,2.2901,2.2853,2.2964,2.315,2.3261,2.3298,2.3298,2.3298,2.3298,2.3335,2.342,2.2875,2.2332,2.2658,2.2605,2.2332,2.1788,2.1993,2.2153,2.1562,2.1362,2.1273,2.1178,2.119,2.1094,2.0722,2.0614,2.0571,2.0539,2.055,2.0298,1.9516,1.9013,1.8471,1.768,1.713,1.6814,1.6814,1.674,1.662,1.6402,1.6477,1.642,1.6249,1.6239,1.6163,1.599,1.6066,1.6056,1.599,1.6087,1.6202,1.6335,1.6581,1.6976,1.2002,1.4202,1.6497,1.8651,1.9446,1.992,2.0622,2.0795,2.1115,2.2242,2.3241,2.4037,2.4569,2.5532,2.6374,2.674,2.7598,2.8167,2.7935,2.7807,2.7889,2.8284,2.7335,2.6762,2.7169,2.5795,2.4781,2.457,2.393,2.3469,2.3297,2.3434,2.3276,2.2794,2.2759,2.2539,2.2097,2.2052,2.1919,2.1696,2.1696,2.1696,2.1696,2.1696,2.1696,2.1696,2.1696,2.1696,2.1741,2.1919,2.2052,2.1978,2.1419,2.1842,2.2648,2.1818,2.217,2.3041,2.294,2.3001,2.315,2.3224,2.3224,2.3187,2.3224,2.3261,2.3261,2.3261,2.2991,2.2722,2.2758,2.29,2.2817,2.1812,2.1899,2.2085,2.1628,2.1285,2.1031,2.0903,2.0935,2.0903,2.0496,2.0107,1.99,2.0042,2.0194,2.0062,1.9467,1.8916,1.8319,1.7631,1.7038,1.6665,1.6609,1.6542,1.6467,1.6402,1.6413,1.6413,1.6413,1.6413,1.6316,1.6153,1.6114,1.6085,1.6056,1.6278,1.6506,1.6733,1.6874,1.7183,1.0623,1.3194,1.5864,1.7463,1.8017,1.8489,1.9599,1.9758,2.0003,2.1295,2.2756,2.4103,2.5116,2.5877,2.6826,2.8178,2.8382,2.8432,2.8643,2.8671,2.8654,2.8574,2.7656,2.7028,2.7117,2.5667,2.4734,2.4775,2.4147,2.377,2.373,2.3594,2.3276,2.2794,2.2574,2.2353,2.2097,2.1874,2.1741,2.1696,2.1696,2.1696,2.1696,2.1696,2.1696,2.1696,2.1696,2.1696,2.1696,2.1741,2.1731,2.1739,2.1488,2.1855,2.2445,2.1758,2.2085,2.2819,2.2573,2.2515,2.259,2.2927,2.2927,2.2815,2.3001,2.3038,2.3038,2.3038,2.271,2.2385,2.2507,2.2711,2.2825,2.2365,2.2241,2.1947,2.1025,2.0649,2.054,2.0701,2.0485,2.0302,2.055,2.0064,1.9704,1.99,1.9802,1.9616,1.9366,1.9041,1.8595,1.7903,1.7302,1.6846,1.6612,1.6343,1.6239,1.6374,1.6413,1.6413,1.6413,1.6413,1.6374,1.6374,1.6181,1.6038,1.5943,1.6192,1.6324,1.6381,1.7078,1.744,0.9979,1.2344,1.4478,1.6038,1.6639,1.7272,1.8894,1.898,1.9158,2.0628,2.176,2.2848,2.4153,2.5351,2.6524,2.7704,2.8286,2.8611,2.8684,2.851,2.8234,2.7865,2.7446,2.7021,2.6688,2.6217,2.5717,2.5226,2.4795,2.4439,2.4057,2.3807,2.3406,2.2803,2.253,2.2309,2.2097,2.183,2.1696,2.1696,2.1696,2.1696,2.1696,2.1696,2.1696,2.1696,2.1696,2.1696,2.1696,2.1696,2.1696,2.165,2.1369,2.1906,2.2734,2.1693,2.2201,2.3232,2.237,2.2268,2.2552,2.2525,2.2515,2.2553,2.2628,2.2815,2.2964,2.2852,2.2748,2.2695,2.2622,2.2794,2.2814,2.22,2.1964,2.164,2.0719,2.0475,2.0475,2.0669,2.0324,2.002,2.0194,1.9704,1.9407,1.9671,1.955,1.945,1.9473,1.8964,1.8406,1.7864,1.7255,1.6761,1.6519,1.6363,1.6306,1.6374,1.6413,1.6413,1.6413,1.6413,1.6413,1.6413,1.6306,1.6249,1.6173,1.6449,1.6666,1.6874,1.7368,1.77,0.8821,1.0833,1.2518,1.4167,1.4991,1.5965,1.7894,1.8065,1.8286,1.9889,2.0634,2.1361,2.2618,2.4282,2.5817,2.6829,2.7835,2.8493,2.8511,2.8341,2.8044,2.7532,2.7259,2.6856,2.6283,2.6343,2.6091,2.5333,2.5137,2.4787,2.4239,2.3937,2.3493,2.2803,2.253,2.2309,2.2097,2.183,2.1696,2.1696,2.1696,2.1696,2.1696,2.1696,2.1696,2.1696,2.1696,2.1696,2.1696,2.1696,2.1696,2.1659,2.1392,2.1983,2.2868,2.1724,2.2298,2.3453,2.2167,2.2059,2.2436,2.2133,2.2138,2.2252,2.2327,2.2553,2.2815,2.259,2.274,2.2852,2.2628,2.2777,2.283,2.2094,2.1739,2.1274,2.0446,2.027,2.0335,2.0508,2.0107,1.9769,1.9802,1.9374,1.9142,1.944,1.9374,1.9341,1.9473,1.8971,1.8456,1.7915,1.7328,1.6847,1.6591,1.6407,1.6345,1.6413,1.6413,1.6413,1.6413,1.6431,1.6431,1.6413,1.6431,1.6431,1.6413,1.6733,1.7043,1.7267,1.7629,1.7893,0.6567,0.8125,0.9825,1.1546,1.295,1.4425,1.6278,1.6765,1.7219,1.8845,1.9551,2.0051,2.0653,2.2736,2.4762,2.5978,2.7106,2.7911,2.8191,2.8598,2.8696,2.8299,2.7352,2.6566,2.6142,2.544,2.4929,2.4741,2.4622,2.442,2.4219,2.3937,2.3493,2.2803,2.253,2.2309,2.2097,2.183,2.1696,2.1696,2.1696,2.1696,2.1696,2.1696,2.1696,2.1696,2.1696,2.1696,2.1696,2.1696,2.1696,2.1696,2.1668,2.2157,2.2698,2.1832,2.2254,2.3089,2.1893,2.1681,2.1857,2.1837,2.1807,2.1883,2.2073,2.2252,2.2402,2.2176,2.2402,2.2628,2.2214,2.2553,2.2881,2.239,2.1792,2.1045,2.0138,1.9933,1.9966,2.0107,1.9714,1.9384,1.9572,1.9175,1.8875,1.9108,1.9241,1.9241,1.9142,1.9187,1.9032,1.8424,1.7821,1.7318,1.6987,1.6456,1.621,1.6374,1.6413,1.6413,1.6413,1.6534,1.6524,1.6413,1.6534,1.6524,1.6413,1.692,1.719,1.7217,1.781,1.8084,0.495,0.6353,0.7961,0.9173,1.0682,1.2391,1.4313,1.5175,1.603,1.7497,1.8596,1.9446,1.9972,2.1868,2.3704,2.482,2.598,2.6953,2.7591,2.784,2.7756,2.7331,2.7333,2.7054,2.6166,2.655,2.6493,2.5661,2.5584,2.5229,2.4423,2.4186,2.3721,2.3013,2.275,2.2495,2.2097,2.183,2.1696,2.1696,2.1696,2.1696,2.1696,2.1571,2.1526,2.1526,2.1526,2.1562,2.1696,2.1696,2.1696,2.1696,2.1696,2.2132,2.2698,2.1692,2.2023,2.2796,2.1421,2.1213,2.1551,2.1317,2.1397,2.1617,2.1693,2.1959,2.2176,2.2101,2.2289,2.244,2.2176,2.2365,2.2434,2.1636,2.1054,2.0484,1.9843,1.9704,1.978,1.9944,1.9813,1.9605,1.9341,1.9108,1.8965,1.8908,1.8841,1.8841,1.9075,1.9042,1.8833,1.8433,1.8321,1.7926,1.7079,1.691,1.6732,1.6423,1.6413,1.6413,1.6413,1.6459,1.6459,1.6413,1.6459,1.6459,1.6413,1.6987,1.7228,1.7217,1.781,1.8166,0.3499,0.4739,0.6249,0.7338,0.8887,1.0663,1.2606,1.3824,1.4912,1.6127,1.7507,1.8606,1.9024,2.063,2.2341,2.3717,2.4911,2.6097,2.7203,2.7449,2.7517,2.7551,2.7688,2.7492,2.6664,2.7038,2.6993,2.616,2.5887,2.5396,2.4669,2.4358,2.3851,2.3013,2.2794,2.2451,2.1963,2.1914,2.1824,2.1696,2.1788,2.1779,2.1696,2.1383,2.1338,2.1482,2.1437,2.1482,2.1607,2.1651,2.1696,2.1696,2.1785,2.2176,2.2576,2.1812,2.2152,2.2781,2.1568,2.149,2.1917,2.1571,2.1596,2.1737,2.1737,2.1855,2.1997,2.1997,2.2138,2.2252,2.2138,2.2252,2.2168,2.1325,2.082,2.0381,1.9809,1.9605,1.9572,1.9835,1.9802,1.9605,1.9241,1.9075,1.8942,1.8741,1.8717,1.8774,1.8965,1.8975,1.8895,1.8651,1.8614,1.828,1.7543,1.7302,1.703,1.6622,1.6467,1.6413,1.6413,1.6431,1.6459,1.6413,1.6431,1.6488,1.6545,1.7043,1.7228,1.7217,1.7893,1.8313,0.0,0.0,0.0,0.6031,0.761,0.9326,1.1261,1.2719,1.3892,1.4774,1.6253,1.7444,1.7616,1.8956,2.0685,2.2556,2.3982,2.5383,2.6996,2.7469,2.803,2.9053,2.8373,2.7718,2.7533,2.6798,2.6271,2.6126,2.5315,2.4877,2.4882,2.4454,2.3764,2.2847,2.253,2.2185,2.175,2.2089,2.2089,2.1733,2.1935,2.1907,2.1705,2.123,2.1266,2.1696,2.1482,2.1392,2.1392,2.1607,2.1696,2.1741,2.1963,2.222,2.2394,2.2246,2.2568,2.3008,2.2419,2.2492,2.2864,2.2653,2.2402,2.2186,2.2186,2.1986,2.1769,2.1807,2.1959,2.2101,2.2101,2.2252,2.2206,2.1478,2.1157,2.0786,2.0061,1.9593,1.9428,1.9802,1.9572,1.9285,1.9285,1.9008,1.8741,1.8516,1.8808,1.9008,1.8808,1.9075,1.9241,1.9098,1.8704,1.8424,1.8414,1.7574,1.7027,1.7017,1.6622,1.6413,1.6374,1.6534,1.6524,1.6374,1.6524,1.6666,1.6818,1.706,1.7217,1.7245,1.803,1.8556,0.2589,0.0,0.0,0.0,0.0,0.0,0.932,1.1194,1.2864,1.4041,1.5826,1.714,1.6924,1.8017,1.9071,1.9404,2.1589,2.3718,2.5148,2.6025,2.6955,2.806,2.8304,2.8221,2.79,2.7738,2.747,2.6915,2.6233,2.5554,2.4935,2.4143,2.359,2.3329,2.2706,2.2494,2.2651,2.24,2.2373,2.2565,2.2198,2.2053,2.2108,2.1356,2.1186,2.1482,2.1239,2.1096,2.1141,2.1383,2.1482,2.1482,2.1741,2.1963,2.2183,2.2212,2.2512,2.2873,2.2403,2.2284,2.2415,2.2542,2.2201,2.174,2.2107,2.1791,2.1436,2.1731,2.1845,2.1921,2.2073,2.2138,2.1991,2.1329,2.112,2.0823,2.0009,1.964,1.9411,1.9337,1.9308,1.9108,1.8482,1.8607,1.864,1.8212,1.8371,1.8607,1.8774,1.8875,1.8975,1.9108,1.906,1.8885,1.8445,1.7989,1.752,1.7037,1.6622,1.6345,1.6181,1.6363,1.6363,1.6181,1.6552,1.6751,1.6818,1.706,1.7385,1.7717,1.8383,1.8718,0.2513,0.2871,0.3466,0.4362,0.0,0.0,0.772,0.9225,1.0751,1.2155,1.404,1.5432,1.5409,1.6578,1.7387,1.6923,1.8849,2.119,2.3461,2.4765,2.5986,2.7519,2.84,2.8764,2.8483,2.8346,2.7983,2.7267,2.6321,2.5571,2.5068,2.4158,2.375,2.4029,2.3239,2.2986,2.3303,2.3075,2.3009,2.3083,2.269,2.2434,2.2272,2.158,2.131,2.1392,2.1141,2.0997,2.0997,2.106,2.1159,2.1293,2.1696,2.1963,2.2157,2.2438,2.274,2.2959,2.2797,2.2782,2.2908,2.318,2.2991,2.2625,2.2533,2.2155,2.1718,2.1602,2.1655,2.1883,2.2138,2.2138,2.1985,2.1587,2.1397,2.1136,2.0334,1.9893,1.9521,1.9158,1.9175,1.9042,1.8448,1.8674,1.8774,1.8279,1.8371,1.8573,1.8774,1.8875,1.8975,1.9108,1.9075,1.8961,1.8725,1.8289,1.7802,1.7236,1.6813,1.6386,1.6019,1.6192,1.621,1.6114,1.6552,1.6931,1.7183,1.734,1.7634,1.8111,1.8518,1.8744,0.2447,0.274,0.3267,0.3922,0.4543,0.0,0.6302,0.7194,0.8237,0.9793,1.1528,1.2925,1.3282,1.462,1.544,1.4768,1.5936,1.818,2.171,2.3341,2.4951,2.6978,2.8217,2.8928,2.8972,2.8613,2.806,2.7296,2.6032,2.523,2.5186,2.4378,2.4221,2.4772,2.3962,2.3551,2.3739,2.3841,2.3717,2.3391,2.321,2.2869,2.23,2.1804,2.1489,2.1347,2.1096,2.0997,2.0997,2.0781,2.0826,2.1087,2.1776,2.2097,2.223,2.2882,2.3135,2.3188,2.3416,2.3624,2.3797,2.412,2.4113,2.3919,2.3166,2.2703,2.229,2.1442,2.1502,2.1921,2.2252,2.2214,2.2033,2.1944,2.1811,2.148,2.0785,2.0215,1.9651,1.9135,1.9008,1.8942,1.8707,1.8875,1.8875,1.8516,1.864,1.8774,1.8841,1.9008,1.9108,1.9108,1.8942,1.8888,1.9003,1.8457,1.792,1.743,1.7103,1.6595,1.5934,1.6089,1.6165,1.6114,1.6581,1.7145,1.7739,1.7767,1.7986,1.8394,1.8545,1.8679,0.3433,0.3249,0.3211,0.3911,0.4107,0.0,0.4832,0.606,0.742,0.8595,0.9913,1.0908,1.1151,1.1822,1.2251,1.1919,1.3423,1.5684,1.8655,2.0907,2.2904,2.4737,2.6195,2.7328,2.8122,2.8073,2.7837,2.7487,2.6392,2.5572,2.5144,2.5002,2.4907,2.4792,2.4254,2.4047,2.4193,2.3991,2.3957,2.4003,2.3135,2.2639,2.2505,2.1542,2.1113,2.1051,2.0826,2.0871,2.0997,2.0781,2.0934,2.1338,2.1651,2.1998,2.2397,2.2916,2.3232,2.3416,2.3503,2.3547,2.3634,2.4077,2.373,2.3158,2.3125,2.2633,2.1946,2.1558,2.1731,2.2025,2.1959,2.1883,2.1825,2.1656,2.1559,2.1295,2.0427,2.0038,1.9626,1.8768,1.8539,1.8327,1.7978,1.8226,1.8438,1.8337,1.8472,1.8674,1.9008,1.9075,1.9108,1.9108,1.9065,1.8864,1.8405,1.8347,1.7904,1.685,1.7257,1.7052,1.5954,1.651,1.6609,1.6124,1.6768,1.7412,1.803,1.8177,1.8313,1.8394,1.8637,1.8771,0.3669,0.3689,0.377,0.4079,0.3966,0.0,0.0,0.4882,0.5631,0.6947,0.7855,0.8484,0.8576,0.9296,0.9813,0.9679,1.1235,1.3022,1.4587,1.7923,2.0826,2.2545,2.4053,2.5392,2.6542,2.6848,2.6874,2.6694,2.6195,2.5824,2.5645,2.5345,2.5287,2.5436,2.491,2.4677,2.4822,2.4532,2.444,2.4538,2.3633,2.3148,2.3026,2.2035,2.1522,2.1417,2.1041,2.0961,2.1195,2.0961,2.115,2.1562,2.1651,2.182,2.2132,2.275,2.3023,2.3154,2.3276,2.3373,2.3547,2.3764,2.3786,2.3568,2.3022,2.223,2.1536,2.1381,2.1578,2.1807,2.1807,2.1731,2.1655,2.1655,2.1655,2.1432,2.0624,2.0308,1.9915,1.9012,1.8564,1.8236,1.8022,1.8236,1.8414,1.8414,1.8448,1.8583,1.8774,1.8808,1.8841,1.8942,1.8875,1.8716,1.8535,1.857,1.8207,1.7304,1.7685,1.7441,1.6295,1.6745,1.6936,1.6797,1.7228,1.7673,1.8084,1.8193,1.8259,1.8259,1.8545,1.8652,0.3942,0.416,0.4505,0.4424,0.4063,0.3802,0.0,0.0,0.0,0.5209,0.5771,0.6065,0.6106,0.6829,0.7461,0.7486,0.8946,1.0236,1.071,1.4394,1.7751,1.9768,2.125,2.2682,2.4104,2.4706,2.5114,2.5474,2.5363,2.5502,2.5876,2.5581,2.5575,2.6032,2.5477,2.5179,2.5235,2.4981,2.4784,2.4686,2.3971,2.3479,2.3169,2.2476,2.1988,2.1687,2.1275,2.1239,2.1437,2.123,2.141,2.1776,2.1741,2.1785,2.1909,2.2574,2.2803,2.2847,2.3013,2.3232,2.3406,2.3503,2.3816,2.3967,2.2909,2.1989,2.132,2.132,2.1425,2.1589,2.1769,2.1655,2.154,2.1655,2.1693,2.1532,2.0883,2.0554,2.0139,1.9339,1.8714,1.8303,1.8236,1.8337,1.8414,1.8448,1.8448,1.8448,1.8448,1.8448,1.8516,1.8674,1.8573,1.8476,1.8552,1.869,1.8441,1.7775,1.811,1.7837,1.683,1.6988,1.727,1.7623,1.7673,1.7822,1.8084,1.8084,1.8084,1.8111,1.8437,1.8491,0.5042,0.5,0.4953,0.5119,0.4664,0.4093,0.4001,0.0,0.3876,0.3862,0.0,0.4151,0.4278,0.0,0.0,0.4939,0.6184,0.7423,0.844,0.996,1.2157,1.5263,1.6652,1.819,2.031,2.1004,2.2058,2.3902,2.3503,2.3656,2.4801,2.5572,2.5905,2.5732,2.5431,2.5187,2.4941,2.4686,2.4341,2.3945,2.3443,2.2765,2.1991,2.1971,2.1615,2.1104,2.1266,2.1472,2.1651,2.1642,2.1776,2.2052,2.1776,2.1954,2.2353,2.2662,2.2803,2.2847,2.3013,2.3135,2.3188,2.3416,2.3265,2.2972,2.2788,2.2295,2.1731,2.1731,2.1769,2.1769,2.1807,2.1655,2.1474,2.132,2.1282,2.1123,2.0632,2.0236,1.9828,1.9304,1.8714,1.8236,1.8076,1.8042,1.811,1.8313,1.8303,1.8303,1.8303,1.8303,1.8337,1.8337,1.8337,1.8144,1.778,1.8218,1.8121,1.7163,1.8134,1.8338,1.743,1.7444,1.7675,1.8121,1.7852,1.7822,1.8084,1.8084,1.8084,1.8123,1.8313,1.8422,0.6199,0.6267,0.619,0.5809,0.5194,0.4546,0.4068,0.364,0.334,0.3168,0.0,0.0,0.0,0.0,0.0,0.0,0.5153,0.6038,0.6907,0.768,0.931,1.2405,1.3273,1.4699,1.7307,1.8278,1.9681,2.2059,2.2011,2.265,2.4412,2.4996,2.5353,2.5479,2.5186,2.4932,2.4677,2.4381,2.4183,2.3985,2.3095,2.273,2.2784,2.1875,2.1631,2.1907,2.1698,2.1785,2.2087,2.2087,2.2176,2.2264,2.2132,2.2176,2.223,2.2362,2.2485,2.2618,2.2838,2.3013,2.3105,2.312,2.291,2.2595,2.2503,2.2354,2.2121,2.1727,2.1927,2.211,2.1727,2.154,2.1464,2.1244,2.1282,2.1189,2.0492,2.0252,1.9987,1.9339,1.8714,1.8236,1.8042,1.8008,1.8008,1.7954,1.7954,1.7954,1.7954,1.7896,1.7906,1.811,1.8032,1.792,1.7845,1.817,1.8188,1.7777,1.8162,1.8376,1.8312,1.7933,1.7988,1.8479,1.8125,1.7975,1.8084,1.8084,1.8084,1.8084,1.8313,1.834,0.7197,0.74,0.7372,0.6677,0.6041,0.5416,0.4638,0.3989,0.3452,0.3203,0.3039,0.0,0.0,0.0,0.2935,0.3676,0.0,0.4539,0.5163,0.5552,0.6753,0.9505,1.0181,1.1402,1.3894,1.4781,1.6418,1.9488,1.9807,2.0961,2.3438,2.4079,2.4583,2.4946,2.4826,2.4686,2.448,2.4082,2.3821,2.3812,2.2886,2.2645,2.3046,2.2128,2.1989,2.2542,2.2164,2.2176,2.253,2.253,2.253,2.253,2.253,2.2397,2.2274,2.2274,2.2397,2.253,2.2794,2.2969,2.3086,2.3008,2.2824,2.2644,2.2534,2.2591,2.2555,2.1896,2.2087,2.2348,2.1663,2.154,2.1512,2.1244,2.1359,2.1306,2.0528,2.0397,2.0273,1.9681,1.8949,1.8345,1.8218,1.8018,1.7803,1.7691,1.7647,1.7647,1.7569,1.7486,1.7495,1.7769,1.7647,1.7647,1.7837,1.8032,1.8202,1.8347,1.8271,1.8513,1.9158,1.8563,1.85,1.91,1.8605,1.8318,1.8318,1.818,1.8084,1.8057,1.822,1.8232,0.7942,0.8247,0.8342,0.7849,0.7485,0.693,0.5803,0.5231,0.4767,0.4091,0.4056,0.3977,0.3369,0.3272,0.3087,0.2549,0.2404,0.0,0.0,0.3028,0.3924,0.6088,0.7102,0.8184,0.9569,0.9807,1.16,1.585,1.6402,1.7957,2.1206,2.2813,2.377,2.4029,2.4324,2.4538,2.448,2.366,2.3187,2.312,2.2706,2.231,2.1987,2.2647,2.274,2.2407,2.2671,2.275,2.2803,2.2803,2.2803,2.2803,2.2803,2.2803,2.2803,2.2803,2.2803,2.2803,2.3013,2.3091,2.3091,2.3081,2.3133,2.3177,2.3157,2.3186,2.303,2.2367,2.2333,2.2348,2.1663,2.1655,2.1693,2.1282,2.1359,2.1397,2.0964,2.0681,2.0521,2.0558,1.9508,1.8623,1.8668,1.8014,1.7505,1.7505,1.7505,1.7426,1.7235,1.7201,1.7201,1.7235,1.7235,1.7314,1.7505,1.7657,1.7954,1.8448,1.8496,1.8888,1.9813,1.935,1.9406,2.0143,1.9303,1.8873,1.8873,1.8352,1.8018,1.7909,1.8057,1.8123,1.0126,1.0034,0.9652,0.9032,0.8243,0.7361,0.624,0.5781,0.5324,0.4385,0.4814,0.5021,0.3955,0.3962,0.3967,0.3402,0.3173,0.3048,0.0,0.302,0.3275,0.4049,0.4979,0.5841,0.6529,0.6862,0.8855,1.3374,1.4048,1.6038,2.0077,2.1127,2.2164,2.3414,2.3405,2.3663,2.4291,2.3416,2.3062,2.3335,2.2389,2.2179,2.2629,2.2458,2.2485,2.2671,2.2759,2.2803,2.2794,2.2925,2.3013,2.3013,2.3013,2.3013,2.2969,2.2662,2.2662,2.2847,2.3013,2.2916,2.2725,2.2906,2.2665,2.2362,2.2838,2.2899,2.2697,2.2463,2.2462,2.2387,2.1855,2.1769,2.1731,2.1464,2.1464,2.1397,2.0984,2.0673,2.0504,2.0541,1.9492,1.8607,1.8697,1.8023,1.747,1.7314,1.7314,1.7279,1.7201,1.7072,1.7038,1.7201,1.7072,1.7072,1.7279,1.7545,1.7774,1.7954,1.8438,1.9008,1.9671,1.9447,1.9607,2.0331,1.9616,1.9314,1.9424,1.9252,1.8948,1.8548,1.8504,1.8305,1.1404,1.1221,1.0768,1.0006,0.9316,0.8494,0.725,0.6968,0.6678,0.5832,0.6237,0.6447,0.5503,0.5247,0.4969,0.4421,0.3864,0.3362,0.0,0.3106,0.3036,0.2644,0.3257,0.3916,0.4363,0.4988,0.7059,1.1206,1.2513,1.4821,1.8676,2.0046,2.1259,2.2434,2.2779,2.3179,2.3695,2.2919,2.2688,2.305,2.2207,2.2162,2.291,2.2529,2.2539,2.2925,2.2925,2.2925,2.2925,2.3057,2.3091,2.3091,2.3091,2.3091,2.3047,2.274,2.275,2.2925,2.3057,2.2818,2.2582,2.2995,2.2727,2.2412,2.3165,2.3186,2.2956,2.2711,2.2586,2.2387,2.1817,2.1731,2.1769,2.154,2.1502,2.1397,2.0984,2.0755,2.0621,2.0621,1.9748,1.899,1.8906,1.8184,1.7502,1.716,1.7132,1.7166,1.7097,1.6968,1.6943,1.7072,1.6968,1.6968,1.7166,1.7407,1.7569,1.7706,1.8293,1.8865,1.9462,1.9544,1.986,2.05,1.9969,1.975,1.9874,1.9751,1.9487,1.9063,1.8828,1.8482]}]]